[[{"header":{"parameterUnit":"m.s-1","parameterCategory":1,"la1":30.6,"la2":29.2853,"lo1":-89.7004,"lo2":-87.6739,"dy":0.0162,"dx":0.0183,"nx":112,"ny":82,"refTime":"2026-03-27T12:00:00:Z","depth":0,"parameterNumber":2,"parameterNumberName":"U-component_of_WINDS"},"data":[0.0,0.0,0.0,0.0,0.0,0.0,0.0,0.0,0.0,0.0,0.0,0.0,0.0,0.0,0.0,0.0,0.0,0.0,0.0,0.0,0.0,0.0,0.0,0.0,0.0,0.0,0.0,0.0,0.0,0.0,0.0,0.0,0.0,0.0,0.0,0.0,0.0,0.0,0.0,0.0,0.0,0.0,0.0,0.0,0.0,0.0,0.0,0.0,0.0,0.0,0.0,0.0,0.0,0.0,0.0,0.0,0.0,0.0,0.0,0.0,0.0,0.0,0.0,0.0,0.0,0.0,0.0,0.0,0.0,0.0,0.0,0.0,0.0,0.0,0.0,0.0,0.0,0.0,0.0,0.0,0.0,0.0,0.0,0.0,0.0,0.0,0.0,0.0,0.0,0.0,0.2522,0.1679,0.1242,0.1318,0.2119,0.2761,0.3181,0.3296,0.0,0.0,0.0,0.0,0.0,0.0,0.0,0.0,0.0,0.0,0.0,0.0,0.0,0.0,0.0,0.0,0.0,0.0,0.0,0.0,0.0,0.0,0.0,0.0,0.0,0.0,0.0,0.0,0.0,0.0,0.0,0.0,0.0,0.0,0.0,0.0,0.0,0.0,0.0,0.0,0.0,0.0,0.0,0.0,0.0,0.0,0.0,0.0,0.0,0.0,0.0,0.0,0.0,0.0,0.0,0.0,0.0,0.0,0.0,0.0,0.0,0.0,0.0,0.0,0.0,0.0,0.0,0.0,0.0,0.0,0.0,0.0,0.0,0.0,0.0,0.0,0.0,0.0,0.0,0.0,0.0,0.0,0.0,0.0,0.0,0.0,0.0,0.0,0.0,0.0,0.0,0.0,0.0,0.0,0.0,0.0,0.0,0.0,0.0,0.0,0.0,0.0,0.0,0.0,0.1569,0.107,0.0998,0.1047,0.1198,0.1925,0.2381,0.2404,0.0,0.0,0.0,0.0,0.0,0.0,0.0,0.0,0.0,0.0,0.0,0.0,0.0,0.0,0.0,0.0,0.0,0.0,0.0,0.0,0.0,0.0,0.0,0.0,0.0,0.0,0.0,0.0,0.0,0.0,0.0,0.0,0.0,0.0,0.0,0.0,0.0,0.0,0.0,0.0,0.0,0.0,0.0,0.0,0.0,0.0,0.0,0.0,0.0,0.0,0.0,0.0,0.0,0.0,0.0,0.0,0.0,0.0,0.0,0.0,0.0,0.0,0.0,0.0,0.0,0.0,0.0,0.0,0.0,0.0,0.0,0.0,0.0,0.0,0.0,0.0,0.0,0.0,0.0,0.0,0.0,0.0,0.0,0.0,0.0,0.0,0.0,0.0,0.0,0.0,0.0,0.0,0.0,0.0,0.0,0.0,0.0,0.0,0.0,0.0,0.0,0.0,0.0,0.0898,0.0314,0.015,-0.0307,-0.0401,0.0154,0.1289,0.2161,0.2552,0.3403,0.0,0.0,0.0,0.0,0.0,0.0,0.0,0.0,0.0,0.0,0.0,0.0,0.0,0.0,0.0,0.0,0.0,0.0,0.0,0.0,0.0,0.0,0.0,0.0,0.0,0.0,0.0,0.0,0.0,0.0,0.0,0.0,0.0,0.0,0.0,0.0,0.0,0.0,0.0,0.0,0.0,0.0,0.0,0.0,0.0,0.0,0.0,0.0,0.0,0.0,0.0,0.0,0.0,0.0,0.0,0.0,0.0,0.0,0.0,0.0,0.0,0.0,0.0,0.0,0.0,0.0,0.0,0.0,0.0,0.0,0.0,0.0,0.0,0.0,0.0,0.0,0.0,0.0,0.0,0.0,0.0,0.0,0.0,0.0,0.0,0.0,0.0,0.0,0.0,0.0,0.0,0.0,0.0,0.0,0.0,0.0,0.0,0.0,0.0,0.0,0.0,0.0,0.008,-0.0897,-0.0856,-0.1548,-0.1704,-0.0925,0.0599,0.179,0.2472,0.3509,0.0,0.0,0.0,0.0,0.0,0.0,0.0,0.0,0.0,0.0,0.0,0.0,0.0,0.0,0.0,0.0,0.0,0.0,0.0,0.0,0.0,0.0,0.0,0.0,0.0,0.0,0.0,0.0,0.0,0.0,0.0,0.0,0.0,0.0,0.0,0.0,0.0,0.0,0.0,0.0,0.0,0.0,0.0,0.0,0.0,0.0,0.0,0.0,0.0,0.0,0.0,0.0,0.0,0.0,0.0,0.0,0.0,0.0,0.0,0.0,0.0,0.0,0.0,0.0,0.0,0.0,0.0,0.0,0.0,0.0,0.0,0.0,0.0,0.0,0.0,0.0,0.0,0.0,0.0,0.0,0.0,0.0,0.0,0.0,0.0,0.0,0.0,0.0,0.0,0.0,0.0,0.0,0.0,0.0,0.0,0.0,0.0,0.0,0.0,0.0,0.0,0.0,-0.0983,-0.1898,-0.1882,-0.1969,-0.1974,-0.1885,-0.0374,0.0838,0.1374,0.2543,0.0,0.0,0.0,0.0,0.0,0.0,0.0,0.0,0.0,0.0,0.0,0.0,0.0,0.0,0.0,0.0,0.0,0.0,0.0,0.0,0.0,0.0,0.0,0.0,0.0,0.0,0.0,0.0,0.0,0.0,0.0,0.0,0.0,0.0,0.0,0.0,0.0,0.0,0.0,0.0,0.0,0.0,0.0,0.0,0.0,0.0,0.0,0.0,0.0,0.0,0.0,0.0,0.0,0.0,0.0,0.0,0.0,0.0,0.0,0.0,0.0,0.0,0.0,0.0,0.0,0.0,0.0,0.0,0.0,0.0,0.0,0.0,0.0,0.0,0.0,0.0,0.0,0.0,0.0,0.0,0.0,0.0,0.0,0.0,0.0,0.0,0.0,0.0,0.0,0.0,0.0,0.0,0.0,0.0,0.0,0.0,0.0,0.0,0.0,0.0,0.0,0.0,-0.1272,-0.1928,0.0,-0.2023,-0.2014,-0.2004,-0.0272,0.074,0.0573,0.0,0.0,0.0,0.0,0.0,0.0,0.0,0.0,0.0,0.0,0.0,0.0,0.0,0.0,0.0,0.0,0.0,0.0,0.0,0.0,0.0,0.0,0.0,0.0,0.0,0.0,0.0,0.0,0.0,0.0,0.0,0.0,0.0,0.0,0.0,0.0,0.0,0.0,0.0,0.0,0.0,0.0,0.0,0.0,0.0,0.0,0.0,0.0,0.0,0.0,0.0,0.0,0.0,0.0,0.0,0.0,0.0,0.0,0.0,0.0,0.0,0.0,0.0,0.0,0.0,0.0,0.0,0.0,0.0,0.0,0.0,0.0,0.0,0.0,0.0,0.0,0.0,0.0,0.0,0.0,0.0,0.0,0.0,0.0,0.0,0.0,0.0,0.0,0.0,0.0,0.0,0.0,0.0,0.0,0.0,0.0,0.0,0.0,0.0,0.0,0.0,0.0,-0.0679,-0.143,-0.1954,0.0,-0.2068,-0.1929,-0.1568,-0.0341,0.0437,0.0548,0.0,0.0,0.0,0.0,0.0,0.0,0.0,0.0,0.0,0.0,0.0,0.0,0.0,0.0,0.0,0.0,0.0,0.0,0.0,0.0,0.0,0.0,0.0,0.0,0.0,0.0,0.0,0.0,0.0,0.0,0.0,0.0,0.0,0.0,0.0,0.0,0.0,0.0,0.0,0.0,0.0,0.0,0.0,0.0,0.0,0.0,0.0,0.0,0.0,0.0,0.0,0.0,0.0,0.0,0.0,0.0,0.0,0.0,0.0,0.0,0.0,0.0,0.0,0.0,0.0,0.0,0.0,0.0,0.0,0.0,0.0,0.0,0.0,0.0,0.0,0.0,0.0,0.0,0.0,0.0,0.0,0.0,0.0,0.0,0.0,0.0,0.0,0.0,0.0,0.0,0.0,0.0,0.0,0.0,0.0,0.0,0.0,0.0,0.0,0.0,0.0,0.0,-0.0643,-0.1511,-0.211,-0.2108,-0.2171,-0.1741,-0.0594,-0.074,-0.0199,0.0,0.0,0.0,0.0,0.0,0.0,0.0,0.0,0.0,0.0,0.0,0.0,0.0,0.0,0.0,0.0,0.0,0.0,0.0,0.0,0.0,0.0,0.0,0.0,0.0,0.0,0.0,0.0,0.0,0.0,0.0,0.0,0.0,0.0,0.0,0.0,0.0,0.0,0.0,0.0,0.0,0.0,0.0,0.0,0.0,0.0,0.0,0.0,0.0,0.0,0.0,0.0,0.0,0.0,0.0,0.0,0.0,0.0,0.0,0.0,0.0,0.0,0.0,0.0,0.0,0.0,0.0,0.0,0.0,0.0,0.0,0.0,0.0,0.0,0.0,0.0,0.0,0.0,0.0,0.0,0.0,0.0,0.0,0.0,0.0,0.0,0.0,0.0,0.0,0.0,0.0,0.0,0.0,0.0,0.0,0.0,0.0,0.0,0.0,0.0,0.0,0.0,0.0,-0.1388,-0.1885,-0.2172,-0.2167,-0.2178,-0.1723,-0.0544,0.0065,0.06,0.1118,0.0,0.0,0.0,0.0,0.0,0.0,0.0,0.0,0.0,0.0,0.0,0.0,0.0,0.0,0.0,0.0,0.0,0.0,0.0,0.0,0.0,0.0,0.0,0.0,0.0,0.0,0.0,0.0,0.0,0.0,0.0,0.0,0.0,0.0,0.0,0.0,0.0,0.0,0.0,0.0,0.0,0.0,0.0,0.0,0.0,0.0,0.0,0.0,0.0,0.0,0.0,0.0,0.0,0.0,0.0,0.0,0.0,0.0,0.0,0.0,0.0,0.0,0.0,0.0,0.0,0.0,0.0,0.0,0.0,0.0,0.0,0.0,0.0,0.0,0.0,0.0,0.0,0.0,0.0,0.0,0.0,0.0,0.0,0.0,0.0,0.0,0.0,0.0,0.0,0.0,0.0,0.0,0.0,0.0,0.0,0.0,0.0,0.0,0.0,0.0,0.0,0.0,-0.1325,-0.187,-0.2225,-0.2292,-0.2263,-0.1785,-0.0634,0.0,0.0507,0.0969,0.0,0.0,0.0,0.0,0.0,0.0,0.0,0.0,0.0,0.0,0.0,0.0,0.0,0.0,0.0,0.0,0.0,0.0,0.0,0.0,0.0,0.0,0.0,0.0,0.0,0.0,0.0,0.0,0.0,0.0,0.0,0.0,0.0,0.0,0.0,0.0,0.0,0.0,0.0,0.0,0.0,0.0,0.0,0.0,0.0,0.0,0.0,0.0,0.0,0.0,0.0,0.0,0.0,0.0,0.0,0.0,0.0,0.0,0.0,0.0,0.0,0.0,0.0,0.0,0.0,0.0,0.0,0.0,0.0,0.0,0.0,0.0,0.0,0.0,0.0,0.0,0.0,0.0,0.0,0.0,0.0,0.0,0.0,0.0,0.0,0.0,0.0,0.0,0.0,0.0,0.0,0.0,0.0,0.0,0.0,0.0,0.0,0.0,0.0,0.0,0.0,0.0,-0.0825,-0.1676,-0.2259,-0.2371,-0.2422,-0.1929,-0.0805,-0.0642,-0.0167,0.0905,0.0,0.0,0.0,0.0,0.0,0.0,0.0,0.0,0.0,0.0,0.0,0.0,0.0,0.0,0.0,0.0,0.0,0.0,0.0,0.0,0.0,0.0,0.0,0.0,0.0,0.0,0.0,0.0,0.0,0.0,0.0,0.0,0.0,0.0,0.0,0.0,0.0,0.0,0.0,0.0,0.0,0.0,0.0,0.0,0.0,0.0,0.0,0.0,0.0,0.0,0.0,0.0,0.0,0.0,0.0,0.0,0.0,0.0,0.0,0.0,1.3141,0.0,0.0,0.0,0.0,0.0,0.0,0.0,0.0,0.0,0.0,0.0,0.0,0.0,0.0,0.0,0.0,0.0,0.0,0.0,0.0,0.0,0.0,0.0,0.0,0.0,0.0,0.0,0.0,0.0,0.0,0.0,0.0,0.0,0.0,0.0,0.0,0.0,0.0,0.0,0.0,0.0,-0.1568,-0.208,-0.2358,-0.2409,-0.2435,-0.198,-0.0789,-0.0727,-0.0308,0.0685,0.065,0.0,0.0,0.0,0.0,0.0,0.0,0.0,0.0,0.0,0.0,0.0,0.0,0.0,0.0,0.0,0.0,0.0,0.0,0.0,0.0,0.0,0.0,0.0,0.0,0.0,0.0,0.0,0.0,0.0,0.0,0.0,0.0,0.0,0.0,0.0,0.0,0.0,0.0,0.0,0.0,0.0,0.0,0.0,0.0,0.0,0.0,0.0,0.0,0.0,0.0,0.0,0.0,0.0,0.0,0.0,0.0,0.0,0.0,0.0,0.0,1.3095,0.0,0.0,0.0,0.0,0.0,0.0,0.0,0.0,0.0,0.0,0.0,0.0,0.0,0.0,0.0,0.0,0.0,0.0,0.0,0.0,0.0,0.0,0.0,0.0,0.0,0.0,0.0,0.0,0.0,0.0,0.0,0.0,0.0,0.0,0.0,0.0,0.0,0.0,0.0,0.0,-0.1356,-0.1994,-0.2401,-0.2461,-0.2481,-0.2246,-0.1606,-0.1082,-0.0606,-0.0132,0.0272,0.0,0.0,0.0,0.0,0.0,0.0,0.0,0.0,0.0,0.0,0.0,0.0,0.0,0.0,0.0,0.0,0.0,0.0,0.0,0.0,0.0,0.0,0.0,0.0,0.0,0.0,0.0,0.0,0.0,0.0,0.0,0.0,0.0,0.0,0.0,0.0,0.0,0.0,0.0,0.0,0.0,0.0,0.0,0.0,0.0,0.0,0.0,0.0,0.0,0.0,0.0,0.0,0.0,1.3723,1.3979,1.3805,1.4177,1.3917,1.3177,1.2553,1.2843,1.3696,1.3011,0.0,0.0,0.0,0.0,0.0,0.0,0.0,0.0,0.0,0.0,0.0,0.0,0.0,0.0,0.0,0.0,0.0,0.0,0.0,0.0,0.0,0.0,0.0,0.0,0.4085,0.4109,0.0,0.0,0.0,0.0,0.0,0.0,0.0,0.0,0.0,0.0,0.0,0.0,-0.1102,-0.1865,-0.2435,-0.2521,-0.253,-0.2519,-0.2532,-0.1652,-0.1153,-0.1229,-0.0453,0.003,0.0,0.0,0.0,0.0,0.0,0.0,0.0,0.0,0.0,0.0,0.0,0.0,0.0,0.0,0.0,0.0,0.0,0.0,0.0,0.0,0.0,0.0,0.0,0.0,0.0,0.0,0.0,0.0,0.0,0.0,0.0,0.0,1.2434,1.2582,0.0,0.0,0.0,0.0,0.0,0.0,0.0,0.0,0.0,0.0,0.0,0.0,0.0,1.3023,1.2957,1.362,1.3927,1.3826,1.454,1.4632,1.4177,1.3219,1.255,1.2069,1.1047,0.0,1.3107,1.2871,0.0,0.0,0.0,0.0,0.0,0.0,0.0,0.0,0.0,0.0,0.0,0.0,0.0,0.0,0.0,0.0,0.0,0.0,0.0,0.0,0.0,0.0,0.4638,0.4591,0.4646,0.4674,0.0,0.4026,0.351,0.3368,0.3231,0.0,0.0,0.0,0.0,0.0,0.0,0.0,-0.1915,-0.2311,-0.2521,-0.2583,-0.259,-0.2589,-0.2585,-0.2416,-0.2279,-0.2211,-0.1968,-0.1523,-0.0852,-0.0663,0.0,0.0,0.0,0.0,0.0,0.0,0.0,0.0,0.0,0.0,0.0,0.0,0.0,0.0,0.0,0.0,0.0,0.0,0.0,0.0,0.0,0.0,0.0,0.0,0.0,0.0,0.0,0.0,0.0,1.2621,1.3756,1.3197,1.3662,1.3614,0.0,0.0,0.0,0.0,0.0,0.0,0.0,0.0,0.0,1.2858,1.3022,1.3065,1.2979,1.3567,1.396,1.4113,1.3712,1.3554,1.3529,1.2236,1.1416,1.097,1.0504,1.0602,1.1082,1.1052,1.0854,1.0495,0.0,0.0,0.0,0.0,0.8008,0.7678,0.8086,0.8151,0.0,0.7974,0.0,0.0,0.0,0.0,0.0,0.0,0.0,0.0,0.0,0.0,0.4834,0.494,0.4464,0.3935,0.3888,0.295,0.2473,0.0,0.3742,0.3558,0.309,0.0,0.0,0.0,0.0,-0.1725,-0.221,-0.2397,-0.2537,-0.2596,-0.2601,-0.2601,-0.2601,-0.2578,-0.2538,-0.2478,-0.238,-0.2142,-0.1749,-0.1239,-0.1059,0.0,0.0,0.0,0.0,0.0,0.0,0.0,0.0,0.0,0.0,0.0,0.0,0.0,0.0,0.0,0.0,0.0,0.0,0.0,0.0,0.0,0.0,0.0,0.0,0.0,0.0,0.0,0.0,1.365,1.4568,1.3906,1.4303,1.4058,0.0,0.0,0.0,0.0,0.0,0.0,1.3281,1.311,1.3082,1.3243,1.2949,1.2946,1.3277,1.3051,1.326,1.3929,1.2688,1.2231,1.2376,1.108,1.0235,0.9824,0.95,0.9199,0.8903,0.9354,0.9532,0.9478,0.8674,0.8244,0.8034,0.7868,0.7593,0.7386,0.7932,0.8053,0.7947,0.7783,0.0,0.6369,0.5633,0.0,0.0,0.0,0.0,0.4128,0.4124,0.4249,0.4363,0.4202,0.3445,0.2754,0.2722,0.1819,0.1465,0.0,0.3245,0.3075,0.258,0.0,0.0,0.0,0.0,-0.2208,-0.2318,-0.2461,-0.2568,-0.2619,-0.2626,-0.2626,-0.2626,-0.2617,-0.2594,-0.2511,-0.2492,-0.2425,-0.2352,-0.1697,-0.1566,-0.1969,0.0,0.0,0.0,0.0,0.0,0.0,0.0,0.0,0.0,0.0,0.0,0.0,0.0,0.0,0.0,0.0,0.0,0.0,0.0,0.0,0.0,0.0,0.0,0.0,0.0,0.0,0.0,0.0,0.0,1.4712,1.5001,0.0,0.0,0.0,0.0,1.3528,1.3667,1.3685,1.3492,1.3394,1.3524,1.3856,1.2812,1.2993,1.4573,1.2276,1.1856,1.3219,1.1965,1.1217,1.0873,0.9663,0.8909,0.852,0.7376,0.6871,0.6957,0.852,0.9148,0.9112,0.8729,0.7997,0.7153,0.7218,0.6718,0.6033,0.62,0.6262,0.6327,0.6471,0.597,0.537,0.524,0.4768,0.0,0.0,0.466,0.45,0.3381,0.3178,0.2978,0.1699,0.1418,0.1382,0.1324,0.1173,0.1054,0.0,0.0958,0.0889,0.0604,0.0,-0.062,-0.088,-0.1716,-0.2323,-0.2482,-0.2566,-0.2611,-0.2684,-0.2688,-0.2688,-0.2688,-0.262,-0.2602,-0.2599,-0.2585,-0.2578,-0.2504,-0.2375,-0.2271,-0.2187,-0.2005,0.0,0.0,0.0,0.0,0.0,0.0,0.0,0.0,0.0,0.0,0.0,0.0,0.0,0.0,0.0,0.0,0.0,0.0,0.0,0.0,0.0,0.0,0.0,0.0,0.0,0.0,0.0,0.0,1.4667,1.5291,0.0,1.3621,1.3651,1.3588,1.3183,1.3623,1.3877,1.3773,1.3954,1.3746,1.3133,1.2953,1.2755,1.251,1.1721,1.1494,1.1823,1.0574,0.9809,0.9462,0.8231,0.7434,0.6996,0.6557,0.6228,0.6041,0.6606,0.7066,0.7393,0.7236,0.699,0.6695,0.6494,0.6246,0.5991,0.5796,0.5769,0.581,0.5754,0.5532,0.5291,0.517,0.497,0.4848,0.4948,0.5055,0.4844,0.3523,0.3277,0.304,0.1613,0.0612,0.0,0.0,-0.0733,-0.1444,-0.1499,-0.0199,0.0826,0.053,-0.0179,-0.0759,-0.1082,-0.1868,-0.2463,-0.2544,-0.2626,-0.2688,-0.2718,-0.2739,-0.2743,-0.2722,-0.2669,-0.2638,-0.2622,-0.2598,-0.2564,-0.2517,-0.2465,-0.2435,-0.2316,-0.2206,-0.2,0.0,0.0,0.0,0.0,0.0,0.0,0.0,0.0,0.0,0.0,0.0,0.0,0.0,0.0,0.0,0.0,0.0,0.0,0.0,0.0,0.0,0.0,0.0,0.0,0.0,1.4726,1.54,1.4836,1.5348,1.5181,1.3821,1.3809,1.3775,1.3425,1.3991,1.4322,1.4274,1.4508,1.4136,1.2997,1.2653,1.2098,1.1221,1.0343,1.005,1.033,0.9025,0.8263,0.7894,0.7051,0.6429,0.5995,0.6019,0.5897,0.5635,0.5635,0.5865,0.621,0.6138,0.6138,0.6188,0.596,0.5925,0.5926,0.5668,0.5621,0.5638,0.5561,0.548,0.5398,0.5319,0.5278,0.5275,0.5335,0.5046,0.4376,0.3027,0.2371,0.1731,0.0222,-0.0799,-0.142,-0.142,-0.2158,-0.2799,-0.2799,-0.1425,-0.0319,-0.0534,-0.1008,-0.1405,-0.1654,-0.2184,-0.2589,-0.2627,-0.2686,-0.2731,-0.2751,-0.2772,-0.2776,-0.2755,-0.2683,-0.2644,-0.2635,-0.2594,-0.2555,-0.2517,-0.2476,-0.2429,-0.2416,-0.226,-0.2068,-0.1869,0.0,0.0,0.0,0.0,0.0,0.0,0.0,0.0,0.0,0.0,0.0,0.0,0.0,0.0,0.0,0.0,0.0,0.0,0.0,0.0,0.0,0.0,0.0,1.4076,1.479,1.5209,1.5297,1.5135,1.4881,1.4442,1.4475,1.448,1.4422,1.4728,1.4948,1.496,1.5038,1.4585,1.3422,1.1869,1.1038,1.1002,0.8189,0.7429,0.8701,0.7471,0.6649,0.6172,0.6175,0.5958,0.5613,0.5671,0.5698,0.5701,0.5701,0.5701,0.5695,0.5632,0.5605,0.5613,0.5673,0.5698,0.5717,0.5793,0.5788,0.5788,0.5786,0.5752,0.5701,0.5698,0.5654,0.5621,0.5635,0.4595,0.3146,0.17,0.0314,-0.1077,-0.2561,-0.2921,-0.2921,-0.2921,-0.2853,-0.2789,-0.2787,-0.274,-0.2691,-0.2701,-0.2629,-0.2601,-0.2612,-0.2657,0.0,-0.2695,-0.2747,-0.2784,-0.2784,-0.2784,-0.2784,-0.2784,-0.2658,-0.2618,-0.2688,-0.2579,-0.2514,-0.2512,-0.2457,-0.241,-0.2419,-0.2206,-0.2084,-0.1993,0.0,0.0,0.0,0.0,0.0,0.0,0.0,0.0,0.0,0.0,0.0,0.0,0.0,0.0,0.0,0.0,0.0,0.0,0.0,0.0,0.0,1.3451,1.4405,1.4684,1.4881,1.5024,1.5128,1.5428,1.5369,1.4872,1.4736,1.4734,1.4975,1.4088,1.3667,1.3914,1.3163,1.2168,1.0864,1.0242,0.9464,0.8501,0.7423,0.6871,0.6915,0.66,0.6241,0.5846,0.585,0.5781,0.5692,0.5709,0.5741,0.5782,0.5782,0.5809,0.5834,0.5728,0.5668,0.5676,0.5692,0.5744,0.5793,0.5872,0.5851,0.5845,0.5802,0.5809,0.5774,0.573,0.5706,0.5473,0.4459,0.3859,0.2935,0.0453,-0.0502,-0.1147,-0.2615,-0.2984,-0.2984,-0.2984,-0.2977,-0.2919,-0.2897,-0.2878,-0.2844,-0.277,-0.2751,-0.2743,-0.2735,-0.2747,0.0,-0.2758,-0.2792,-0.2807,-0.2785,-0.2803,-0.2807,-0.2785,-0.272,-0.2665,-0.2628,-0.2556,-0.2504,-0.2482,-0.2465,-0.2491,-0.2482,-0.2311,-0.2211,0.0,0.0,0.0,0.0,0.0,0.0,0.0,0.0,0.0,0.0,0.0,0.0,0.0,0.0,0.0,0.0,0.0,0.0,0.0,0.0,0.0,0.0,1.4088,1.4884,1.5398,1.5352,1.526,1.5292,1.5476,1.5488,1.5216,1.5043,1.4778,1.4515,1.375,1.3086,1.2533,1.1963,1.0989,0.9452,0.9103,0.8291,0.697,0.6565,0.6255,0.5993,0.6016,0.5911,0.5689,0.568,0.571,0.5734,0.5734,0.5769,0.5824,0.5824,0.5845,0.0,0.0,0.0,0.0,0.0,0.581,0.5867,0.5948,0.5976,0.5989,0.5954,0.5927,0.5856,0.5821,0.5333,0.4633,0.3814,0.269,0.1329,-0.0367,-0.1243,-0.1942,-0.2776,-0.3007,-0.3007,-0.3007,-0.3007,-0.3002,-0.2938,-0.2935,0.0,-0.2912,-0.2827,-0.2797,-0.2785,-0.2795,-0.2801,-0.2801,-0.2829,-0.2841,-0.2823,-0.2848,-0.2853,-0.2823,-0.2754,0.0,0.0,0.0,-0.2476,-0.247,-0.2469,0.0,0.0,0.0,0.0,0.0,0.0,0.0,0.0,-0.2218,-0.2206,0.0,0.0,0.0,0.0,0.0,0.0,0.0,0.0,0.0,0.0,0.0,0.0,0.0,0.0,0.0,0.0,1.4557,1.4925,1.6069,1.5926,1.5687,1.5649,1.543,1.5345,1.5445,1.5202,1.4585,1.3596,1.3368,1.2595,1.099,1.0953,0.0,0.0,0.0,0.7432,0.6224,0.5852,0.5704,0.5706,0.5714,0.5699,0.5707,0.5707,0.574,0.5797,0.5797,0.5832,0.5932,0.5932,0.5937,0.594,0.5927,0.5924,0.5924,0.5929,0.5967,0.6014,0.6022,0.0,0.0,0.609,0.6055,0.6011,0.6006,0.489,0.3559,0.342,0.1342,-0.0834,-0.1019,-0.2041,-0.3018,-0.3018,-0.3018,-0.3018,-0.3018,-0.3018,-0.3017,-0.3014,-0.3013,-0.3011,-0.3009,-0.2893,-0.283,-0.2807,-0.2823,-0.2795,-0.2844,-0.2867,-0.2927,-0.2879,0.0,0.0,-0.2881,-0.2799,-0.2692,-0.2705,-0.2568,-0.2503,-0.241,-0.2412,-0.2451,-0.2451,-0.2443,-0.2499,-0.2621,-0.2612,-0.2658,-0.271,-0.2413,-0.2373,0.0,0.0,0.0,0.0,0.0,0.0,0.0,0.0,0.0,0.0,0.0,0.0,0.0,0.0,0.0,1.387,1.477,1.5529,1.5728,1.5822,1.5851,1.5849,1.5635,1.5415,1.5288,1.4395,1.3804,1.3753,1.1423,0.9968,0.9815,0.8467,0.7583,0.7266,0.6869,0.6558,0.6294,0.5917,0.5678,0.5678,0.0,0.0,0.5769,0.5769,0.5802,0.5859,0.5859,0.594,0.5997,0.5997,0.6022,0.6055,0.5959,0.5924,0.5929,0.5978,0.6003,0.6019,0.6066,0.6087,0.609,0.6044,0.6022,0.6006,0.5954,0.4817,0.0,0.222,0.0558,-0.1124,-0.2295,-0.2827,-0.3082,-0.3082,-0.3082,-0.3082,-0.3082,-0.3082,-0.3075,-0.3003,-0.2998,-0.299,-0.3011,-0.2927,-0.2905,-0.297,-0.2911,-0.2908,-0.2932,-0.2986,-0.2981,-0.2911,-0.2913,-0.2913,-0.2908,-0.2848,-0.2799,-0.2767,-0.2669,-0.2566,-0.2555,-0.2619,-0.2631,-0.2631,-0.2661,-0.2644,-0.2661,-0.2715,-0.2815,-0.2868,-0.2702,-0.2662,0.0,0.0,0.0,0.0,0.0,0.0,0.0,0.0,0.0,0.0,0.0,1.3354,1.3744,0.0,1.4263,1.4913,1.5281,1.5706,1.6284,1.5957,1.5713,1.5713,1.4988,1.4515,1.4485,1.3475,1.2452,1.1658,1.019,0.8853,0.7851,0.699,0.6488,0.6304,0.6107,0.6009,0.6009,0.5814,0.5696,0.5696,0.5726,0.5756,0.5786,0.5818,0.5864,0.5967,0.5967,0.6003,0.6055,0.6055,0.6074,0.6093,0.6033,0.6011,0.6014,0.6044,0.6055,0.606,0.6087,0.6098,0.6093,0.6066,0.6055,0.6049,0.6019,0.4365,0.2393,0.169,-0.0189,-0.2176,-0.2887,-0.3088,-0.3104,-0.3119,-0.3122,-0.3122,-0.3122,-0.3122,-0.3114,-0.3036,-0.3029,-0.3072,-0.3057,-0.2981,-0.2961,-0.3007,-0.2949,-0.2945,-0.3006,-0.3007,-0.3002,-0.2941,-0.2953,-0.2956,-0.2941,-0.2885,-0.2838,-0.2808,-0.2748,-0.2716,-0.2716,-0.2729,-0.2752,-0.2782,-0.2812,-0.2798,-0.2828,-0.2919,-0.2964,-0.3006,-0.2915,-0.2941,0.0,0.0,0.0,0.0,0.0,0.0,0.0,1.4319,1.404,1.5125,1.4454,1.4044,1.5156,1.481,1.4738,1.6035,1.5828,1.5863,1.674,1.6183,1.5534,1.5143,1.4206,1.3473,1.3308,1.2218,1.0929,0.9392,0.8986,0.8033,0.6215,0.6161,0.6054,0.5712,0.5714,0.5696,0.5696,0.5707,0.5713,0.5713,0.5775,0.581,0.5824,0.5918,0.5973,0.603,0.603,0.6055,0.6098,0.6098,0.6104,0.6115,0.6115,0.6123,0.6131,0.612,0.6115,0.6117,0.6128,0.6134,0.6134,0.6134,0.6134,0.6134,0.6134,0.3976,0.1533,0.1533,-0.0719,-0.3118,-0.3118,-0.3118,-0.3124,-0.31,-0.3107,-0.3107,-0.3107,-0.3107,-0.3099,-0.3122,-0.3118,-0.3118,-0.3118,-0.305,-0.3021,-0.3031,-0.302,-0.3018,-0.3025,-0.3025,-0.3025,-0.3025,-0.3001,-0.3009,-0.3036,-0.2991,-0.2906,-0.2882,-0.2852,-0.288,-0.288,-0.288,-0.2906,-0.2916,-0.2939,-0.2981,-0.3041,-0.3071,-0.3103,-0.3133,-0.3163,-0.3108,1.5694,1.4514,1.414,1.4659,1.4824,1.5227,0.0,1.6451,1.5857,1.5538,1.5806,1.5782,1.4721,1.5062,1.5609,1.591,1.6169,1.6285,1.6068,1.6221,1.573,1.3948,1.3762,1.3132,1.1557,1.0361,0.9434,0.8841,0.7339,0.6396,0.62,0.592,0.5764,0.5683,0.5694,0.5696,0.5696,0.5751,0.5775,0.5778,0.5837,0.594,0.5995,0.6,0.6036,0.6087,0.6087,0.6093,0.6098,0.6098,0.6131,0.6177,0.6177,0.6213,0.6254,0.6199,0.6177,0.6185,0.624,0.6259,0.6259,0.6259,0.6259,0.6259,0.6259,0.4106,0.1613,0.1613,-0.0685,-0.3084,-0.3084,-0.3084,-0.3084,-0.3088,-0.3089,-0.3089,-0.3089,-0.3089,-0.3088,-0.3084,-0.3084,-0.3084,-0.3084,-0.3081,-0.3108,-0.3099,-0.3018,-0.3011,-0.3086,-0.3089,-0.3089,-0.3089,-0.3093,-0.3104,-0.3081,-0.3076,-0.3071,-0.3067,-0.3086,-0.307,-0.307,-0.307,-0.3085,-0.3071,-0.3076,-0.3107,-0.3168,-0.3197,-0.3225,-0.3257,-0.3287,-0.327,1.6596,1.5668,1.5227,1.6084,1.6304,1.6546,1.7586,1.675,1.5939,1.6487,1.6109,1.5677,1.5587,1.5808,1.6097,1.6375,1.6478,1.6471,1.6415,1.6279,1.5501,1.3774,1.3605,1.2693,1.0345,0.8744,0.7661,0.7201,0.6557,0.607,0.5917,0.5759,0.5714,0.5696,0.5696,0.5713,0.5748,0.5775,0.5805,0.584,0.5946,0.5989,0.6014,0.6046,0.6076,0.6098,0.6098,0.6098,0.6101,0.6136,0.6166,0.6191,0.6229,0.6256,0.6278,0.6251,0.6243,0.6245,0.627,0.6281,0.6281,0.6281,0.6281,0.6131,0.52,0.3336,0.1373,0.0441,-0.1423,-0.3093,-0.3093,-0.3093,-0.3099,-0.3165,-0.317,-0.317,-0.317,-0.317,-0.3164,-0.3097,-0.3093,-0.3093,-0.3093,-0.3093,-0.3085,-0.3108,-0.3095,-0.3091,-0.3103,-0.3104,-0.3104,-0.3104,-0.3104,-0.311,-0.3123,-0.3125,-0.3125,-0.3125,-0.3112,-0.3104,-0.3104,-0.3122,-0.3145,-0.3174,-0.3193,-0.3223,-0.3265,-0.3277,-0.329,-0.3303,-0.3333,-0.3343,1.6724,1.6338,1.6196,1.6975,1.7287,1.7476,1.7723,1.6817,1.6139,1.6825,1.6172,1.5612,1.6166,1.6212,1.632,1.6736,1.6601,1.6486,1.6617,1.6172,1.523,1.3621,1.3273,1.2275,0.9943,0.8281,0.715,0.6698,0.6861,0.6849,0.6479,0.6992,0.7074,0.672,0.6604,0.6371,0.6013,0.591,0.5859,0.5948,0.6008,0.6036,0.6038,0.6079,0.6098,0.6098,0.6115,0.6123,0.6128,0.6188,0.6224,0.6243,0.6286,0.6316,0.6379,0.6379,0.6319,0.6308,0.6374,0.6379,0.6379,0.6379,0.6379,0.6034,0.4399,0.2817,0.1236,-0.0395,-0.1978,-0.3117,-0.3117,-0.3117,-0.3123,-0.3194,-0.32,-0.32,-0.32,-0.32,-0.3193,-0.3121,-0.3117,-0.3117,-0.3117,-0.3117,-0.3117,-0.3117,-0.3117,-0.3112,-0.3096,-0.3093,-0.3093,-0.3093,-0.3101,-0.3107,-0.3107,-0.3113,-0.3121,-0.3179,-0.3179,-0.3133,-0.3142,-0.3213,-0.3235,-0.3205,-0.3277,-0.3303,-0.3333,-0.3333,-0.3337,-0.3347,-0.3377,-0.3404,1.5628,1.5847,1.6357,1.6729,1.7276,1.7498,1.6803,1.703,1.705,1.6054,1.6123,1.6288,1.5961,1.6072,1.632,1.6736,1.6471,1.6211,1.6227,1.5859,1.4976,1.3235,1.261,1.1856,1.0662,0.9643,0.8741,0.809,0.8659,0.8835,0.8448,1.0215,1.0584,0.9255,0.8808,0.7907,0.651,0.6134,0.6008,0.6011,0.6068,0.6096,0.6096,0.6098,0.6098,0.6101,0.6161,0.6185,0.6191,0.6251,0.6311,0.6415,0.6418,0.6453,0.6506,0.6506,0.647,0.6426,0.6486,0.6506,0.6506,0.6506,0.6506,0.6203,0.4485,0.2873,0.126,-0.0353,-0.1966,-0.3176,-0.3176,-0.3176,-0.3178,-0.3178,-0.3178,-0.3178,-0.3178,-0.3178,-0.3178,-0.3178,-0.3176,-0.3176,-0.3176,-0.3176,-0.3176,-0.3176,-0.3176,-0.3158,-0.3101,-0.3093,-0.3093,-0.3093,-0.317,-0.3187,-0.3187,-0.3212,-0.324,-0.3269,-0.3272,-0.3284,-0.3314,-0.3317,-0.3317,-0.3318,-0.332,-0.3335,-0.3417,-0.3417,-0.338,-0.341,-0.3441,-0.3508,1.7165,1.7271,1.7406,1.821,1.7936,1.7407,1.7115,1.6785,1.6448,1.6063,1.5789,1.5518,1.5223,1.5399,1.5608,1.5659,1.5963,1.613,1.5842,1.5879,1.5419,1.4102,1.4114,1.3981,1.3394,1.039,0.8382,0.8039,0.8702,0.8952,0.8578,0.9499,0.9817,0.9392,0.7986,0.7056,0.669,0.6226,0.6033,0.6071,0.6087,0.6098,0.6098,0.6098,0.612,0.6158,0.618,0.6213,0.6254,0.6313,0.6401,0.6423,0.6464,0.6495,0.6511,0.6511,0.6497,0.6484,0.6506,0.6511,0.6511,0.6511,0.6511,0.6007,0.3228,0.2018,0.1059,-0.1614,-0.2776,-0.3179,-0.3179,-0.3179,-0.3179,-0.3179,-0.3179,-0.3179,-0.3179,-0.3179,-0.3179,-0.3179,-0.3179,-0.3179,-0.3179,-0.3179,-0.3179,-0.3179,-0.3179,-0.3172,-0.3154,-0.3151,-0.3151,-0.3151,-0.3228,-0.3246,-0.3246,-0.3273,-0.3295,-0.3305,-0.3306,-0.331,-0.3321,-0.334,-0.3351,-0.3351,-0.339,-0.347,-0.3481,-0.3448,-0.3463,-0.3472,-0.3483,-0.3495,1.8364,1.8336,1.8166,1.89,1.8201,1.7239,1.6838,1.6402,1.6035,1.5745,1.5357,1.4978,1.4649,1.4687,1.4835,1.4964,1.5349,1.5613,1.568,1.5719,1.5449,1.4713,1.4871,1.4946,1.4814,1.1861,0.9957,0.9879,1.0598,1.0684,0.9812,1.0786,1.0813,0.9671,0.8304,0.7335,0.6761,0.6268,0.6063,0.6098,0.6098,0.6098,0.6098,0.612,0.6153,0.6191,0.6234,0.6275,0.6316,0.6429,0.6453,0.6456,0.6497,0.6511,0.6511,0.6511,0.6511,0.6511,0.6511,0.6511,0.6511,0.6511,0.6511,0.5904,0.2573,0.1618,0.0912,-0.2333,-0.3254,-0.3211,-0.3211,-0.3211,-0.3211,-0.3211,-0.3211,-0.3211,-0.3211,-0.3211,-0.3211,-0.3211,-0.3211,-0.3211,-0.3211,-0.3211,-0.3211,-0.3211,-0.3211,-0.3258,-0.3247,-0.3255,-0.3211,-0.3211,-0.328,-0.3292,-0.3292,-0.331,-0.3325,-0.3336,-0.3337,-0.3347,-0.3369,-0.3389,-0.3457,-0.3415,-0.3453,-0.3474,-0.3474,-0.3493,-0.3502,-0.3502,-0.3513,-0.3527,1.9176,1.8982,1.8633,1.8826,1.8034,1.6949,1.6011,1.5928,1.5846,1.504,1.4851,1.466,1.4176,1.3938,1.3988,1.4517,1.4506,1.4737,1.5626,1.523,1.4855,1.4907,1.477,1.4708,1.4891,1.3932,1.3314,1.3219,1.4077,1.3799,1.2001,1.389,1.3502,1.0228,0.9734,0.8632,0.6764,0.6308,0.6098,0.6098,0.6098,0.6098,0.6101,0.6161,0.6191,0.6199,0.6319,0.6423,0.6429,0.6489,0.6511,0.6511,0.6511,0.6511,0.6511,0.6511,0.6511,0.6511,0.6511,0.6511,0.6511,0.6511,0.6463,0.5757,0.2575,0.1524,0.0818,-0.2406,-0.3299,-0.3321,-0.3321,-0.3321,-0.3321,-0.3321,-0.3321,-0.3321,-0.3321,-0.3321,-0.3321,-0.3321,-0.3321,-0.3321,-0.3321,-0.3321,-0.3321,-0.3321,-0.3322,-0.3313,-0.3281,-0.3303,-0.3321,-0.3321,-0.3322,-0.3324,-0.3324,-0.3326,-0.334,-0.3421,-0.3425,-0.3452,-0.3511,-0.3514,-0.3474,-0.3502,-0.3502,-0.3506,-0.3506,-0.3506,-0.3509,-0.3509,-0.3482,-0.3496,1.9975,1.9879,1.9373,1.8561,1.7712,1.6809,1.5866,1.5687,1.5538,1.4827,1.4048,1.3343,1.2824,1.2799,1.2651,1.2066,1.2748,1.3526,1.397,1.337,1.303,1.36,1.3889,1.3933,1.3689,1.4566,1.4728,1.3776,1.4146,1.3696,1.2117,1.4087,1.388,1.0841,1.0023,0.8914,0.7403,0.6517,0.6098,0.6098,0.6098,0.6098,0.6101,0.6161,0.6213,0.6262,0.6387,0.6445,0.6489,0.6506,0.6511,0.6511,0.6511,0.6511,0.6511,0.6511,0.6511,0.6511,0.6511,0.6511,0.6511,0.6511,0.5678,0.4281,0.2241,0.0718,-0.0672,-0.274,-0.3315,-0.3321,-0.3321,-0.3321,-0.3321,-0.3321,-0.3321,-0.3321,-0.3321,-0.3321,-0.3321,-0.3321,-0.3321,-0.3321,-0.3321,-0.3321,-0.3321,-0.3321,-0.334,-0.3344,-0.3313,-0.3315,-0.3321,-0.3321,-0.3341,-0.3355,-0.3355,-0.3396,-0.3479,-0.3488,-0.3456,-0.3475,-0.349,-0.3491,-0.3495,-0.3502,-0.3524,-0.3478,-0.3478,-0.3555,-0.358,-0.36,-0.3551,-0.3625,2.0832,2.0602,1.9924,1.8665,1.7599,1.6585,1.5414,1.5158,1.4846,1.3729,1.2953,1.2256,1.1531,1.1748,1.173,1.0849,1.2211,1.3423,1.344,1.303,1.2834,1.3129,1.3598,1.3723,1.3346,1.4934,1.5782,1.5229,1.5267,1.4443,1.244,1.4196,1.4158,1.1751,1.0616,0.9181,0.7287,0.6479,0.6098,0.6098,0.6098,0.6112,0.6139,0.6202,0.6262,0.6371,0.0,0.6481,0.6511,0.6511,0.6511,0.6511,0.6511,0.6511,0.6517,0.6491,0.6502,0.6504,0.6529,0.6537,0.6432,0.5642,0.4788,0.3581,0.1233,-0.0155,-0.1252,-0.287,-0.3351,-0.336,-0.336,-0.336,-0.336,-0.336,-0.336,-0.336,-0.336,-0.336,-0.336,-0.336,-0.336,-0.336,-0.336,-0.336,-0.336,-0.336,-0.3375,-0.338,-0.3363,-0.336,-0.336,-0.336,-0.3388,-0.346,-0.346,-0.3504,-0.3478,-0.3478,-0.3493,-0.3509,-0.352,-0.352,-0.3527,-0.354,-0.3555,-0.3516,-0.3527,-0.36,-0.3625,-0.3656,-0.3656,-0.3663,2.1478,2.107,2.0299,1.8741,1.7479,1.6279,1.492,1.4493,1.3955,1.239,1.1773,1.1265,1.0506,1.0861,1.1,1.0183,1.2067,1.3475,1.3039,1.2966,1.2956,1.2962,1.3274,1.341,1.3251,1.4934,1.6098,1.6215,1.6492,1.5524,1.3066,1.4633,1.4649,1.2615,1.1155,0.9287,0.691,0.6384,0.6098,0.6098,0.6098,0.6131,0.6191,0.6251,0.6313,0.6423,0.6486,0.0,0.6511,0.6511,0.6511,0.6511,0.6511,0.6511,0.6519,0.6478,0.6499,0.651,0.6564,0.6583,0.6317,0.4572,0.3845,0.3084,0.0052,-0.1046,-0.1528,-0.3003,-0.3392,-0.3412,-0.3412,-0.3412,-0.3412,-0.3412,-0.3412,-0.3412,-0.3412,-0.3412,-0.3412,-0.3412,-0.3412,-0.3412,-0.3412,-0.3412,-0.3412,-0.3412,-0.3415,-0.3418,-0.3418,-0.3418,-0.3418,-0.3418,-0.3445,-0.3517,-0.3517,-0.3491,-0.3509,-0.3509,-0.3513,-0.3524,-0.3493,-0.3496,-0.3565,-0.3596,-0.3596,-0.3611,-0.3586,-0.3586,-0.3656,-0.3688,-0.3688,-0.3692,2.1188,2.0801,2.0177,1.8025,1.6857,1.5909,1.4854,1.3958,1.306,1.2051,1.0846,1.0029,1.014,1.0382,1.0181,0.8922,1.0711,1.1784,1.0538,1.0257,1.0692,1.2113,1.1431,1.1253,1.2306,1.3871,1.4422,1.3383,1.5472,1.6132,1.4664,1.6271,1.586,1.2917,1.0983,0.9023,0.691,0.6384,0.6098,0.6098,0.6098,0.6131,0.6191,0.6251,0.6313,0.6423,0.6486,0.0,0.6511,0.6511,0.6511,0.6511,0.6511,0.6511,0.6519,0.6478,0.6499,0.651,0.6564,0.6583,0.6324,0.4606,0.317,0.1674,-0.0314,-0.1848,-0.3031,-0.3298,-0.3408,-0.3412,-0.3412,-0.3412,-0.3412,-0.3412,-0.3412,-0.3412,-0.3412,-0.3412,-0.3412,-0.3412,-0.3412,-0.3412,-0.3412,-0.3412,-0.3412,-0.3412,-0.3433,-0.3503,-0.3503,-0.3503,-0.3503,-0.3503,-0.3476,-0.3495,-0.3495,-0.352,-0.3482,-0.3482,-0.3562,-0.3576,-0.3583,-0.3583,-0.3596,-0.3628,-0.3628,-0.3643,-0.3674,-0.3674,-0.3688,-0.3719,-0.3719,-0.3744,2.0236,1.9931,1.9404,1.7579,1.6506,1.5457,1.4009,1.3183,1.2323,1.0806,0.9938,0.9397,0.9248,0.9723,0.976,0.8593,0.997,1.0941,1.0139,0.9371,0.9576,1.1388,1.0677,1.0822,1.2873,1.4098,1.4829,1.4951,1.6189,1.6442,1.5225,1.6084,1.5214,1.2192,1.0692,0.9039,0.729,0.6479,0.6098,0.6098,0.6098,0.6145,0.6237,0.6267,0.6379,0.647,0.65,0.0,0.6511,0.6511,0.6511,0.6511,0.6511,0.648,0.6515,0.6524,0.6564,0.6599,0.6659,0.6153,0.51,0.3417,0.226,0.1104,-0.1427,-0.2763,-0.3412,-0.3412,-0.3412,-0.3412,-0.3412,-0.3412,-0.3412,-0.3412,-0.3412,-0.3412,-0.3412,-0.3412,-0.3412,-0.3412,-0.3425,-0.3435,-0.3435,-0.3449,-0.3459,-0.3459,-0.3471,-0.348,-0.348,-0.3493,-0.3495,-0.3482,-0.3506,-0.3524,-0.3524,-0.3551,-0.3569,-0.3569,-0.3583,-0.3596,-0.3614,-0.3614,-0.3628,-0.366,-0.366,-0.3674,-0.3705,-0.3705,-0.373,-0.3775,-0.3775,-0.3795,1.9309,1.8959,1.8502,1.7239,1.6192,1.5002,1.3259,1.2493,1.1608,0.9693,0.9208,0.8964,0.8528,0.9118,0.9412,0.8541,0.9716,1.0524,0.993,0.9442,0.9618,1.0784,1.0309,1.0864,1.3353,1.4183,1.511,1.6533,1.6969,1.6622,1.5397,1.5406,1.4143,1.1301,1.0266,0.8992,0.7477,0.6574,0.6098,0.6098,0.6098,0.6161,0.6281,0.6281,0.6396,0.6511,0.6511,0.0,0.0,0.6511,0.6511,0.6511,0.6511,0.6499,0.6508,0.6564,0.6621,0.6736,0.6796,0.5698,0.3995,0.2289,0.1431,0.0528,-0.2499,-0.3412,-0.3412,-0.3412,-0.3412,-0.3412,-0.3412,-0.3412,-0.3414,-0.342,-0.3426,-0.3431,-0.3431,-0.3431,-0.3431,-0.3431,-0.345,-0.3521,-0.3521,-0.3487,-0.3502,-0.3502,-0.3506,-0.3513,-0.3513,-0.3538,-0.3544,-0.3524,-0.354,-0.35,-0.35,-0.3583,-0.36,-0.36,-0.3607,-0.3621,-0.3645,-0.3645,-0.366,-0.3692,-0.3692,-0.3705,-0.3737,-0.3744,-0.3771,-0.3817,-0.3824,-0.3842,1.8876,1.8284,1.7949,1.6972,1.5827,1.4616,1.3363,1.217,1.0934,0.958,0.8866,0.8512,0.8574,0.8807,0.8867,0.8472,0.9946,1.0479,0.8563,1.0438,1.1536,1.0186,1.0145,1.087,1.2454,1.2917,1.3697,1.511,1.6549,1.681,1.5471,1.4954,1.3441,1.0782,0.9694,0.8466,0.6957,0.6384,0.6098,0.6098,0.6098,0.6161,0.6281,0.6281,0.6396,0.6511,0.6511,0.0,0.0,0.6511,0.6511,0.6511,0.6511,0.6499,0.6508,0.6564,0.6621,0.6736,0.6796,0.5698,0.3995,0.2289,0.0638,-0.101,-0.2824,-0.3412,-0.3412,-0.3412,-0.3412,-0.3412,-0.3412,-0.3412,-0.3419,-0.35,-0.3475,-0.3495,-0.3495,-0.3495,-0.3495,-0.3495,-0.3495,-0.3499,-0.3499,-0.3499,-0.3502,-0.3502,-0.3524,-0.3485,-0.3485,-0.3565,-0.3587,-0.3583,-0.3583,-0.3587,-0.3587,-0.3614,-0.3575,-0.3575,-0.3656,-0.3674,-0.3677,-0.3677,-0.3692,-0.3723,-0.3723,-0.3737,-0.3768,-0.3795,-0.381,-0.3817,-0.3842,-0.3873,1.7377,1.7053,1.6776,1.6269,1.5346,1.4166,1.2663,1.1642,1.0622,0.9233,0.874,0.853,0.8343,0.8469,0.8606,0.8642,0.8869,0.9037,0.8999,0.9518,1.0265,1.1396,1.0292,1.0593,1.3413,1.3229,1.3837,1.6086,1.6868,1.6672,1.5486,1.5311,1.3972,1.1159,1.0124,0.8846,0.7338,0.6526,0.6098,0.6098,0.6098,0.6142,0.6226,0.6262,0.6374,0.6459,0.6495,0.0,0.0,0.6511,0.6511,0.6511,0.6511,0.6499,0.6508,0.6564,0.6621,0.6578,0.5629,0.4153,0.2449,0.0692,-0.1012,-0.2504,-0.3198,-0.3412,-0.3412,-0.3412,-0.3425,-0.344,-0.344,-0.3453,-0.3469,-0.3482,-0.3493,-0.3502,-0.3502,-0.3502,-0.3502,-0.3502,-0.3516,-0.3527,-0.3527,-0.3544,-0.3555,-0.3555,-0.3565,-0.3572,-0.3572,-0.3583,-0.3596,-0.3614,-0.36,-0.3596,-0.3614,-0.3628,-0.3643,-0.366,-0.3674,-0.3688,-0.3708,-0.3708,-0.3723,-0.3754,-0.3771,-0.3786,-0.3799,-0.3827,-0.3851,-0.3869,-0.388,-0.39,1.6034,1.5881,1.5749,1.5629,1.4916,1.3786,1.2239,1.134,1.0405,0.8987,0.8703,0.8589,0.8255,0.831,0.8472,0.8692,0.8428,0.8513,0.9427,0.9529,1.0058,1.1606,1.0728,1.1085,1.3937,1.4167,1.494,1.6928,1.7112,1.6799,1.6009,1.6172,1.4686,1.1254,1.0172,0.8944,0.7433,0.6526,0.6098,0.6098,0.6098,0.6139,0.6218,0.6259,0.6322,0.6451,0.6492,0.0,0.0,0.6511,0.6511,0.6511,0.6511,0.6499,0.6508,0.6564,0.6621,0.6473,0.4831,0.3142,0.1437,-0.0319,-0.2024,-0.3412,-0.3412,-0.3412,-0.3414,-0.3423,-0.3448,-0.3525,-0.3525,-0.3493,-0.3516,-0.3516,-0.3524,-0.3527,-0.3527,-0.3527,-0.3527,-0.3527,-0.3544,-0.3503,-0.3503,-0.3576,-0.3589,-0.3589,-0.3589,-0.3594,-0.3604,-0.3604,-0.3614,-0.3645,-0.3628,-0.3625,-0.3645,-0.3656,-0.367,-0.3692,-0.3701,-0.3716,-0.3739,-0.3739,-0.3754,-0.3786,-0.3806,-0.382,-0.3831,-0.3859,-0.3883,-0.3904,-0.3914,-0.3929,1.506,1.4901,1.4955,1.5153,1.4587,1.3684,1.24,1.1331,1.0238,0.8959,0.8703,0.8646,0.8437,0.8407,0.8454,0.8586,0.9155,0.9528,0.941,1.1217,1.1868,1.0052,1.1432,1.28,1.3467,1.5674,1.7068,1.7112,1.7112,1.7193,1.738,1.7506,1.5452,1.0782,0.9647,0.8419,0.691,0.6384,0.6098,0.6098,0.6098,0.6161,0.6278,0.6281,0.6396,0.6511,0.0,0.0,0.0,0.6511,0.6511,0.6511,0.6511,0.6499,0.6508,0.6564,0.6621,0.6473,0.4831,0.3142,0.1437,-0.0319,-0.2024,-0.3412,-0.3412,-0.3412,-0.3418,-0.3502,-0.3479,-0.3502,-0.3502,-0.3524,-0.3489,-0.3489,-0.3565,-0.3589,-0.3589,-0.3589,-0.3589,-0.3589,-0.3589,-0.3589,-0.3589,-0.3589,-0.3589,-0.3589,-0.3589,-0.36,-0.3575,-0.3579,-0.3645,-0.3677,-0.3681,-0.3681,-0.3681,-0.3708,-0.3726,-0.3726,-0.3754,-0.3772,-0.3772,-0.3772,-0.3786,-0.3817,-0.3817,-0.3831,-0.392,-0.3891,-0.3904,-0.3904,-0.3874,-0.3888,1.4222,1.3889,1.3576,1.3173,1.2786,1.2268,1.1472,1.0721,0.9935,0.9091,0.8807,0.8646,0.8437,0.8407,0.86,0.9249,0.9484,0.9844,1.0529,1.1646,1.2361,1.2261,1.3113,1.39,1.4486,1.5199,1.6042,1.7024,1.7112,1.7193,1.738,1.7551,1.605,1.2632,1.1632,0.993,0.7385,0.6526,0.6098,0.6098,0.6098,0.6117,0.6158,0.6243,0.63,0.0,0.0,0.0,0.0,0.6511,0.6511,0.6511,0.6511,0.6525,0.6496,0.6505,0.5839,0.4692,0.305,0.1324,-0.0373,-0.2077,-0.2985,-0.3412,-0.3412,-0.3412,-0.3423,-0.3474,-0.3509,-0.3538,-0.3558,-0.3569,-0.3576,-0.3576,-0.3583,-0.3589,-0.3589,-0.3589,-0.3589,-0.3589,-0.3589,-0.3589,-0.3589,-0.3589,-0.3596,-0.3618,-0.3621,-0.3632,-0.3663,-0.3667,-0.3677,-0.3708,-0.3712,-0.3712,-0.3712,-0.3719,-0.3737,-0.3757,-0.3764,-0.3772,-0.3772,-0.3793,-0.3806,-0.3817,-0.3855,-0.388,-0.3891,-0.3922,-0.3874,-0.3874,-0.3885,-0.3888,1.3485,1.3044,1.2631,1.2208,1.1834,1.1444,1.0896,1.0247,0.9584,0.8996,0.8798,0.8665,0.8532,0.8513,0.867,0.9137,0.9453,0.9886,1.0607,1.1516,1.2499,1.359,1.4222,1.481,1.544,1.5665,1.6174,1.7024,1.7112,1.7161,1.7274,1.6952,1.566,1.3376,1.2526,1.0635,0.7619,0.6621,0.6098,0.6098,0.6098,0.6109,0.6134,0.621,0.627,0.0,0.0,0.0,0.0,0.6511,0.6511,0.6511,0.6511,0.6511,0.6522,0.6553,0.5523,0.3843,0.2208,0.053,-0.1171,-0.2878,-0.3412,-0.3412,-0.3412,-0.342,-0.344,-0.3489,-0.3524,-0.3496,-0.3583,-0.3589,-0.3589,-0.3589,-0.3589,-0.3589,-0.3589,-0.3589,-0.3589,-0.3589,-0.3589,-0.3594,-0.3604,-0.3607,-0.3618,-0.3649,-0.3652,-0.3663,-0.3694,-0.3699,-0.3708,-0.3739,-0.3744,-0.3744,-0.3744,-0.3744,-0.375,-0.3772,-0.3782,-0.3788,-0.3788,-0.3817,-0.3838,-0.3848,-0.3887,-0.3911,-0.3922,-0.3877,-0.3888,-0.3888,-0.3888,-0.3888,0.0,1.2446,1.2108,1.1999,1.1557,1.1034,1.0621,0.9875,0.0,0.8807,0.8713,0.8713,0.8741,0.8736,0.8675,0.8555,0.9218,0.982,0.9975,1.1122,1.2531,1.4135,1.4895,1.5553,1.6292,1.6812,1.7112,1.7112,1.7112,1.7112,1.7112,1.5942,1.4608,1.3099,1.233,1.0536,0.7619,0.6621,0.6098,0.6098,0.6098,0.6128,0.6183,0.6185,0.6254,0.0,0.0,0.0,0.0,0.6511,0.6511,0.6511,0.6511,0.6511,0.6525,0.6589,0.544,0.369,0.2221,0.0479,-0.1331,-0.2878,-0.3412,-0.3412,-0.3412,-0.3434,-0.3521,-0.3495,-0.3524,-0.35,-0.3583,-0.3589,-0.3589,-0.3589,-0.3589,-0.3589,-0.3589,-0.3589,-0.3589,-0.3589,-0.3589,-0.36,-0.3628,-0.3579,-0.3645,-0.3681,-0.3684,-0.3694,-0.3726,-0.373,-0.3739,-0.3768,-0.3772,-0.3772,-0.3775,-0.3772,-0.3772,-0.3775,-0.3803,-0.3817,-0.382,-0.3848,-0.3876,-0.3904,-0.3907,-0.3922,-0.3888,-0.3888,-0.3888,-0.3888,-0.3892,-0.3892,1.2092,0.0,1.2109,1.1123,1.0763,1.0509,0.0,0.9437,0.9043,0.8948,0.8817,0.8798,0.9099,0.9042,0.9133,0.9766,1.0117,1.0454,1.0846,1.22,1.375,1.5228,1.5788,1.6284,1.686,1.7039,1.7112,1.7112,1.7112,1.7112,1.7112,1.5942,1.4419,1.2554,1.1053,0.939,0.7619,0.6621,0.6098,0.6098,0.6098,0.6106,0.612,0.6166,0.6229,0.0,0.0,0.0,0.6511,0.6511,0.6511,0.6511,0.6511,0.6511,0.6522,0.6494,0.4638,0.2076,0.1732,-0.0318,-0.2878,-0.3251,-0.3412,-0.3412,-0.3412,-0.3449,-0.3493,-0.3499,-0.354,-0.358,-0.3587,-0.3589,-0.3589,-0.3589,-0.3589,-0.3589,-0.3589,-0.3589,-0.3589,-0.3589,-0.3589,-0.36,-0.3628,-0.3579,-0.3595,-0.3708,-0.3715,-0.3726,-0.3757,-0.3761,-0.3764,-0.3772,-0.3772,-0.3782,-0.3803,-0.3786,-0.3782,-0.3806,-0.3813,-0.3827,-0.3848,-0.3876,-0.3898,-0.3904,-0.3929,-0.3881,-0.3888,-0.3888,-0.3888,-0.3888,-0.3974,-0.3985,1.1642,1.1843,1.185,1.0832,1.0599,1.0434,0.9796,0.924,0.8854,0.8854,0.8779,0.8798,0.9109,0.9038,0.9147,0.9699,1.011,1.076,1.192,1.3018,1.4257,1.5731,1.6137,1.6519,1.7055,1.7112,1.7112,1.7112,1.7112,1.6797,1.6174,1.4886,1.3304,1.1387,0.9556,0.8153,0.7238,0.6464,0.6098,0.6098,0.6098,0.6098,0.6098,0.6131,0.618,0.0,0.0,0.0,0.6473,0.65,0.6511,0.6511,0.6511,0.6511,0.6418,0.566,0.3755,0.1401,0.0733,-0.1216,-0.3412,-0.3412,-0.3412,-0.3412,-0.3412,-0.3454,-0.3502,-0.3502,-0.3534,-0.3572,-0.3587,-0.3589,-0.3589,-0.3589,-0.3589,-0.3589,-0.3589,-0.3589,-0.3594,-0.3607,-0.3611,-0.3625,-0.3613,-0.3619,-0.3692,-0.3739,-0.3748,-0.3754,-0.3768,-0.3772,-0.3772,-0.3772,-0.3786,-0.3799,-0.3817,-0.3813,-0.3817,-0.3835,-0.3848,-0.3862,-0.388,-0.3907,-0.3918,-0.3904,-0.3874,-0.3881,-0.3929,-0.3881,-0.3894,-0.397,-0.3988,-0.3994,1.1321,1.1475,1.1528,1.0838,1.0688,1.0491,0.9797,0.9154,0.8703,0.8703,0.8732,0.8816,0.905,0.9089,0.9168,0.9446,1.0092,1.1176,1.2971,1.3685,1.4529,1.5845,1.6185,1.6535,1.7023,1.7096,1.7112,1.7112,1.7112,1.6489,1.5066,1.3609,1.1933,1.0104,0.8182,0.7026,0.6634,0.6285,0.609,0.6098,0.6098,0.6098,0.6098,0.6098,0.6131,0.6191,0.0,0.0,0.6423,0.6475,0.6503,0.6511,0.6511,0.6511,0.6317,0.469,0.2982,0.1246,-0.0577,-0.2171,-0.3412,-0.3412,-0.3412,-0.3412,-0.3412,-0.3454,-0.3502,-0.3502,-0.3527,-0.3503,-0.3583,-0.3589,-0.3589,-0.3589,-0.3589,-0.3589,-0.3589,-0.3589,-0.36,-0.3628,-0.3579,-0.3599,-0.3715,-0.3726,-0.3737,-0.3768,-0.3772,-0.3772,-0.3772,-0.3772,-0.3772,-0.3772,-0.3799,-0.3817,-0.3824,-0.3848,-0.3929,-0.3873,-0.3893,-0.3907,-0.3911,-0.387,-0.387,-0.3904,-0.3925,-0.3925,-0.3904,-0.3874,-0.3963,-0.3994,-0.4005,-0.4005,1.0975,1.1366,1.151,1.0731,1.0576,1.0408,0.9559,0.9018,0.8703,0.8703,0.8826,0.9068,0.9429,0.9722,1.0119,1.0706,1.1623,1.2597,1.3614,1.4245,1.4952,1.5885,1.6341,1.6633,1.6825,1.6979,1.7112,1.7112,1.7112,1.6489,1.5066,1.3243,1.1394,0.95,0.7606,0.6386,0.595,0.6017,0.6052,0.6098,0.6098,0.6098,0.6098,0.6098,0.6131,0.6188,0.0,0.6267,0.642,0.6431,0.6464,0.6511,0.6511,0.6511,0.6317,0.469,0.2982,0.1091,-0.1956,-0.3195,-0.3412,-0.3412,-0.3412,-0.3412,-0.3412,-0.3454,-0.3502,-0.3502,-0.354,-0.3583,-0.3589,-0.3589,-0.3589,-0.3589,-0.3589,-0.3589,-0.3589,-0.3589,-0.36,-0.3628,-0.3579,-0.3599,-0.3715,-0.3726,-0.3737,-0.3768,-0.3772,-0.3772,-0.3772,-0.3772,-0.3772,-0.3772,-0.3799,-0.3827,-0.3851,-0.388,-0.3907,-0.3874,-0.3914,-0.3914,-0.3881,-0.3922,-0.3907,-0.3904,-0.3883,-0.3883,-0.3904,-0.3874,-0.3963,-0.3994,-0.4048,-0.4058,0.992,1.0082,1.0203,1.0051,1.0587,1.0919,1.0039,0.962,0.9395,0.9395,0.948,0.9656,1.0085,1.0279,1.0678,1.1611,1.2384,1.3211,1.4172,1.4635,1.5179,1.6081,1.6332,1.6503,1.669,1.6825,1.6617,1.5868,1.5908,1.4977,1.2807,1.161,1.01,0.8238,0.7066,0.6293,0.5786,0.584,0.5962,0.6052,0.6052,0.6068,0.6098,0.6098,0.6112,0.6142,0.0,0.624,0.6374,0.6407,0.6456,0.6511,0.6511,0.6511,0.6217,0.3668,0.1131,-0.1299,-0.2845,-0.3399,-0.3412,-0.3412,-0.3412,-0.3415,-0.3431,-0.3467,-0.3506,-0.352,-0.3555,-0.3589,-0.3589,-0.3589,-0.3589,-0.3589,-0.3589,-0.3589,-0.3589,-0.3604,-0.3625,-0.3652,-0.3674,-0.3699,-0.3744,-0.375,-0.3754,-0.3768,-0.3772,-0.3772,-0.3772,-0.3786,-0.3795,-0.3795,-0.3838,-0.3869,-0.3883,-0.3911,-0.3874,-0.3888,-0.3874,-0.3929,-0.3925,-0.3911,-0.3891,-0.3859,-0.3873,-0.3891,-0.3904,-0.3949,-0.3998,-0.4043,-0.4072,-0.4068,0.9136,0.9034,0.9105,0.9498,1.0366,1.1031,1.0615,1.0269,1.0108,1.026,1.0327,1.0433,1.0731,1.0982,1.1471,1.2452,1.3103,1.3798,1.4692,1.4984,1.5382,1.6154,1.6276,1.6357,1.6503,1.6682,1.6176,1.4786,1.4748,1.3513,1.0643,0.9957,0.8863,0.7084,0.6544,0.6123,0.5764,0.5764,0.5832,0.6014,0.6014,0.6044,0.6098,0.6098,0.6098,0.6101,0.6147,0.621,0.6284,0.6379,0.6442,0.6511,0.6511,0.6259,0.5558,0.265,-0.0257,-0.2806,-0.3251,-0.3386,-0.3412,-0.3412,-0.3412,-0.3418,-0.3502,-0.3479,-0.3509,-0.3482,-0.3565,-0.3589,-0.3589,-0.3589,-0.3589,-0.3589,-0.3589,-0.3594,-0.36,-0.3618,-0.3645,-0.3684,-0.3708,-0.3737,-0.3764,-0.3772,-0.3772,-0.3772,-0.3772,-0.3775,-0.3782,-0.3803,-0.382,-0.3827,-0.3873,-0.3907,-0.3914,-0.3874,-0.3888,-0.3888,-0.3888,-0.3874,-0.3904,-0.3898,-0.3873,-0.3827,-0.3869,-0.39,-0.3914,-0.3978,-0.4034,-0.4086,-0.4086,-0.4068,0.928,0.9148,0.9097,0.9512,0.9726,1.006,1.0951,1.0688,1.0437,1.099,1.1264,1.1372,1.1357,1.2175,1.2973,1.3443,1.4126,1.4727,1.5098,1.5318,1.5586,1.5975,1.6211,1.6308,1.6324,1.6487,1.6038,1.4707,1.4283,1.2886,1.0088,0.9162,0.8056,0.6589,0.6052,0.5744,0.5702,0.5702,0.5791,0.6014,0.6014,0.6044,0.6098,0.6098,0.6098,0.6098,0.6104,0.6172,0.6281,0.6284,0.6404,0.6511,0.6511,0.5551,0.3988,0.2241,0.0463,-0.1299,-0.2883,-0.3386,-0.3412,-0.3412,-0.3412,-0.3418,-0.3502,-0.3479,-0.3509,-0.3482,-0.3565,-0.3589,-0.3589,-0.3589,-0.3589,-0.3589,-0.3589,-0.3596,-0.3625,-0.3579,-0.3595,-0.3712,-0.3726,-0.3737,-0.3764,-0.3772,-0.3772,-0.3772,-0.3772,-0.3782,-0.381,-0.3817,-0.3827,-0.3911,-0.3883,-0.3914,-0.3881,-0.3888,-0.3888,-0.3888,-0.3888,-0.3874,-0.3904,-0.3876,-0.392,-0.3916,-0.392,-0.3891,-0.3885,-0.3947,-0.4054,-0.4086,-0.4086,-0.4068,0.8747,0.8741,0.8932,0.9467,0.994,1.0468,1.1225,1.1504,1.1803,1.2427,1.2521,1.2505,1.2522,1.2936,1.3436,1.3857,1.4258,1.4736,1.5309,1.5432,1.561,1.5966,1.6064,1.6104,1.6104,1.63,1.5471,1.3265,1.2797,1.1438,0.8719,0.7743,0.6989,0.6496,0.5965,0.5696,0.5696,0.5696,0.5751,0.5856,0.5937,0.5987,0.6046,0.6082,0.6098,0.6098,0.6098,0.6145,0.6226,0.6264,0.6379,0.6459,0.6497,0.4843,0.2422,0.1823,-0.0102,-0.2492,-0.3126,-0.337,-0.3412,-0.3412,-0.3412,-0.342,-0.3471,-0.3493,-0.3513,-0.3558,-0.358,-0.3589,-0.3589,-0.3589,-0.3589,-0.3589,-0.3589,-0.3596,-0.3628,-0.3649,-0.3677,-0.3719,-0.3739,-0.3757,-0.3768,-0.3772,-0.3779,-0.3795,-0.3799,-0.381,-0.3838,-0.3859,-0.3876,-0.3887,-0.3914,-0.3874,-0.3888,-0.3888,-0.3888,-0.3888,-0.3888,-0.3929,-0.388,-0.3927,-0.392,-0.392,-0.3876,-0.3925,-0.3943,-0.4048,-0.4075,-0.4086,-0.4086,-0.4058,0.8562,0.8519,0.876,0.9343,1.0089,1.092,1.1728,1.2285,1.2824,1.3627,1.3608,1.3511,1.3615,1.3627,1.3754,1.4181,1.4336,1.463,1.5294,1.548,1.5626,1.5885,1.5966,1.6007,1.6007,1.6112,1.5253,1.2952,1.2101,1.0671,0.824,0.6966,0.6312,0.6243,0.5889,0.5722,0.5696,0.5696,0.5718,0.5759,0.5818,0.5935,0.6014,0.6055,0.6082,0.6098,0.6098,0.6131,0.6194,0.6254,0.6376,0.6453,0.6495,0.5148,0.3027,0.1967,0.0153,-0.1919,-0.2957,-0.336,-0.3412,-0.3412,-0.3412,-0.3422,-0.3472,-0.3495,-0.3513,-0.3562,-0.3583,-0.3589,-0.3589,-0.3589,-0.3589,-0.3589,-0.3589,-0.36,-0.3643,-0.3667,-0.3692,-0.3733,-0.3757,-0.3772,-0.3772,-0.3772,-0.3779,-0.3799,-0.381,-0.3827,-0.3916,-0.3887,-0.3907,-0.3918,-0.3874,-0.3888,-0.3888,-0.3888,-0.3888,-0.3888,-0.3888,-0.3925,-0.3876,-0.3883,-0.3887,-0.3887,-0.3925,-0.3978,-0.3978,-0.4072,-0.4082,-0.4072,-0.4061,-0.4034,0.8857,0.8547,0.8552,0.9156,1.0121,1.1236,1.252,1.2965,1.3401,1.4399,1.4436,1.4352,1.4568,1.4159,1.3986,1.4518,1.448,1.4581,1.5124,1.5359,1.5577,1.5788,1.5934,1.5999,1.6007,1.6007,1.5422,1.4086,1.243,1.0731,0.8904,0.7159,0.6025,0.5693,0.5695,0.5679,0.5694,0.5696,0.5696,0.5696,0.5756,0.5848,0.6014,0.6014,0.6044,0.6098,0.6098,0.6131,0.6194,0.6254,0.6401,0.6511,0.6511,0.6511,0.6057,0.2826,0.1531,0.1036,-0.2179,-0.336,-0.3412,-0.3412,-0.3412,-0.3418,-0.3502,-0.3479,-0.3509,-0.3482,-0.3565,-0.3589,-0.3589,-0.3589,-0.3589,-0.3589,-0.3589,-0.3607,-0.3667,-0.3681,-0.3699,-0.3761,-0.3772,-0.3772,-0.3772,-0.3772,-0.3772,-0.3772,-0.3799,-0.3827,-0.3916,-0.3887,-0.3914,-0.3885,-0.3888,-0.3888,-0.3888,-0.3888,-0.3888,-0.3888,-0.3888,-0.3874,-0.3904,-0.387,-0.3888,-0.3888,-0.3947,-0.3978,-0.3978,-0.4072,-0.4068,-0.3978,-0.4009,-0.3994,0.8558,0.8618,0.8987,0.9632,1.0773,1.2032,1.3164,1.3693,1.4194,1.5134,1.5267,1.5201,1.504,1.4708,1.4526,1.4841,1.4717,1.4735,1.514,1.5245,1.5431,1.578,1.5821,1.5902,1.5991,1.6007,1.5422,1.4086,1.2385,1.064,0.8904,0.711,0.5957,0.563,0.5671,0.5704,0.572,0.5719,0.5696,0.5696,0.5713,0.5786,0.5951,0.5995,0.6044,0.6098,0.6098,0.6109,0.6128,0.6191,0.6313,0.6508,0.6464,0.5719,0.4488,0.2371,0.0817,-0.0467,-0.2594,-0.336,-0.3412,-0.3412,-0.3412,-0.3418,-0.3502,-0.3479,-0.3509,-0.3482,-0.3565,-0.3589,-0.3589,-0.3589,-0.3589,-0.3589,-0.3607,-0.3632,-0.3674,-0.3699,-0.3723,-0.3764,-0.3772,-0.3772,-0.3772,-0.3772,-0.3779,-0.3799,-0.3827,-0.3859,-0.3887,-0.3918,-0.387,-0.3918,-0.3918,-0.3918,-0.3918,-0.3898,-0.3887,-0.3887,-0.3904,-0.3914,-0.3904,-0.3911,-0.3929,-0.3888,-0.3988,-0.4019,-0.3978,-0.4072,-0.4058,-0.4009,-0.3998,-0.3985,0.8672,0.899,0.9545,1.019,1.1302,1.2588,1.3986,1.4563,1.4997,1.5702,1.5712,1.5579,1.5489,1.5034,1.4806,1.5078,1.4879,1.4806,1.509,1.5156,1.5278,1.5536,1.5683,1.5821,1.5926,1.5966,1.5669,1.4878,1.2845,1.104,0.9642,0.7504,0.6102,0.5566,0.5605,0.5646,0.5693,0.5687,0.5717,0.5696,0.5696,0.5748,0.5842,0.5951,0.6008,0.6066,0.6087,0.6112,0.6136,0.6175,0.6284,0.6473,0.6434,0.5804,0.4793,0.3178,0.1528,-0.0155,-0.1762,-0.2829,-0.3396,-0.3408,-0.3412,-0.3415,-0.3434,-0.3468,-0.3506,-0.3524,-0.3558,-0.3589,-0.3589,-0.3589,-0.3589,-0.3589,-0.3614,-0.3643,-0.3674,-0.3705,-0.3737,-0.3764,-0.3772,-0.3772,-0.3772,-0.3772,-0.3779,-0.3795,-0.3824,-0.3859,-0.3898,-0.3911,-0.3907,-0.3887,-0.3887,-0.3887,-0.3887,-0.3929,-0.3922,-0.3876,-0.3893,-0.3911,-0.3922,-0.3932,-0.3949,-0.3967,-0.3998,-0.4016,-0.4023,-0.4041,-0.4023,-0.3978,-0.3978,-0.3967,0.9034,0.9491,1.0156,1.0783,1.1758,1.305,1.4823,1.5413,1.5712,1.6129,1.592,1.5702,1.5892,1.5296,1.4912,1.5262,1.498,1.4789,1.4982,1.5106,1.5181,1.5197,1.5528,1.578,1.5812,1.5926,1.5942,1.5834,1.3507,1.1635,1.0585,0.8098,0.6337,0.5509,0.5514,0.5569,0.5676,0.569,0.5679,0.5688,0.5694,0.5724,0.578,0.584,0.5951,0.6016,0.6074,0.6131,0.6188,0.6183,0.6254,0.6412,0.6412,0.6448,0.6301,0.464,0.2992,0.1382,-0.031,-0.1983,-0.3424,-0.3401,-0.3412,-0.3412,-0.3412,-0.3454,-0.3502,-0.3502,-0.3544,-0.3589,-0.3589,-0.3589,-0.3589,-0.3589,-0.3614,-0.3645,-0.3674,-0.3705,-0.3739,-0.3764,-0.3772,-0.3772,-0.3772,-0.3772,-0.3775,-0.3838,-0.3803,-0.3842,-0.3898,-0.3883,-0.3927,-0.3922,-0.392,-0.392,-0.392,-0.3916,-0.3862,-0.3893,-0.3898,-0.3914,-0.3881,-0.3974,-0.3992,-0.3992,-0.4019,-0.4023,-0.3992,-0.3994,-0.3981,-0.3888,-0.3888,-0.3888,0.8906,0.9436,1.0222,1.1142,1.2626,1.4185,1.5286,1.556,1.5712,1.6129,1.6148,1.6065,1.6138,1.5731,1.5429,1.5516,1.5211,1.4958,1.4998,1.5039,1.5074,1.5181,1.527,1.5463,1.5788,1.5853,1.5437,1.4492,1.2969,1.122,0.9258,0.76,0.6314,0.5446,0.5492,0.5531,0.5555,0.5649,0.5701,0.0,0.5717,0.5702,0.5718,0.5778,0.5864,0.6016,0.6074,0.6131,0.6185,0.6136,0.6188,0.63,0.63,0.6385,0.6246,0.4578,0.2992,0.1382,-0.031,-0.1983,-0.3424,-0.3401,-0.3412,-0.3412,-0.3412,-0.3454,-0.3502,-0.3502,-0.3544,-0.3589,-0.3589,-0.3589,-0.3589,-0.3589,-0.3632,-0.3674,-0.3681,-0.3723,-0.3764,-0.3772,-0.3772,-0.3772,-0.3772,-0.3772,-0.3845,-0.3895,-0.3904,-0.3862,-0.39,-0.3918,-0.3922,-0.3898,-0.3873,-0.392,-0.392,-0.3877,-0.3803,-0.3835,-0.3855,-0.3883,-0.3911,-0.3943,-0.3898,-0.3898,-0.3988,-0.3992,-0.3898,-0.3985,-0.3981,-0.3888,-0.3888,-0.3888,0.9121,0.9821,1.0778,1.22,1.3438,1.4506,1.5233,1.5523,1.5684,1.5996,1.6148,1.6178,1.6178,1.5795,1.5481,1.5578,1.5194,1.4871,1.499,1.5006,1.5039,1.5098,1.5148,1.527,1.5496,1.5601,1.515,1.4006,1.2487,1.0779,0.8799,0.7265,0.6098,0.5426,0.5414,0.5489,0.5517,0.558,0.5638,0.5695,0.5681,0.5714,0.5699,0.5788,0.5927,0.6016,0.6074,0.6115,0.6142,0.6112,0.6153,0.624,0.6267,0.6316,0.6279,0.548,0.3693,0.1476,0.0568,-0.1353,-0.3352,-0.3397,-0.3412,-0.3412,-0.3412,-0.3454,-0.3502,-0.3502,-0.3544,-0.3589,-0.3589,-0.3589,-0.3589,-0.3589,-0.3636,-0.3681,-0.3681,-0.373,-0.3772,-0.3772,-0.3772,-0.3772,-0.3772,-0.3772,-0.3788,-0.3838,-0.3851,-0.3876,-0.3922,-0.3914,-0.39,-0.3883,-0.3929,-0.3909,-0.388,-0.3806,-0.381,-0.3835,-0.3866,-0.3893,-0.3925,-0.3881,-0.3888,-0.3888,-0.3963,-0.3905,-0.3888,-0.3905,-0.3963,-0.3888,-0.3888,-0.3888,0.9281,1.0221,1.1416,1.3154,1.3948,1.4459,1.5012,1.5347,1.5608,1.5845,1.6062,1.6178,1.6178,1.5704,1.535,1.5516,1.5056,1.4757,1.4903,1.4982,1.5006,1.5006,1.5098,1.5164,1.5197,1.5335,1.4978,1.3841,1.2162,1.0456,0.8772,0.7087,0.5969,0.5426,0.5384,0.5409,0.5503,0.5511,0.5566,0.5665,0.5684,0.5681,0.5699,0.581,0.594,0.6003,0.6068,0.6098,0.6098,0.6098,0.6128,0.618,0.6251,0.6311,0.6412,0.6486,0.4591,0.1972,0.1596,-0.0415,-0.2966,-0.3286,-0.3412,-0.3412,-0.3412,-0.3454,-0.3502,-0.3502,-0.3544,-0.3589,-0.3589,-0.3589,-0.3589,-0.3589,-0.3636,-0.3681,-0.3681,-0.373,-0.3772,-0.3772,-0.3772,-0.3772,-0.3772,-0.3772,-0.3782,-0.3817,-0.3842,-0.388,-0.3881,-0.3904,-0.3929,-0.392,-0.392,-0.3898,-0.3848,-0.3813,-0.3842,-0.3922,-0.3891,-0.3918,-0.3888,-0.3888,-0.3888,-0.3888,-0.3888,-0.3888,-0.3888,-0.3888,-0.3888,-0.3888,-0.3888,-0.3888,0.8854,1.014,1.1709,1.289,1.374,1.4399,1.4842,1.5096,1.5385,1.5816,1.6062,1.6178,1.6178,1.5704,1.5297,1.5324,1.4972,1.4716,1.4741,1.4871,1.5006,1.5006,1.5023,1.5065,1.5189,1.5221,1.4751,1.3644,1.2402,1.0798,0.8637,0.7311,0.6266,0.5426,0.5384,0.539,0.5395,0.5492,0.5525,0.5542,0.5646,0.5681,0.5699,0.5767,0.5832,0.594,0.6049,0.6098,0.6098,0.6098,0.6104,0.6123,0.6234,0.6284,0.6305,0.647,0.5299,0.3489,0.2008,0.0311,-0.1457,-0.2915,-0.3412,-0.3412,-0.3412,-0.3454,-0.3502,-0.3502,-0.3544,-0.3589,-0.3589,-0.3589,-0.3589,-0.3589,-0.3636,-0.3681,-0.3681,-0.373,-0.3772,-0.3772,-0.3772,-0.3772,-0.3772,-0.3772,-0.3775,-0.3779,-0.3884,-0.388,-0.3881,-0.3881,-0.3918,-0.3927,-0.392,-0.3916,-0.3909,-0.3838,-0.3848,-0.3883,-0.3898,-0.3918,-0.3888,-0.3888,-0.3888,-0.3888,-0.3888,-0.3888,-0.3888,-0.3888,-0.3888,-0.3888,-0.3888,-0.3888,0.9384,1.0535,1.1765,1.2833,1.3543,1.4099,1.4606,1.4889,1.5115,1.5441,1.5807,1.6072,1.6195,1.5613,1.5175,1.528,1.4815,1.4481,1.4684,1.4773,1.4854,1.499,1.5006,1.5039,1.5074,1.5082,1.461,1.3433,1.1997,1.0405,0.8615,0.7053,0.5975,0.5426,0.5384,0.5384,0.5384,0.5412,0.55,0.5566,0.5651,0.5681,0.5699,0.5759,0.5821,0.5927,0.6014,0.6068,0.6098,0.6098,0.6098,0.6106,0.6194,0.6248,0.6289,0.6429,0.5425,0.3789,0.2099,0.0465,-0.1196,-0.2845,-0.3397,-0.3412,-0.3412,-0.3442,-0.348,-0.3499,-0.3534,-0.3569,-0.3587,-0.3589,-0.3589,-0.3589,-0.3636,-0.3684,-0.3694,-0.3737,-0.3772,-0.3772,-0.3772,-0.3772,-0.3772,-0.3772,-0.3772,-0.3772,-0.3851,-0.3918,-0.3885,-0.3888,-0.3914,-0.382,-0.387,-0.387,-0.387,-0.3803,-0.3824,-0.3887,-0.39,-0.3918,-0.3888,-0.3888,-0.3888,-0.3888,-0.3888,-0.3888,-0.3888,-0.3888,-0.3888,-0.3888,-0.3888,-0.3888,0.9547,1.0445,1.1342,1.2359,1.3089,1.3684,1.426,1.4606,1.488,1.5078,1.5441,1.5816,1.6081,1.5575,1.5168,1.5237,1.472,1.4379,1.4538,1.4611,1.47,1.4917,1.4903,1.4958,1.4998,1.5006,1.4631,1.3745,1.1938,1.0304,0.8978,0.7099,0.5834,0.5402,0.5363,0.5368,0.5384,0.5384,0.5478,0.5583,0.5643,0.5704,0.5719,0.5734,0.5797,0.5856,0.5965,0.603,0.6096,0.6082,0.6085,0.6104,0.6164,0.6226,0.6286,0.6398,0.5656,0.4343,0.2293,0.0771,-0.0623,-0.2726,-0.3386,-0.3412,-0.3412,-0.3433,-0.3518,-0.3495,-0.3524,-0.3496,-0.3583,-0.3589,-0.3589,-0.3589,-0.3632,-0.3681,-0.3719,-0.375,-0.3772,-0.3772,-0.3772,-0.3772,-0.3772,-0.3772,-0.3772,-0.3772,-0.3873,-0.3877,-0.3846,-0.3904,-0.3869,-0.3782,-0.3772,-0.3772,-0.3772,-0.3772,-0.3806,-0.3887,-0.39,-0.3918,-0.3888,-0.3888,-0.3888,-0.3888,-0.3888,-0.3888,-0.3888,-0.3888,-0.3888,-0.3888,-0.3888,-0.3888,0.871,0.9418,1.0185,1.1086,1.2227,1.324,1.3646,1.4213,1.4672,1.487,1.5087,1.5394,1.5835,1.5721,1.5434,1.5097,1.4815,1.4572,1.4277,1.4343,1.4476,1.47,1.4724,1.4789,1.499,1.5006,1.4968,1.4899,1.2708,1.0978,1.0075,0.7746,0.6091,0.5338,0.5297,0.5324,0.5384,0.5384,0.5417,0.5522,0.558,0.5641,0.5701,0.5717,0.5734,0.5794,0.5856,0.5992,0.6093,0.6041,0.6049,0.6104,0.6164,0.6226,0.6286,0.6398,0.6409,0.5911,0.2701,0.1491,0.083,-0.2359,-0.3386,-0.3412,-0.3412,-0.3433,-0.3518,-0.3495,-0.3524,-0.3496,-0.3583,-0.3589,-0.3589,-0.3589,-0.3614,-0.3663,-0.375,-0.3772,-0.3772,-0.3772,-0.3772,-0.3772,-0.3772,-0.3772,-0.3772,-0.3772,-0.3873,-0.3846,-0.3795,-0.3782,-0.3779,-0.3772,-0.3772,-0.3772,-0.3772,-0.3772,-0.3806,-0.3887,-0.39,-0.3918,-0.3888,-0.3888,-0.3888,-0.3888,-0.3888,-0.3888,-0.3888,-0.3888,-0.3888,-0.3888,-0.3888,-0.3888,0.8813,0.927,0.9822,1.0571,1.1414,1.2219,1.273,1.3476,1.4128,1.4459,1.4776,1.5096,1.5404,1.5434,1.5386,1.5381,1.4918,1.4574,1.4511,1.4375,1.4335,1.4476,1.4635,1.4732,1.4797,1.4903,1.4653,1.3837,1.2264,1.061,0.8946,0.7325,0.6081,0.533,0.5294,0.5322,0.5384,0.5384,0.5414,0.552,0.5575,0.5635,0.5695,0.5714,0.5729,0.5786,0.5769,0.5851,0.6041,0.6022,0.6046,0.6101,0.6123,0.6191,0.6284,0.6305,0.6426,0.601,0.2734,0.1536,0.0985,-0.2291,-0.3371,-0.3412,-0.3412,-0.3419,-0.3438,-0.3489,-0.3509,-0.3527,-0.3576,-0.3589,-0.36,-0.3639,-0.3667,-0.3701,-0.3757,-0.3772,-0.3772,-0.3772,-0.3772,-0.3772,-0.3772,-0.3772,-0.3772,-0.3772,-0.3806,-0.382,-0.3779,-0.3772,-0.3772,-0.3772,-0.3772,-0.3772,-0.3772,-0.3795,-0.3835,-0.3887,-0.39,-0.3918,-0.3888,-0.3888,-0.3888,-0.3888,-0.3888,-0.3888,-0.3888,-0.3888,-0.3888,-0.3888,-0.3888,-0.3888,0.8696,0.9047,0.9545,1.0303,1.0792,1.1314,1.2313,1.2984,1.3514,1.4005,1.4465,1.4861,1.5059,1.5186,1.5339,1.5466,1.5088,1.4733,1.4663,1.4444,1.4301,1.4326,1.4456,1.4578,1.47,1.4425,1.3938,1.3175,1.1476,0.0,0.8269,0.69,0.59,0.53,0.5283,0.5322,0.5384,0.5384,0.5403,0.5489,0.5566,0.5624,0.5665,0.5703,0.5718,0.5756,0.5734,0.5807,0.5984,0.5984,0.6016,0.6071,0.609,0.6172,0.6281,0.6281,0.6407,0.6007,0.2725,0.1531,0.0984,-0.2231,-0.3362,-0.3412,-0.3412,-0.3419,-0.3438,-0.3489,-0.3509,-0.3527,-0.3576,-0.3589,-0.3604,-0.3652,-0.3684,-0.3712,-0.3748,-0.3764,-0.3768,-0.3757,-0.3754,-0.3757,-0.3768,-0.3772,-0.3772,-0.3772,-0.3737,-0.3726,-0.3823,-0.3772,-0.3772,-0.3772,-0.3772,-0.3772,-0.3772,-0.3806,-0.3844,-0.3876,-0.3893,-0.3918,-0.3888,-0.3888,-0.3888,-0.3888,-0.3888,-0.3888,-0.3888,-0.3888,-0.3888,-0.3888,-0.3888,-0.3894,0.0,0.0,0.0,1.022,1.0303,1.0609,1.2301,1.271,1.2909,1.3523,1.4116,1.4616,1.4842,1.5049,1.5222,1.5298,1.5302,1.5104,1.4583,1.451,1.4443,1.422,1.4208,1.431,1.4584,1.3514,1.2858,1.2968,1.0385,0.8565,0.8059,0.6548,0.5515,0.5196,0.5262,0.5322,0.5382,0.5384,0.5384,0.5387,0.5547,0.5602,0.5608,0.5687,0.5696,0.5699,0.5759,0.5815,0.5918,0.5924,0.5959,0.6019,0.6076,0.6172,0.6281,0.6281,0.6407,0.6007,0.2725,0.1531,0.0984,-0.2231,-0.3362,-0.3412,-0.3412,-0.3433,-0.3518,-0.3495,-0.3524,-0.3496,-0.3583,-0.3589,-0.3596,-0.3628,-0.366,-0.3688,-0.3719,-0.375,-0.3761,-0.3733,-0.3719,-0.3723,-0.3761,-0.3772,-0.3772,-0.3772,-0.367,-0.3639,-0.3757,-0.3772,-0.3772,-0.3772,-0.3772,-0.3772,-0.3772,-0.381,-0.3838,-0.392,-0.3887,-0.3918,-0.3888,-0.3888,-0.3888,-0.3888,-0.3888,-0.3888,-0.3888,-0.3888,-0.3888,-0.3888,-0.3888,-0.3967,0.8741,0.0,0.0,0.0,0.0,0.0,1.0137,1.0768,1.1507,1.2559,1.3051,1.3532,1.4336,1.4625,1.4819,1.4983,1.5165,1.5268,1.5113,1.4956,1.4749,1.4443,1.4488,1.416,1.3155,1.2866,1.1936,0.0,0.9111,0.795,0.6385,0.5655,0.5223,0.5136,0.524,0.5303,0.5319,0.5363,0.5384,0.5387,0.5547,0.5602,0.5608,0.5687,0.5696,0.5696,0.5713,0.5732,0.5756,0.5935,0.5997,0.6019,0.6076,0.6172,0.6281,0.6281,0.6407,0.6007,0.2725,0.1531,0.0984,-0.2231,-0.3362,-0.3412,-0.3412,-0.3433,-0.3518,-0.3495,-0.3524,-0.3496,-0.3583,-0.3589,-0.3604,-0.3656,-0.3663,-0.3734,-0.3744,-0.3764,-0.3761,-0.3733,-0.3705,-0.3692,-0.3705,-0.3744,-0.3772,-0.3772,-0.3744,-0.3733,-0.3768,-0.3772,-0.3772,-0.3772,-0.3772,-0.3772,-0.3772,-0.382,-0.3851,-0.392,-0.3907,-0.3877,-0.3888,-0.3888,-0.3888,-0.3888,-0.3888,-0.3888,-0.3888,-0.3888,-0.3888,-0.3888,-0.3888,-0.3967,0.0,0.0,0.0,0.0,0.0,0.0,0.9787,1.0159,1.0692,1.19,1.2493,1.3003,1.3665,1.4109,1.4408,1.4606,1.4931,1.5137,1.5165,1.5156,1.4929,1.4427,1.4517,1.4038,1.2539,1.1898,1.0741,0.872,0.782,0.6772,0.5411,0.5173,0.5085,0.5112,0.5204,0.5267,0.5294,0.5354,0.5384,0.5387,0.5522,0.558,0.5608,0.566,0.5717,0.5696,0.5724,0.5721,0.571,0.5937,0.6,0.5984,0.6066,0.6172,0.6281,0.6281,0.6407,0.6108,0.3531,0.2093,0.1088,-0.1452,-0.2784,-0.3412,-0.3412,-0.3433,-0.3518,-0.3495,-0.3531,-0.3569,-0.3587,-0.3589,-0.36,-0.3649,-0.3656,-0.3724,-0.3733,-0.3739,-0.373,-0.3712,-0.3692,-0.3674,-0.3645,-0.3674,-0.3712,-0.3764,-0.3772,-0.3754,-0.3701,-0.3739,-0.3772,-0.3772,-0.3772,-0.3772,-0.3772,-0.3884,-0.392,-0.392,-0.3914,-0.3888,-0.3888,-0.3888,-0.3888,-0.3888,-0.3888,-0.3888,-0.3888,-0.3888,-0.3888,-0.3888,-0.3901,-0.3985,0.9704,0.9932,0.0,0.0,0.9787,0.0,1.033,1.024,1.0273,1.134,1.2049,1.2577,1.2871,1.3391,1.3863,1.4043,1.4465,1.4857,1.5011,1.5181,1.5066,1.4336,1.4401,1.3964,1.2482,1.0943,0.9571,0.8496,0.6606,0.5382,0.5008,0.4977,0.5046,0.5101,0.5166,0.5229,0.5283,0.5352,0.5384,0.5384,0.5489,0.5547,0.5605,0.5665,0.5684,0.5699,0.5753,0.5745,0.571,0.5932,0.5973,0.5935,0.6052,0.6172,0.6281,0.6281,0.6407,0.6259,0.4589,0.2909,0.1244,-0.0363,-0.2048,-0.3412,-0.3412,-0.3435,-0.3524,-0.3502,-0.3551,-0.3589,-0.3589,-0.3589,-0.3596,-0.3628,-0.3639,-0.3713,-0.3708,-0.3694,-0.367,-0.367,-0.367,-0.3652,-0.36,-0.36,-0.3645,-0.3754,-0.3772,-0.3733,-0.3625,-0.3705,-0.3772,-0.3772,-0.3772,-0.3772,-0.3772,-0.3884,-0.392,-0.392,-0.3914,-0.3888,-0.3888,-0.3888,-0.3888,-0.3888,-0.3888,-0.3888,-0.3888,-0.3888,-0.3888,-0.3888,-0.3981,-0.4012,1.0544,1.076,1.0889,1.0119,0.0,0.0,0.9077,0.933,0.9887,1.0011,1.0301,1.082,1.1652,1.2173,1.2484,1.2532,1.3446,1.4418,1.5053,1.5378,1.5279,1.4516,1.4579,1.3974,1.2165,1.0999,0.9633,0.7906,0.6084,0.5017,0.4915,0.4958,0.4988,0.5038,0.5145,0.5207,0.5221,0.533,0.5384,0.5384,0.5489,0.5547,0.5605,0.5665,0.5684,0.5696,0.5707,0.5707,0.5707,0.584,0.5932,0.5935,0.6052,0.6172,0.6281,0.6281,0.6407,0.6259,0.4589,0.2909,0.1244,-0.0363,-0.2048,-0.3412,-0.3412,-0.345,-0.3506,-0.3558,-0.358,-0.3589,-0.3589,-0.3589,-0.36,-0.3695,-0.3625,-0.3632,-0.3737,-0.3681,-0.3607,-0.3607,-0.3607,-0.3604,-0.3594,-0.367,-0.3744,-0.3768,-0.3772,-0.3764,-0.3739,-0.3757,-0.3772,-0.3772,-0.3772,-0.3772,-0.3772,-0.3884,-0.392,-0.392,-0.3914,-0.3888,-0.3888,-0.3888,-0.3888,-0.3888,-0.3888,-0.3888,-0.3888,-0.3888,-0.3888,-0.3888,-0.3981,-0.4012,1.1002,1.1139,1.1294,1.0863,0.0,0.0,0.0,0.9454,0.9498,0.9867,0.9778,0.9944,1.0877,1.1217,1.1466,1.1881,1.2654,1.3409,1.4062,1.4874,1.5125,1.4416,1.4481,1.3836,1.1928,1.1184,0.9886,0.7543,0.5968,0.5024,0.4894,0.4923,0.4953,0.498,0.5109,0.5172,0.5202,0.5294,0.5354,0.5384,0.5414,0.5517,0.5605,0.5635,0.5654,0.5696,0.5696,0.5696,0.5705,0.5826,0.5924,0.5935,0.6052,0.6172,0.6281,0.6281,0.6407,0.636,0.5551,0.4174,0.2472,0.0828,-0.0838,-0.2331,-0.3141,-0.3454,-0.3509,-0.3538,-0.3569,-0.3589,-0.3589,-0.3589,-0.3594,-0.3614,-0.3604,-0.3607,-0.3667,-0.3632,-0.3589,-0.3589,-0.3589,-0.3589,-0.3589,-0.3639,-0.3701,-0.3761,-0.3772,-0.3772,-0.3772,-0.3772,-0.3772,-0.3772,-0.3772,-0.3772,-0.3772,-0.3884,-0.392,-0.392,-0.3914,-0.3888,-0.3888,-0.3888,-0.3888,-0.3888,-0.3888,-0.3888,-0.3888,-0.3888,-0.3894,-0.3974,-0.4003,-0.4034,0.0,0.0,0.0,0.0,0.0,1.1129,0.0,0.0,0.0,0.0,0.0,0.9607,1.0229,1.0346,1.0556,1.1202,0.0,0.0,0.0,1.3797,0.0,1.3985,1.417,1.368,1.2017,1.1269,0.983,0.734,0.5936,0.5117,0.4894,0.4885,0.4918,0.4964,0.5074,0.5142,0.5202,0.5262,0.5324,0.5384,0.5384,0.5489,0.5602,0.5602,0.5627,0.5696,0.5696,0.5696,0.5705,0.5826,0.5924,0.5935,0.6052,0.6172,0.6281,0.6281,0.6407,0.6511,0.6511,0.5381,0.3738,0.2066,0.0209,-0.1637,-0.2985,-0.3459,-0.3502,-0.3509,-0.3549,-0.3589,-0.3589,-0.3589,-0.3589,-0.3589,-0.3589,-0.3594,-0.3604,-0.3618,-0.3618,-0.3594,-0.3589,-0.3589,-0.3589,-0.3589,-0.3632,-0.3754,-0.3772,-0.3772,-0.3772,-0.3772,-0.3772,-0.3772,-0.3772,-0.3772,-0.3772,-0.382,-0.3911,-0.392,-0.3911,-0.3881,-0.3888,-0.3888,-0.3888,-0.3888,-0.3888,-0.3888,-0.3888,-0.3894,-0.397,-0.3994,-0.4026,-0.4058,0.0,0.0,0.0,0.0,1.2701,0.0,0.0,0.0,0.0,1.0169,0.0,0.0,0.0,0.0,0.0,0.0,0.0,0.0,1.1161,1.19,1.2599,1.3001,1.3457,1.3464,1.2913,1.0732,0.8761,0.7385,0.5789,0.4852,0.48,0.4877,0.4902,0.4907,0.5055,0.5142,0.5202,0.5262,0.5324,0.5384,0.5384,0.5489,0.5602,0.5602,0.5627,0.5696,0.5696,0.5696,0.5705,0.5826,0.5924,0.5935,0.6052,0.6172,0.6281,0.6281,0.6407,0.6511,0.6511,0.5381,0.3738,0.2066,-0.0577,-0.3146,-0.3388,-0.3476,-0.3506,-0.3478,-0.3565,-0.3589,-0.3589,-0.3589,-0.3589,-0.3589,-0.3589,-0.3604,-0.366,-0.3712,-0.3719,-0.3611,-0.3589,-0.3589,-0.3589,-0.3589,-0.3632,-0.3754,-0.3772,-0.3772,-0.3772,-0.3772,-0.3772,-0.3772,-0.3772,-0.3772,-0.3772,-0.3803,-0.3831,-0.392,-0.3891,-0.3922,-0.3888,-0.3888,-0.3888,-0.3888,-0.3888,-0.3888,-0.3888,-0.3978,-0.3992,-0.3994,-0.4026,-0.4058,0.0,0.0,0.0,0.0,0.0,0.0,1.2382,0.0,1.1658,0.0,0.0,0.0,0.0,0.0,0.0,0.0,0.9854,0.0,0.0,0.0,1.1637,0.0,0.0,0.0,1.2286,1.0777,0.9398,0.8429,0.6728,0.5522,0.4999,0.4877,0.4864,0.4896,0.4977,0.5106,0.5202,0.5229,0.5289,0.5384,0.5384,0.5489,0.5602,0.5602,0.5627,0.5696,0.5696,0.5696,0.5705,0.5826,0.5924,0.5935,0.6052,0.6172,0.6281,0.6281,0.6407,0.6511,0.6511,0.6043,0.5025,0.2392,-0.0685,-0.3414,-0.3427,-0.3452,-0.3482,-0.3513,-0.354,-0.3569,-0.3587,-0.3589,-0.3589,-0.3589,-0.3589,-0.3596,-0.3621,-0.3677,-0.3694,-0.3607,-0.3589,-0.3589,-0.3589,-0.3589,-0.3632,-0.3754,-0.3772,-0.3772,-0.3772,-0.3772,-0.3772,-0.3772,-0.3772,-0.3772,-0.3772,-0.3799,-0.3827,-0.3916,-0.3904,-0.3874,-0.3888,-0.3888,-0.3888,-0.3888,-0.3888,-0.3888,-0.3888,-0.3981,-0.4005,-0.4023,-0.405,-0.4082,1.5197,0.0,0.0,0.0,0.0,0.0,0.0,0.0,0.0,0.0,0.0,0.0,0.0,0.0,0.0,0.0,0.0,0.9637,0.0,1.0067,0.0,0.0,0.0,0.0,0.0,1.0708,0.9741,0.8941,0.7203,0.5842,0.51,0.4883,0.4785,0.4869,0.4945,0.5079,0.5202,0.5202,0.5264,0.5384,0.5384,0.5489,0.5602,0.5602,0.5627,0.5696,0.5696,0.5705,0.5729,0.5834,0.5932,0.5957,0.6057,0.6161,0.6256,0.6273,0.6396,0.6489,0.6506,0.6205,0.5353,0.2501,-0.0369,-0.2825,-0.3251,-0.3433,-0.3518,-0.3495,-0.3524,-0.3496,-0.3583,-0.3589,-0.3589,-0.3589,-0.3589,-0.3594,-0.36,-0.3632,-0.3645,-0.3614,-0.3596,-0.3589,-0.3589,-0.3589,-0.3632,-0.3754,-0.3772,-0.3772,-0.3772,-0.3772,-0.3772,-0.3772,-0.3772,-0.3772,-0.3772,-0.3793,-0.382,-0.3916,-0.3914,-0.3888,-0.3888,-0.3888,-0.3888,-0.3888,-0.3888,-0.3892,-0.3901,-0.3992,-0.4023,-0.4054,-0.4075,-0.4103,0.0,0.0,0.0,1.3737,0.0,0.0,0.0,0.0,1.47,0.0,0.0,0.0,0.0,0.0,0.0,0.0,0.0,0.0,0.0,0.0,0.0,0.0,0.0,0.0,0.0,1.0212,0.912,0.0,0.659,0.5361,0.5017,0.4818,0.4722,0.4807,0.4921,0.5079,0.5202,0.5202,0.5264,0.5384,0.5384,0.5489,0.5602,0.5602,0.5627,0.5696,0.5696,0.5729,0.5788,0.5851,0.5957,0.6016,0.6074,0.6136,0.6199,0.6259,0.6319,0.6431,0.6492,0.5464,0.3887,0.2073,0.0367,-0.1278,-0.2931,-0.3433,-0.3518,-0.3495,-0.3524,-0.3496,-0.3583,-0.3589,-0.3589,-0.3589,-0.3589,-0.3596,-0.3628,-0.3611,-0.3604,-0.3695,-0.3618,-0.3589,-0.3589,-0.3589,-0.3632,-0.3754,-0.3772,-0.3772,-0.3772,-0.3772,-0.3772,-0.3772,-0.3772,-0.3772,-0.3772,-0.3772,-0.3855,-0.3916,-0.3914,-0.3888,-0.3888,-0.3888,-0.3888,-0.3888,-0.3888,-0.3901,-0.3994,-0.4023,-0.4054,-0.4086,-0.4086,-0.4103,0.0,0.0,1.6587,1.5494,0.0,0.0,0.0,0.0,0.0,0.0,0.0,0.0,0.0,0.0,0.0,0.0,0.0,0.0,0.0,0.0,0.0,0.0,0.0,0.0,0.0,0.0,0.0,0.8944,0.7572,0.0,0.6148,0.5361,0.4871,0.4819,0.4902,0.5002,0.5202,0.5202,0.5264,0.5384,0.5425,0.5528,0.5605,0.5646,0.5665,0.5696,0.5696,0.5729,0.5791,0.5851,0.5959,0.6019,0.6076,0.6109,0.6142,0.6243,0.6319,0.6384,0.6485,0.5442,0.3997,0.3446,0.2162,0.0692,0.016,-0.0854,-0.1769,-0.1784,-0.2619,-0.3524,-0.3551,-0.3576,-0.3589,-0.3589,-0.3589,-0.3594,-0.3604,-0.3596,-0.3594,-0.3607,-0.36,-0.3589,-0.3589,-0.3589,-0.3632,-0.3754,-0.3772,-0.3772,-0.3772,-0.3772,-0.3772,-0.3772,-0.3772,-0.3772,-0.3772,-0.3795,-0.3824,-0.3916,-0.3914,-0.3888,-0.3888,-0.3888,-0.3888,-0.3888,-0.3888,-0.3963,-0.3994,-0.4026,-0.4054,-0.4086,-0.4106,-0.4121,1.7435,1.7284,0.0,1.6312,1.5639,0.0,1.4832,0.0,0.0,0.0,0.0,0.0,0.0,0.0,0.0,0.0,0.0,0.0,0.0,0.8334,0.0,0.0,0.0,0.0,0.0,0.0,0.9852,0.94,0.8211,0.7291,0.0,0.0,0.5312,0.4937,0.4899,0.4983,0.5202,0.5202,0.5264,0.5384,0.5489,0.5547,0.5605,0.5665,0.5684,0.5696,0.5696,0.5742,0.5821,0.5861,0.597,0.6046,0.6085,0.6098,0.6112,0.6234,0.6382,0.6464,0.6493,0.5852,0.4878,0.4333,0.3481,0.2502,0.1863,0.0905,-0.0107,-0.07,-0.1683,-0.2738,-0.3358,-0.3551,-0.3572,-0.3572,-0.3572,-0.3576,-0.3587,-0.3589,-0.3589,-0.3589,-0.3589,-0.3589,-0.3589,-0.36,-0.3649,-0.3754,-0.3772,-0.3772,-0.3772,-0.3772,-0.3772,-0.3772,-0.3772,-0.3772,-0.3772,-0.3813,-0.3844,-0.392,-0.3914,-0.3888,-0.3888,-0.3888,-0.3888,-0.3888,-0.3888,-0.3908,-0.4012,-0.403,-0.4061,-0.4103,-0.4121,-0.4131]},{"header":{"parameterUnit":"m.s-1","parameterCategory":1,"la1":30.6,"la2":29.2853,"lo1":-89.7004,"lo2":-87.6739,"dy":0.0162,"dx":0.0183,"nx":112,"ny":82,"refTime":"2026-03-27T12:00:00:Z","depth":0,"parameterNumber":3,"parameterNumberName":"V-component_of_WINDS"},"data":[0.0,0.0,0.0,0.0,0.0,0.0,0.0,0.0,0.0,0.0,0.0,0.0,0.0,0.0,0.0,0.0,0.0,0.0,0.0,0.0,0.0,0.0,0.0,0.0,0.0,0.0,0.0,0.0,0.0,0.0,0.0,0.0,0.0,0.0,0.0,0.0,0.0,0.0,0.0,0.0,0.0,0.0,0.0,0.0,0.0,0.0,0.0,0.0,0.0,0.0,0.0,0.0,0.0,0.0,0.0,0.0,0.0,0.0,0.0,0.0,0.0,0.0,0.0,0.0,0.0,0.0,0.0,0.0,0.0,0.0,0.0,0.0,0.0,0.0,0.0,0.0,0.0,0.0,0.0,0.0,0.0,0.0,0.0,0.0,0.0,0.0,0.0,0.0,0.0,0.0,4.5281,4.7353,5.2954,5.6195,5.5467,5.497,5.2012,4.5702,0.0,0.0,0.0,0.0,0.0,0.0,0.0,0.0,0.0,0.0,0.0,0.0,0.0,0.0,0.0,0.0,0.0,0.0,0.0,0.0,0.0,0.0,0.0,0.0,0.0,0.0,0.0,0.0,0.0,0.0,0.0,0.0,0.0,0.0,0.0,0.0,0.0,0.0,0.0,0.0,0.0,0.0,0.0,0.0,0.0,0.0,0.0,0.0,0.0,0.0,0.0,0.0,0.0,0.0,0.0,0.0,0.0,0.0,0.0,0.0,0.0,0.0,0.0,0.0,0.0,0.0,0.0,0.0,0.0,0.0,0.0,0.0,0.0,0.0,0.0,0.0,0.0,0.0,0.0,0.0,0.0,0.0,0.0,0.0,0.0,0.0,0.0,0.0,0.0,0.0,0.0,0.0,0.0,0.0,0.0,0.0,0.0,0.0,0.0,0.0,0.0,0.0,0.0,0.0,4.5637,5.3036,5.5421,5.6435,5.6315,5.4263,5.1312,4.7361,0.0,0.0,0.0,0.0,0.0,0.0,0.0,0.0,0.0,0.0,0.0,0.0,0.0,0.0,0.0,0.0,0.0,0.0,0.0,0.0,0.0,0.0,0.0,0.0,0.0,0.0,0.0,0.0,0.0,0.0,0.0,0.0,0.0,0.0,0.0,0.0,0.0,0.0,0.0,0.0,0.0,0.0,0.0,0.0,0.0,0.0,0.0,0.0,0.0,0.0,0.0,0.0,0.0,0.0,0.0,0.0,0.0,0.0,0.0,0.0,0.0,0.0,0.0,0.0,0.0,0.0,0.0,0.0,0.0,0.0,0.0,0.0,0.0,0.0,0.0,0.0,0.0,0.0,0.0,0.0,0.0,0.0,0.0,0.0,0.0,0.0,0.0,0.0,0.0,0.0,0.0,0.0,0.0,0.0,0.0,0.0,0.0,0.0,0.0,0.0,0.0,0.0,0.0,4.4483,4.7929,5.5156,5.6288,5.6522,5.6484,5.4946,5.2104,4.7705,4.4166,0.0,0.0,0.0,0.0,0.0,0.0,0.0,0.0,0.0,0.0,0.0,0.0,0.0,0.0,0.0,0.0,0.0,0.0,0.0,0.0,0.0,0.0,0.0,0.0,0.0,0.0,0.0,0.0,0.0,0.0,0.0,0.0,0.0,0.0,0.0,0.0,0.0,0.0,0.0,0.0,0.0,0.0,0.0,0.0,0.0,0.0,0.0,0.0,0.0,0.0,0.0,0.0,0.0,0.0,0.0,0.0,0.0,0.0,0.0,0.0,0.0,0.0,0.0,0.0,0.0,0.0,0.0,0.0,0.0,0.0,0.0,0.0,0.0,0.0,0.0,0.0,0.0,0.0,0.0,0.0,0.0,0.0,0.0,0.0,0.0,0.0,0.0,0.0,0.0,0.0,0.0,0.0,0.0,0.0,0.0,0.0,0.0,0.0,0.0,0.0,0.0,0.0,4.8906,5.1398,5.6048,5.6737,5.6771,5.6555,5.4918,5.2078,4.767,4.3374,0.0,0.0,0.0,0.0,0.0,0.0,0.0,0.0,0.0,0.0,0.0,0.0,0.0,0.0,0.0,0.0,0.0,0.0,0.0,0.0,0.0,0.0,0.0,0.0,0.0,0.0,0.0,0.0,0.0,0.0,0.0,0.0,0.0,0.0,0.0,0.0,0.0,0.0,0.0,0.0,0.0,0.0,0.0,0.0,0.0,0.0,0.0,0.0,0.0,0.0,0.0,0.0,0.0,0.0,0.0,0.0,0.0,0.0,0.0,0.0,0.0,0.0,0.0,0.0,0.0,0.0,0.0,0.0,0.0,0.0,0.0,0.0,0.0,0.0,0.0,0.0,0.0,0.0,0.0,0.0,0.0,0.0,0.0,0.0,0.0,0.0,0.0,0.0,0.0,0.0,0.0,0.0,0.0,0.0,0.0,0.0,0.0,0.0,0.0,0.0,0.0,0.0,5.1514,5.6101,5.6531,5.7271,5.7427,5.6648,5.2811,4.9563,4.7519,4.1211,0.0,0.0,0.0,0.0,0.0,0.0,0.0,0.0,0.0,0.0,0.0,0.0,0.0,0.0,0.0,0.0,0.0,0.0,0.0,0.0,0.0,0.0,0.0,0.0,0.0,0.0,0.0,0.0,0.0,0.0,0.0,0.0,0.0,0.0,0.0,0.0,0.0,0.0,0.0,0.0,0.0,0.0,0.0,0.0,0.0,0.0,0.0,0.0,0.0,0.0,0.0,0.0,0.0,0.0,0.0,0.0,0.0,0.0,0.0,0.0,0.0,0.0,0.0,0.0,0.0,0.0,0.0,0.0,0.0,0.0,0.0,0.0,0.0,0.0,0.0,0.0,0.0,0.0,0.0,0.0,0.0,0.0,0.0,0.0,0.0,0.0,0.0,0.0,0.0,0.0,0.0,0.0,0.0,0.0,0.0,0.0,0.0,0.0,0.0,0.0,0.0,0.0,5.0687,5.5201,0.0,5.7933,5.766,5.7387,5.5351,5.2182,4.7731,0.0,0.0,0.0,0.0,0.0,0.0,0.0,0.0,0.0,0.0,0.0,0.0,0.0,0.0,0.0,0.0,0.0,0.0,0.0,0.0,0.0,0.0,0.0,0.0,0.0,0.0,0.0,0.0,0.0,0.0,0.0,0.0,0.0,0.0,0.0,0.0,0.0,0.0,0.0,0.0,0.0,0.0,0.0,0.0,0.0,0.0,0.0,0.0,0.0,0.0,0.0,0.0,0.0,0.0,0.0,0.0,0.0,0.0,0.0,0.0,0.0,0.0,0.0,0.0,0.0,0.0,0.0,0.0,0.0,0.0,0.0,0.0,0.0,0.0,0.0,0.0,0.0,0.0,0.0,0.0,0.0,0.0,0.0,0.0,0.0,0.0,0.0,0.0,0.0,0.0,0.0,0.0,0.0,0.0,0.0,0.0,0.0,0.0,0.0,0.0,0.0,0.0,4.6128,5.1386,5.5942,0.0,5.9222,5.8914,5.8651,5.6835,5.3357,4.7809,0.0,0.0,0.0,0.0,0.0,0.0,0.0,0.0,0.0,0.0,0.0,0.0,0.0,0.0,0.0,0.0,0.0,0.0,0.0,0.0,0.0,0.0,0.0,0.0,0.0,0.0,0.0,0.0,0.0,0.0,0.0,0.0,0.0,0.0,0.0,0.0,0.0,0.0,0.0,0.0,0.0,0.0,0.0,0.0,0.0,0.0,0.0,0.0,0.0,0.0,0.0,0.0,0.0,0.0,0.0,0.0,0.0,0.0,0.0,0.0,0.0,0.0,0.0,0.0,0.0,0.0,0.0,0.0,0.0,0.0,0.0,0.0,0.0,0.0,0.0,0.0,0.0,0.0,0.0,0.0,0.0,0.0,0.0,0.0,0.0,0.0,0.0,0.0,0.0,0.0,0.0,0.0,0.0,0.0,0.0,0.0,0.0,0.0,0.0,0.0,0.0,0.0,4.7183,5.4315,5.9494,6.0354,6.1211,6.1381,6.0505,5.6518,5.2148,0.0,0.0,0.0,0.0,0.0,0.0,0.0,0.0,0.0,0.0,0.0,0.0,0.0,0.0,0.0,0.0,0.0,0.0,0.0,0.0,0.0,0.0,0.0,0.0,0.0,0.0,0.0,0.0,0.0,0.0,0.0,0.0,0.0,0.0,0.0,0.0,0.0,0.0,0.0,0.0,0.0,0.0,0.0,0.0,0.0,0.0,0.0,0.0,0.0,0.0,0.0,0.0,0.0,0.0,0.0,0.0,0.0,0.0,0.0,0.0,0.0,0.0,0.0,0.0,0.0,0.0,0.0,0.0,0.0,0.0,0.0,0.0,0.0,0.0,0.0,0.0,0.0,0.0,0.0,0.0,0.0,0.0,0.0,0.0,0.0,0.0,0.0,0.0,0.0,0.0,0.0,0.0,0.0,0.0,0.0,0.0,0.0,0.0,0.0,0.0,0.0,0.0,0.0,4.8926,5.6648,6.2189,6.3049,6.3361,6.3179,6.2302,5.9375,5.4958,4.8776,0.0,0.0,0.0,0.0,0.0,0.0,0.0,0.0,0.0,0.0,0.0,0.0,0.0,0.0,0.0,0.0,0.0,0.0,0.0,0.0,0.0,0.0,0.0,0.0,0.0,0.0,0.0,0.0,0.0,0.0,0.0,0.0,0.0,0.0,0.0,0.0,0.0,0.0,0.0,0.0,0.0,0.0,0.0,0.0,0.0,0.0,0.0,0.0,0.0,0.0,0.0,0.0,0.0,0.0,0.0,0.0,0.0,0.0,0.0,0.0,0.0,0.0,0.0,0.0,0.0,0.0,0.0,0.0,0.0,0.0,0.0,0.0,0.0,0.0,0.0,0.0,0.0,0.0,0.0,0.0,0.0,0.0,0.0,0.0,0.0,0.0,0.0,0.0,0.0,0.0,0.0,0.0,0.0,0.0,0.0,0.0,0.0,0.0,0.0,0.0,0.0,0.0,5.0608,5.8095,6.3711,6.5624,6.582,6.5444,6.4606,6.2422,5.8045,5.0772,0.0,0.0,0.0,0.0,0.0,0.0,0.0,0.0,0.0,0.0,0.0,0.0,0.0,0.0,0.0,0.0,0.0,0.0,0.0,0.0,0.0,0.0,0.0,0.0,0.0,0.0,0.0,0.0,0.0,0.0,0.0,0.0,0.0,0.0,0.0,0.0,0.0,0.0,0.0,0.0,0.0,0.0,0.0,0.0,0.0,0.0,0.0,0.0,0.0,0.0,0.0,0.0,0.0,0.0,0.0,0.0,0.0,0.0,0.0,0.0,0.0,0.0,0.0,0.0,0.0,0.0,0.0,0.0,0.0,0.0,0.0,0.0,0.0,0.0,0.0,0.0,0.0,0.0,0.0,0.0,0.0,0.0,0.0,0.0,0.0,0.0,0.0,0.0,0.0,0.0,0.0,0.0,0.0,0.0,0.0,0.0,0.0,0.0,0.0,0.0,0.0,0.0,5.2181,5.9078,6.4687,6.7888,6.8277,6.798,6.7104,6.5387,6.1093,5.3547,0.0,0.0,0.0,0.0,0.0,0.0,0.0,0.0,0.0,0.0,0.0,0.0,0.0,0.0,0.0,0.0,0.0,0.0,0.0,0.0,0.0,0.0,0.0,0.0,0.0,0.0,0.0,0.0,0.0,0.0,0.0,0.0,0.0,0.0,0.0,0.0,0.0,0.0,0.0,0.0,0.0,0.0,0.0,0.0,0.0,0.0,0.0,0.0,0.0,0.0,0.0,0.0,0.0,0.0,0.0,0.0,0.0,0.0,0.0,0.0,3.7697,0.0,0.0,0.0,0.0,0.0,0.0,0.0,0.0,0.0,0.0,0.0,0.0,0.0,0.0,0.0,0.0,0.0,0.0,0.0,0.0,0.0,0.0,0.0,0.0,0.0,0.0,0.0,0.0,0.0,0.0,0.0,0.0,0.0,0.0,0.0,0.0,0.0,0.0,0.0,0.0,0.0,5.3219,6.1488,6.7537,6.8981,6.9723,6.9776,6.8902,6.6637,6.2773,5.7066,5.1832,0.0,0.0,0.0,0.0,0.0,0.0,0.0,0.0,0.0,0.0,0.0,0.0,0.0,0.0,0.0,0.0,0.0,0.0,0.0,0.0,0.0,0.0,0.0,0.0,0.0,0.0,0.0,0.0,0.0,0.0,0.0,0.0,0.0,0.0,0.0,0.0,0.0,0.0,0.0,0.0,0.0,0.0,0.0,0.0,0.0,0.0,0.0,0.0,0.0,0.0,0.0,0.0,0.0,0.0,0.0,0.0,0.0,0.0,0.0,0.0,4.1375,0.0,0.0,0.0,0.0,0.0,0.0,0.0,0.0,0.0,0.0,0.0,0.0,0.0,0.0,0.0,0.0,0.0,0.0,0.0,0.0,0.0,0.0,0.0,0.0,0.0,0.0,0.0,0.0,0.0,0.0,0.0,0.0,0.0,0.0,0.0,0.0,0.0,0.0,0.0,0.0,5.5218,6.3015,6.8747,7.0465,7.105,7.098,7.0099,6.839,6.5349,6.0586,5.5429,0.0,0.0,0.0,0.0,0.0,0.0,0.0,0.0,0.0,0.0,0.0,0.0,0.0,0.0,0.0,0.0,0.0,0.0,0.0,0.0,0.0,0.0,0.0,0.0,0.0,0.0,0.0,0.0,0.0,0.0,0.0,0.0,0.0,0.0,0.0,0.0,0.0,0.0,0.0,0.0,0.0,0.0,0.0,0.0,0.0,0.0,0.0,0.0,0.0,0.0,0.0,0.0,0.0,5.0229,5.1496,5.1745,5.3141,5.4057,5.4363,5.0937,4.8888,4.7763,4.5561,0.0,0.0,0.0,0.0,0.0,0.0,0.0,0.0,0.0,0.0,0.0,0.0,0.0,0.0,0.0,0.0,0.0,0.0,0.0,0.0,0.0,0.0,0.0,0.0,5.8412,5.8763,0.0,0.0,0.0,0.0,0.0,0.0,0.0,0.0,0.0,0.0,0.0,0.0,5.7724,6.4504,6.9723,7.2182,7.2456,7.2143,7.14,7.041,6.8193,6.4363,5.9373,5.4765,0.0,0.0,0.0,0.0,0.0,0.0,0.0,0.0,0.0,0.0,0.0,0.0,0.0,0.0,0.0,0.0,0.0,0.0,0.0,0.0,0.0,0.0,0.0,0.0,0.0,0.0,0.0,0.0,0.0,0.0,0.0,0.0,3.0112,3.0516,0.0,0.0,0.0,0.0,0.0,0.0,0.0,0.0,0.0,0.0,0.0,0.0,0.0,4.7059,4.9544,5.2077,5.4216,5.5974,5.8453,6.008,6.0951,6.1366,6.2383,6.3949,6.4292,0.0,5.2691,5.1623,0.0,0.0,0.0,0.0,0.0,0.0,0.0,0.0,0.0,0.0,0.0,0.0,0.0,0.0,0.0,0.0,0.0,0.0,0.0,0.0,0.0,0.0,6.5813,6.5151,6.593,6.632,0.0,5.7124,5.019,4.8164,4.6568,0.0,0.0,0.0,0.0,0.0,0.0,0.0,6.0516,6.7226,7.2182,7.3978,7.4173,7.4134,7.4017,7.2577,7.0783,6.8675,6.4423,6.0684,5.7845,5.2886,0.0,0.0,0.0,0.0,0.0,0.0,0.0,0.0,0.0,0.0,0.0,0.0,0.0,0.0,0.0,0.0,0.0,0.0,0.0,0.0,0.0,0.0,0.0,0.0,0.0,0.0,0.0,0.0,0.0,3.0753,3.3834,3.2459,3.4629,3.5235,0.0,0.0,0.0,0.0,0.0,0.0,0.0,0.0,0.0,5.0055,5.1987,5.4029,5.6216,5.8767,6.0921,6.2689,6.4336,6.5886,6.7246,6.7454,6.7993,6.8779,6.9247,6.7176,6.3255,5.945,5.6665,5.4467,0.0,0.0,0.0,0.0,5.3387,5.3988,5.7994,5.9168,0.0,5.9073,0.0,0.0,0.0,0.0,0.0,0.0,0.0,0.0,0.0,0.0,6.9128,7.0648,7.1697,7.208,7.1222,6.6732,6.1239,0.0,5.3933,5.1283,4.4541,0.0,0.0,0.0,0.0,5.8568,6.3282,6.863,7.2651,7.433,7.4486,7.4486,7.4486,7.3822,7.269,7.0972,6.8161,6.5434,6.2866,5.8229,5.3935,0.0,0.0,0.0,0.0,0.0,0.0,0.0,0.0,0.0,0.0,0.0,0.0,0.0,0.0,0.0,0.0,0.0,0.0,0.0,0.0,0.0,0.0,0.0,0.0,0.0,0.0,0.0,0.0,3.4213,3.7043,3.5246,3.8065,3.8822,0.0,0.0,0.0,0.0,0.0,0.0,4.9135,5.1038,5.3462,5.6516,5.8866,6.0905,6.2631,6.4872,6.6663,6.8082,6.888,7.0034,7.1555,7.1727,7.1971,7.2186,7.2466,7.2623,7.2187,6.6296,6.3073,6.1579,5.8698,5.7971,5.8789,6.027,6.1014,6.1826,6.6088,6.7726,6.7778,6.6696,0.0,6.19,5.8165,0.0,0.0,0.0,0.0,5.9975,6.5104,6.8853,7.1977,7.4726,7.6055,7.6474,7.5576,7.4079,7.0688,0.0,6.1281,5.8669,5.138,0.0,0.0,0.0,0.0,6.2265,6.6366,7.0465,7.3549,7.4993,7.5188,7.5188,7.5188,7.4954,7.429,7.3043,7.1363,6.945,6.7342,6.3493,5.9784,5.6372,0.0,0.0,0.0,0.0,0.0,0.0,0.0,0.0,0.0,0.0,0.0,0.0,0.0,0.0,0.0,0.0,0.0,0.0,0.0,0.0,0.0,0.0,0.0,0.0,0.0,0.0,0.0,0.0,0.0,3.9414,4.2509,0.0,0.0,0.0,0.0,4.6225,4.8867,5.1979,5.5533,5.7443,6.0379,6.4665,6.5915,6.7233,6.8746,7.0065,7.1088,7.1761,7.1981,7.2615,7.3576,7.3705,7.4233,7.5143,7.6167,7.6606,7.6167,7.066,6.8336,6.8065,6.6303,6.5726,6.598,6.6916,6.7832,6.8955,7.0862,7.2033,7.2772,7.3505,7.045,6.6385,6.6121,6.3689,0.0,0.0,6.6634,6.9229,7.203,7.4659,7.6856,7.7872,7.8776,7.9167,7.8309,7.6788,7.4289,0.0,6.7532,6.5228,6.1481,0.0,5.984,5.9759,6.2906,6.6522,6.9995,7.3471,7.5971,7.6867,7.6984,7.6984,7.6984,7.6205,7.5697,7.5619,7.4017,7.2689,7.1714,6.91,6.6055,6.2618,5.8325,0.0,0.0,0.0,0.0,0.0,0.0,0.0,0.0,0.0,0.0,0.0,0.0,0.0,0.0,0.0,0.0,0.0,0.0,0.0,0.0,0.0,0.0,0.0,0.0,0.0,0.0,0.0,0.0,4.3286,4.7235,0.0,4.5709,4.8303,5.0711,5.2028,5.5541,5.8935,6.1964,6.3764,6.5726,6.7961,6.9467,7.0536,7.1174,7.2219,7.3086,7.3864,7.4645,7.5459,7.6369,7.7101,7.7653,7.8007,7.8398,7.8582,7.84,7.6473,7.4666,7.3025,7.1863,7.177,7.2425,7.3306,7.419,7.5074,7.5755,7.6501,7.7047,7.6307,7.4443,7.2267,7.114,6.998,6.9323,7.0765,7.2284,7.3904,7.5934,7.7978,7.959,7.9905,8.0193,8.0351,8.0039,7.9098,7.7877,7.6313,7.2812,6.8823,6.4802,6.5742,6.6285,6.4014,6.7122,7.0543,7.2846,7.5188,7.6984,7.7843,7.8429,7.8546,7.796,7.7649,7.6751,7.5071,7.4408,7.3432,7.2065,7.0582,6.8668,6.6327,6.3164,5.8169,0.0,0.0,0.0,0.0,0.0,0.0,0.0,0.0,0.0,0.0,0.0,0.0,0.0,0.0,0.0,0.0,0.0,0.0,0.0,0.0,0.0,0.0,0.0,0.0,0.0,4.4172,4.8021,4.7871,5.1919,5.3716,5.1134,5.4125,5.6831,5.8439,6.1675,6.4603,6.6972,6.844,6.9674,7.0769,7.222,7.3028,7.3168,7.448,7.5388,7.5902,7.6973,7.7804,7.8392,7.91,7.9467,7.9501,7.9812,7.9939,7.9958,7.9958,7.8923,7.729,7.6394,7.6394,7.7017,7.7897,7.8566,7.9153,7.9799,8.0389,8.0623,7.9532,7.8363,7.7194,7.6064,7.548,7.5441,7.6298,7.6983,7.7807,7.9239,8.0473,8.1349,8.1367,8.1363,8.1355,8.1355,8.0713,8.0146,8.0146,7.6862,7.3085,6.9959,7.1086,7.1549,6.8925,7.149,7.4134,7.5227,7.6906,7.8194,7.878,7.9366,7.9483,7.8897,7.804,7.6908,7.5462,7.429,7.3158,7.2065,7.0894,6.9567,6.8121,6.4726,6.016,5.4382,0.0,0.0,0.0,0.0,0.0,0.0,0.0,0.0,0.0,0.0,0.0,0.0,0.0,0.0,0.0,0.0,0.0,0.0,0.0,0.0,0.0,0.0,0.0,4.4138,4.8661,5.2286,5.3236,5.6484,5.873,5.888,6.0439,6.2565,6.5221,6.6954,6.8665,7.0381,7.1322,7.2293,7.3313,7.4411,7.4973,7.5018,7.7105,7.8045,7.7875,7.8944,7.9488,7.9526,7.9565,7.9582,7.9646,8.0464,8.0854,8.0893,8.0893,8.0893,8.0815,7.9919,7.9529,7.9646,8.0503,8.0854,8.1127,8.2844,8.3432,8.3432,8.3393,8.226,8.0893,8.0854,8.0231,7.9763,8.0584,8.0924,8.1189,8.2013,8.2265,8.2297,8.2343,8.237,8.237,8.237,8.1708,8.1124,8.1085,7.9718,7.8274,7.7335,7.6478,7.5658,7.4798,7.6086,0.0,7.7179,7.8663,7.9717,7.9717,7.9717,7.9717,7.9717,7.7337,7.6166,7.6984,7.3861,7.1987,7.1948,7.0348,6.902,6.8199,6.3164,5.969,5.7973,0.0,0.0,0.0,0.0,0.0,0.0,0.0,0.0,0.0,0.0,0.0,0.0,0.0,0.0,0.0,0.0,0.0,0.0,0.0,0.0,0.0,4.4781,4.8532,4.8693,5.2218,5.5826,5.8626,6.0888,6.2513,6.3316,6.447,6.5952,6.7899,6.9245,7.0723,7.2425,7.3479,7.4204,7.4643,7.6189,7.7077,7.7229,7.8438,7.9038,7.9034,7.9962,8.0422,8.0452,8.1117,8.1396,8.1403,8.1636,8.2104,8.2689,8.2689,8.3078,8.3429,8.1283,8.0425,8.0542,8.1403,8.2143,8.2844,8.3974,8.4328,8.425,8.3627,8.3078,8.2572,8.1948,8.1597,8.1457,8.1675,8.2214,8.276,8.3085,8.3592,8.4094,8.41,8.4127,8.4127,8.4127,8.3931,8.3582,8.2957,8.2411,8.1435,7.9326,7.878,7.8546,7.8311,7.8663,0.0,7.8975,7.9951,8.0381,7.9756,8.0263,8.0381,7.9756,7.7882,7.632,7.5266,7.3197,7.1714,7.1089,7.0582,7.0229,6.9995,6.617,6.3321,0.0,0.0,0.0,0.0,0.0,0.0,0.0,0.0,0.0,0.0,0.0,0.0,0.0,0.0,0.0,0.0,0.0,0.0,0.0,0.0,0.0,0.0,4.9641,5.3556,5.5643,5.78,6.0085,6.2492,6.4618,6.6261,6.7245,6.8204,6.9341,7.0753,7.1781,7.2818,7.3906,7.5266,7.6085,7.6292,7.7632,7.8469,7.8676,7.9534,8.0029,8.0049,8.0948,8.1348,8.1364,8.1873,8.2302,8.2653,8.2653,8.3159,8.3939,8.3939,8.425,0.0,0.0,0.0,0.0,0.0,8.3744,8.4562,8.5066,8.5455,8.565,8.5143,8.4754,8.4406,8.39,8.3462,8.3191,8.3194,8.355,8.4013,8.4022,8.4405,8.4782,8.4798,8.479,8.479,8.479,8.479,8.4634,8.4128,8.405,0.0,8.2097,8.0966,8.0107,7.9756,8.0029,8.0224,8.0224,8.1005,8.1356,8.0849,8.1552,8.1708,8.0849,7.8858,0.0,0.0,0.0,7.0894,6.9644,6.9605,0.0,0.0,0.0,0.0,0.0,0.0,0.0,0.0,6.2539,6.2187,0.0,0.0,0.0,0.0,0.0,0.0,0.0,0.0,0.0,0.0,0.0,0.0,0.0,0.0,0.0,0.0,5.4091,5.8235,6.2982,6.4025,6.4567,6.5339,6.7677,6.9578,7.0396,7.1328,7.2293,7.336,7.4156,7.4767,7.5217,7.6722,0.0,0.0,0.0,7.9458,7.964,8.053,8.0932,8.0971,8.1714,8.2146,8.2263,8.2263,8.2731,8.3549,8.3549,8.4056,8.4832,8.4832,8.491,8.4949,8.4754,8.4715,8.4715,8.4793,8.5338,8.6001,8.6118,0.0,0.0,8.7092,8.6585,8.5962,8.5884,8.5289,8.4691,8.4696,8.4833,8.4957,8.4955,8.5014,8.5103,8.5103,8.5103,8.5103,8.5103,8.5103,8.5064,8.4985,8.4946,8.4907,8.4829,8.284,8.1044,8.0381,8.0849,8.1319,8.1435,8.2098,8.2526,8.245,0.0,0.0,8.2489,8.0146,7.8313,7.7453,7.3549,7.058,6.902,6.9059,6.9097,6.9097,6.9957,7.1558,7.3899,7.4798,7.6125,7.7609,6.8043,6.6911,0.0,0.0,0.0,0.0,0.0,0.0,0.0,0.0,0.0,0.0,0.0,0.0,0.0,0.0,0.0,5.2334,5.6984,6.1145,6.4275,6.6543,6.7981,6.8142,6.9273,7.0442,7.1349,7.2371,7.3361,7.4205,7.4757,7.5714,7.7151,7.7704,7.8305,7.9081,8.0018,8.0514,8.0535,8.1426,8.1834,8.1834,0.0,0.0,8.3159,8.3159,8.3627,8.4445,8.4445,8.4949,8.5767,8.5767,8.6118,8.6585,8.5221,8.4715,8.4793,8.5494,8.5845,8.6079,8.6741,8.7053,8.7092,8.6429,8.6118,8.5884,8.5143,8.4824,0.0,8.4775,8.531,8.5852,8.5868,8.636,8.6898,8.6898,8.6898,8.6898,8.6898,8.6898,8.6703,8.6002,8.5846,8.5612,8.4907,8.3816,8.3191,8.3736,8.3347,8.3269,8.3972,8.4205,8.4049,8.3347,8.3426,8.3426,8.3269,8.1552,8.0146,7.9248,7.6438,7.4643,7.4331,7.4993,7.5345,7.5345,7.6203,7.6908,7.7415,7.8977,8.0615,8.2137,7.7375,7.6242,0.0,0.0,0.0,0.0,0.0,0.0,0.0,0.0,0.0,0.0,0.0,4.2113,4.6121,0.0,5.2997,5.7794,6.0724,6.3436,6.6391,6.8438,6.9616,6.9616,7.0894,7.2148,7.303,7.4057,7.491,7.5472,7.6118,7.6953,7.7965,7.891,7.9658,8.0104,8.0981,8.1458,8.1458,8.1864,8.2107,8.2107,8.2536,8.2964,8.3393,8.3861,8.4523,8.5338,8.5338,8.5845,8.6585,8.6585,8.6858,8.7131,8.6274,8.5962,8.6001,8.6429,8.6585,8.6663,8.7053,8.7209,8.7131,8.6741,8.6585,8.6507,8.6079,8.5983,8.6021,8.6038,8.6406,8.673,8.6749,8.7054,8.7523,8.7952,8.803,8.803,8.803,8.803,8.7796,8.6939,8.6744,8.6625,8.6196,8.5377,8.4792,8.479,8.4441,8.4323,8.4751,8.479,8.4634,8.4206,8.4558,8.4636,8.4206,8.2606,8.1278,8.042,7.8702,7.7765,7.7765,7.8155,7.8819,7.9678,8.0537,8.1397,8.2256,8.3582,8.487,8.608,8.4793,8.4206,0.0,0.0,0.0,0.0,0.0,0.0,0.0,3.6763,3.8122,4.3086,4.5411,4.7987,5.2748,5.4913,5.7637,6.2709,6.3929,6.5288,6.825,6.9749,7.0616,7.0861,7.2448,7.3819,7.4524,7.5542,7.6252,7.6496,7.737,7.8064,7.8426,7.9958,8.0867,8.1049,8.1714,8.2107,8.2107,8.2263,8.2341,8.2341,8.3237,8.3744,8.3939,8.4637,8.5416,8.6235,8.6235,8.6585,8.7209,8.7209,8.7287,8.7443,8.7443,8.7559,8.7676,8.752,8.7443,8.7481,8.7637,8.7715,8.7715,8.7715,8.7715,8.7715,8.7715,8.7761,8.7799,8.7799,8.7848,8.7913,8.7913,8.7913,8.8069,8.8774,8.8969,8.8969,8.8969,8.8969,8.8735,8.803,8.7913,8.7913,8.7913,8.7329,8.651,8.5454,8.5142,8.5103,8.5298,8.5298,8.5298,8.5298,8.5924,8.6158,8.561,8.4322,8.323,8.2528,8.1669,8.1199,8.1199,8.1199,8.194,8.3504,8.4167,8.5377,8.7095,8.7954,8.8852,8.9711,9.057,9.0415,3.272,3.1849,3.223,3.4431,3.5083,3.6988,0.0,4.4518,4.4858,4.9657,5.2517,5.4479,5.5543,5.824,6.1044,6.3224,6.485,6.6552,6.8572,7.0261,7.1693,7.2817,7.3806,7.4476,7.4816,7.5819,7.6491,7.6483,7.7544,7.8529,7.9328,8.0251,8.1163,8.1912,8.2068,8.2107,8.2107,8.2887,8.3237,8.3276,8.4134,8.4949,8.5728,8.5806,8.6312,8.7053,8.7053,8.7131,8.7209,8.7209,8.7676,8.8339,8.8339,8.8845,8.943,8.8651,8.8339,8.8456,8.9235,8.9508,8.9508,8.9508,8.9508,8.9508,8.9508,8.9554,8.9595,8.9595,8.9646,8.9712,8.9712,8.9712,8.9712,8.983,8.9869,8.9869,8.9869,8.9869,8.983,8.9712,8.9712,8.9712,8.9712,8.9634,8.9008,8.7367,8.6431,8.6236,8.7015,8.7093,8.7093,8.7093,8.7211,8.7523,8.8227,8.8071,8.7954,8.7837,8.7015,8.6547,8.6547,8.6547,8.6976,8.7954,8.8071,8.8969,9.0726,9.1546,9.2365,9.3263,9.4122,9.3654,3.7166,3.6634,3.6819,3.9254,4.1061,4.3315,4.743,4.8559,4.9981,5.4351,5.6295,5.7875,6.0,6.196,6.3821,6.5524,6.6867,6.8115,6.9373,7.0689,7.1583,7.1697,7.2961,7.4354,7.5703,7.6376,7.6924,7.7439,7.8398,7.9338,8.0212,8.1085,8.1714,8.2107,8.2107,8.2341,8.2848,8.3237,8.3666,8.4172,8.5027,8.565,8.6001,8.6468,8.6897,8.7209,8.7209,8.7209,8.7248,8.7754,8.8183,8.8534,8.9079,8.9469,8.9781,8.9391,8.9274,8.9313,8.9664,8.982,8.982,8.982,8.982,8.9791,8.9849,8.9899,8.9911,8.9882,8.9949,8.9986,8.9986,8.9986,9.0142,9.0648,9.0765,9.0765,9.0765,9.0765,9.0609,9.0103,8.9986,8.9986,8.9986,8.9986,8.9751,8.9008,8.8618,8.8501,8.8852,8.8891,8.8891,8.8891,8.8891,8.9047,8.9437,8.9477,8.9477,8.9477,8.9125,8.8891,8.8891,8.9398,9.0062,9.0882,9.1428,9.2287,9.3497,9.3849,9.42,9.4591,9.5449,9.5723,3.958,4.0248,4.1314,4.3232,4.6083,4.8926,5.0661,5.2243,5.4374,5.7959,5.9319,6.064,6.3078,6.4276,6.5457,6.7125,6.8003,6.8834,6.9887,7.0753,7.1082,7.0692,7.1831,7.3355,7.5205,7.5995,7.6895,7.8033,7.8921,7.9785,8.0638,8.1458,8.1882,8.1951,8.2196,8.2684,8.3377,8.3854,8.4445,8.5066,8.5923,8.6312,8.6351,8.6936,8.7209,8.7209,8.7443,8.7559,8.7637,8.8495,8.9001,8.9274,8.9897,9.0326,9.0517,9.0517,9.0365,9.0209,9.044,9.0517,9.0517,9.0517,9.0517,9.0541,9.0557,9.0581,9.0616,9.0624,9.0642,9.0688,9.0688,9.0688,9.0845,9.1467,9.1624,9.1624,9.1624,9.1624,9.1428,9.0806,9.0688,9.0688,9.0688,9.0688,9.0688,9.0688,9.0688,9.0532,9.0064,8.9986,8.9986,8.9986,9.022,9.0376,9.0376,9.0571,9.0806,9.1038,9.1038,9.1157,9.1391,9.2014,9.2639,9.3226,9.3849,9.4591,9.5449,9.5449,9.5567,9.584,9.6699,9.7479,3.8681,4.1282,4.4636,4.5498,4.8955,5.2678,5.4745,5.6472,5.8259,6.0443,6.2202,6.341,6.3574,6.4311,6.5457,6.7125,6.7472,6.8177,6.9939,7.0264,7.0457,7.0765,7.0839,7.1326,7.2422,7.418,7.5983,7.7783,7.8665,7.9471,8.0377,8.0999,8.1424,8.1625,8.25,8.3062,8.33,8.5052,8.5923,8.5962,8.678,8.717,8.717,8.7209,8.7209,8.7248,8.8105,8.8456,8.8534,8.9391,9.0248,9.1024,9.1063,9.157,9.231,9.231,9.1803,9.118,9.2037,9.231,9.231,9.231,9.231,9.2331,9.2313,9.2377,9.2413,9.2421,9.2401,9.2406,9.2406,9.2406,9.2445,9.2445,9.2445,9.2445,9.2445,9.2445,9.2445,9.2445,9.2406,9.2406,9.2406,9.2406,9.2406,9.2406,9.2406,9.186,9.022,8.9986,8.9986,8.9986,9.0765,9.1272,9.1272,9.1975,9.2795,9.3615,9.3693,9.4044,9.4903,9.4981,9.4981,9.502,9.5059,9.5488,9.6345,9.6345,9.6777,9.7636,9.8533,9.8922,4.2484,4.4919,4.758,5.0031,5.3314,5.6276,5.7548,5.9392,6.0985,6.1693,6.1885,6.1953,6.2066,6.323,6.4546,6.5699,6.7794,6.952,7.0187,7.126,7.1201,6.9123,7.0356,7.1099,7.0338,7.2778,7.5395,7.771,7.8661,7.9733,8.1189,8.1401,8.1796,8.2435,8.2937,8.3805,8.501,8.5672,8.6274,8.6819,8.7053,8.7209,8.7209,8.7209,8.752,8.8066,8.8378,8.8845,8.943,9.0287,9.0829,9.1141,9.1725,9.2154,9.2388,9.2388,9.2193,9.1998,9.231,9.2388,9.2388,9.2388,9.2388,9.2422,9.2443,9.2478,9.2494,9.2486,9.2497,9.2484,9.2484,9.2484,9.2484,9.2484,9.2484,9.2484,9.2484,9.2484,9.2484,9.2484,9.2484,9.2484,9.2484,9.2484,9.2484,9.2484,9.2484,9.2289,9.1742,9.1664,9.1664,9.1664,9.2443,9.2951,9.2951,9.3732,9.4356,9.463,9.4669,9.4786,9.5098,9.5645,9.5957,9.5957,9.7089,9.7829,9.8141,9.8729,9.9158,9.9431,9.9744,10.0095,4.5454,4.8317,5.1209,5.3933,5.6968,5.9384,5.9702,6.1078,6.2144,6.1573,6.1027,6.0638,6.0437,6.1031,6.2241,6.4337,6.6814,6.8998,7.0544,7.1455,7.1154,6.9035,6.996,7.0503,6.9693,7.184,7.4375,7.6986,7.8191,7.948,8.1009,8.124,8.1788,8.2875,8.3376,8.4369,8.5906,8.6257,8.6702,8.7209,8.7209,8.7209,8.7209,8.752,8.7988,8.8534,8.9157,8.9742,9.0326,9.1219,9.157,9.1609,9.2193,9.2388,9.2388,9.2388,9.2388,9.2388,9.2388,9.2388,9.2388,9.2388,9.2388,9.2389,9.2464,9.2681,9.2925,9.2978,9.3185,9.3421,9.3421,9.3421,9.3421,9.3421,9.3421,9.3421,9.3421,9.3421,9.3421,9.3421,9.3421,9.3421,9.3421,9.3421,9.3421,9.3421,9.3421,9.3302,9.299,9.3224,9.3421,9.3421,9.3927,9.4278,9.4278,9.4786,9.5215,9.5527,9.5567,9.584,9.6464,9.705,9.7478,9.7792,9.8885,9.947,9.947,10.0017,10.029,10.029,10.0603,10.0993,4.7611,5.1454,5.5387,5.7093,5.9801,6.1901,6.1222,6.1728,6.183,6.018,5.9704,5.9349,5.8623,5.7917,5.8829,6.3037,6.4762,6.6992,7.1036,7.1082,7.0642,7.0512,6.9862,6.9755,7.0435,7.1467,7.3173,7.569,7.7362,7.8761,8.0003,8.0569,8.1506,8.2926,8.3811,8.4796,8.5945,8.6802,8.7209,8.7209,8.7209,8.7209,8.7248,8.8105,8.8534,8.8651,9.0365,9.1141,9.1219,9.2076,9.2388,9.2388,9.2388,9.2388,9.2388,9.2388,9.2388,9.2388,9.2388,9.2388,9.2388,9.2388,9.243,9.2477,9.2542,9.3112,9.3785,9.3836,9.4473,9.5098,9.5098,9.5098,9.5098,9.5098,9.5098,9.5098,9.5098,9.5098,9.5098,9.5098,9.5098,9.5098,9.5098,9.5098,9.5098,9.5098,9.5137,9.4864,9.3966,9.4591,9.5098,9.5098,9.5137,9.5176,9.5176,9.5254,9.5645,9.6463,9.658,9.7321,9.9,9.9078,9.947,10.029,10.029,10.0407,10.0407,10.0407,10.0485,10.0485,10.1307,10.1698,5.2291,5.5367,5.7899,6.0007,6.1768,6.287,6.2188,6.2193,6.1747,5.9468,5.7005,5.5047,5.4327,5.5576,5.7811,6.1006,6.5967,6.9994,7.1659,7.3481,7.3899,7.1849,7.251,7.274,7.1673,7.2815,7.4256,7.571,7.6794,7.8422,8.0776,8.1447,8.2393,8.3754,8.4682,8.5709,8.6794,8.7061,8.7209,8.7209,8.7209,8.7209,8.7248,8.8105,8.8845,8.9547,9.0634,9.1453,9.2076,9.231,9.2388,9.2388,9.2388,9.2388,9.2388,9.2388,9.2388,9.2388,9.2388,9.2388,9.2388,9.2388,9.2834,9.3378,9.3371,9.402,9.4763,9.4765,9.4942,9.5098,9.5098,9.5098,9.5098,9.5098,9.5098,9.5098,9.5098,9.5098,9.5098,9.5098,9.5098,9.5098,9.5098,9.5098,9.5098,9.5098,9.5645,9.5762,9.4864,9.4942,9.5098,9.5098,9.5684,9.6074,9.6074,9.7245,9.8102,9.8336,9.8963,9.9509,9.9939,9.9978,10.0095,10.029,10.0915,10.119,10.119,10.1813,10.2515,10.3101,10.3298,10.3804,5.535,5.8179,6.031,6.1773,6.3059,6.3414,6.1254,6.0795,5.9544,5.5193,5.281,5.1049,4.9575,5.205,5.5333,5.8534,6.432,6.9258,7.1641,7.3661,7.4449,7.3286,7.4273,7.4727,7.3803,7.4654,7.5876,7.7223,7.7415,7.8407,8.0529,8.1547,8.2663,8.3947,8.4925,8.5995,8.7117,8.7181,8.7209,8.7209,8.7209,8.7404,8.7793,8.8689,8.9547,9.0401,0.0,9.1959,9.2388,9.2388,9.2388,9.2388,9.2388,9.2388,9.2466,9.282,9.2976,9.3015,9.3366,9.3482,9.3451,9.3071,9.3315,9.376,9.4171,9.4961,9.5656,9.566,9.5957,9.623,9.623,9.623,9.623,9.623,9.623,9.623,9.623,9.623,9.623,9.623,9.623,9.623,9.623,9.623,9.623,9.623,9.666,9.6777,9.6308,9.623,9.623,9.623,9.7011,9.7556,9.7556,9.8805,9.9588,9.9588,10.0017,10.0485,10.0798,10.0798,10.0993,10.1383,10.1813,10.2283,10.2595,10.3101,10.3804,10.4702,10.4702,10.4897,5.7444,6.0126,6.2242,6.2892,6.37,6.3372,5.9566,5.8263,5.6103,4.981,4.8112,4.7149,4.5281,4.8366,5.2453,5.6313,6.1722,6.6978,7.1437,7.2839,7.3714,7.4704,7.5522,7.6053,7.6121,7.6605,7.7606,7.9257,7.8641,7.8718,7.9955,8.143,8.2816,8.4098,8.5092,8.6102,8.7187,8.7188,8.7209,8.7209,8.7209,8.7676,8.8534,8.9391,9.0287,9.1141,9.2037,0.0,9.2388,9.2388,9.2388,9.2388,9.2388,9.2388,9.2505,9.3369,9.3681,9.3837,9.4616,9.4889,9.479,9.4108,9.3945,9.4207,9.5039,9.5893,9.6589,9.6555,9.7128,9.7714,9.7714,9.7714,9.7714,9.7714,9.7714,9.7714,9.7714,9.7714,9.7714,9.7714,9.7714,9.7714,9.7714,9.7714,9.7714,9.7714,9.7792,9.787,9.787,9.787,9.787,9.787,9.8651,9.9156,9.9156,9.9978,10.0485,10.0485,10.0603,10.0915,10.1619,10.1698,10.2086,10.2984,10.2984,10.3413,10.4313,10.4313,10.4702,10.5599,10.5599,10.5717,5.9421,6.1169,6.2446,6.3913,6.3463,6.1934,5.9301,5.5981,5.2381,4.8445,4.496,4.2906,4.3923,4.7072,5.1185,5.6329,6.1932,6.7257,7.1848,7.327,7.4313,7.5677,7.6771,7.731,7.715,7.7677,7.853,7.9704,7.9365,7.9513,8.0591,8.2035,8.3785,8.5791,8.6335,8.6758,8.7187,8.7188,8.7209,8.7209,8.7209,8.7676,8.8534,8.9391,9.0287,9.1141,9.2037,0.0,9.2388,9.2388,9.2388,9.2388,9.2388,9.2388,9.2505,9.3369,9.3681,9.3837,9.4616,9.4889,9.4906,9.481,9.526,9.5884,9.6093,9.6779,9.7453,9.7483,9.7597,9.7714,9.7714,9.7714,9.7714,9.7714,9.7714,9.7714,9.7714,9.7714,9.7714,9.7714,9.7714,9.7714,9.7714,9.7714,9.7714,9.7714,9.8299,9.8766,9.8766,9.8766,9.8766,9.8766,9.9548,10.0095,10.0095,10.0798,10.1307,10.1307,10.2008,10.2398,10.2593,10.2593,10.2984,10.3882,10.3882,10.4311,10.5209,10.5209,10.5599,10.6497,10.6497,10.72,6.037,6.2033,6.3222,6.3794,6.3112,6.1002,5.5928,5.2873,4.9424,4.3442,4.1,4.0005,3.9959,4.3857,4.8241,5.1871,5.6907,6.2447,6.8353,7.0,7.1825,7.5079,7.7195,7.8239,7.7968,7.8946,7.9766,8.018,8.0019,8.0366,8.1401,8.2987,8.4659,8.641,8.6687,8.6914,8.7156,8.7181,8.7209,8.7209,8.7209,8.7871,8.9196,8.9625,9.0517,9.1803,9.2232,0.0,9.2388,9.2388,9.2388,9.2388,9.2388,9.2664,9.3171,9.4032,9.4616,9.5123,9.598,9.6288,9.631,9.6345,9.634,9.64,9.6903,9.7382,9.7714,9.7714,9.7714,9.7714,9.7714,9.7714,9.7714,9.7714,9.7714,9.7714,9.7714,9.7714,9.7714,9.7714,9.8065,9.8377,9.8377,9.8768,9.9041,9.9041,9.9392,9.9666,9.9666,10.0017,10.0095,9.9705,10.0407,10.0915,10.0915,10.1696,10.2203,10.2203,10.2593,10.2984,10.3491,10.3491,10.3882,10.4819,10.4819,10.5209,10.6107,10.6107,10.681,10.8098,10.8098,10.8684,6.055,6.2378,6.3736,6.3644,6.2749,6.0029,5.3056,5.0107,4.6664,3.8969,3.772,3.7699,3.6758,4.071,4.5003,4.7678,5.1951,5.7482,6.4751,6.6915,6.9533,7.4378,7.7324,7.8864,7.8481,7.9923,8.0786,8.0587,8.0696,8.1247,8.2322,8.3632,8.5082,8.657,8.6738,8.6919,8.7101,8.7174,8.7209,8.7209,8.7209,8.8105,8.982,8.982,9.0751,9.2388,9.2388,0.0,0.0,9.2388,9.2388,9.2388,9.2388,9.2937,9.3798,9.4616,9.5434,9.6327,9.7184,9.7529,9.7613,9.759,9.7138,9.6717,9.7468,9.7714,9.7714,9.7714,9.7714,9.7714,9.7714,9.7714,9.7753,9.7948,9.8104,9.826,9.826,9.826,9.826,9.826,9.8807,9.9273,9.9273,9.9861,10.029,10.029,10.0407,10.0603,10.0603,10.1305,10.15,10.0915,10.1383,10.1815,10.1815,10.2593,10.3101,10.3101,10.3296,10.3687,10.4389,10.4389,10.4819,10.5717,10.5717,10.6107,10.7005,10.72,10.7981,10.9308,10.9503,11.0011,5.9868,6.1602,6.3244,6.4322,6.2318,5.8756,5.3473,4.8698,4.3853,3.8514,3.6316,3.5799,3.7229,3.9219,4.2283,4.7294,5.0873,5.5861,6.396,6.6846,6.9874,7.4541,7.7385,7.8903,7.8629,8.0137,8.1038,8.0786,8.1341,8.2165,8.3222,8.3476,8.4563,8.6636,8.6765,8.6932,8.7184,8.7188,8.7209,8.7209,8.7209,8.8105,8.982,8.982,9.0751,9.2388,9.2388,0.0,0.0,9.2388,9.2388,9.2388,9.2388,9.2937,9.3798,9.4616,9.5434,9.6327,9.7184,9.7529,9.7613,9.759,9.7537,9.7495,9.7654,9.7714,9.7714,9.7714,9.7714,9.7714,9.7714,9.7714,9.7909,9.8688,9.9509,10.0095,10.0095,10.0095,10.0095,10.0095,10.0095,10.0212,10.0212,10.0212,10.029,10.029,10.0915,10.1385,10.1385,10.2086,10.2711,10.2593,10.2593,10.2711,10.2711,10.3491,10.4001,10.4001,10.4702,10.5209,10.5287,10.5287,10.5717,10.6614,10.6614,10.7005,10.7903,10.8684,10.9113,10.9308,11.0011,11.0909,5.9018,6.1102,6.2474,6.2487,6.0425,5.6815,5.0789,4.6695,4.2602,3.703,3.5382,3.5192,3.5959,3.7052,3.9223,4.3446,4.5232,4.9057,5.7424,6.0308,6.3907,7.0214,7.4409,7.7206,7.8313,8.0126,8.1054,8.0638,8.0877,8.1715,8.3299,8.3887,8.4913,8.6588,8.6755,8.6894,8.7152,8.7178,8.7209,8.7209,8.7209,8.7832,8.904,8.9547,9.044,9.1647,9.2154,0.0,0.0,9.2388,9.2388,9.2388,9.2388,9.2937,9.3798,9.4616,9.5434,9.6338,9.7259,9.7568,9.7586,9.7615,9.7612,9.7663,9.7682,9.7714,9.7714,9.7714,9.8065,9.8494,9.8494,9.8885,9.9353,9.9705,10.0017,10.029,10.029,10.029,10.029,10.029,10.0681,10.0993,10.0993,10.15,10.1813,10.1813,10.2086,10.2281,10.2281,10.2593,10.2984,10.3491,10.3101,10.2984,10.3491,10.3882,10.4311,10.4819,10.5209,10.5599,10.6185,10.6185,10.6614,10.7512,10.7981,10.841,10.8801,10.9581,11.0284,11.0792,11.1104,11.1689,5.7453,5.9923,6.1451,6.1119,5.9003,5.542,4.9204,4.5483,4.173,3.6045,3.4908,3.4936,3.5057,3.5726,3.7252,4.0244,4.1895,4.538,5.2956,5.619,6.0102,6.6455,7.0991,7.4453,7.6594,7.9331,8.0858,8.0505,8.0506,8.121,8.2842,8.3686,8.4911,8.6576,8.6749,8.6924,8.7144,8.7178,8.7209,8.7209,8.7209,8.7793,8.8923,8.9508,9.0404,9.1531,9.2115,0.0,0.0,9.2388,9.2388,9.2388,9.2388,9.2937,9.3798,9.4616,9.5434,9.6345,9.7263,9.7605,9.7606,9.7616,9.7635,9.7714,9.7714,9.7714,9.7753,9.8026,9.8729,9.939,9.939,10.0017,10.0681,10.0681,10.0915,10.0993,10.0993,10.0993,10.0993,10.0993,10.15,10.1893,10.1893,10.2398,10.2789,10.2789,10.2789,10.2906,10.3218,10.3218,10.3491,10.4389,10.3882,10.3804,10.4389,10.4702,10.5092,10.5717,10.599,10.6419,10.7083,10.7083,10.7512,10.841,10.8996,10.9386,10.9699,11.0518,11.1182,11.1807,11.208,11.2509,5.4885,5.7878,6.0121,6.0917,5.8642,5.4882,4.9848,4.5445,4.0967,3.5931,3.4908,3.4922,3.4973,3.5703,3.6895,3.8628,4.2502,4.7093,5.2364,5.6554,6.0527,6.4376,6.7634,7.0567,7.3106,7.7692,8.0515,8.0506,8.0506,8.0888,8.1767,8.2579,8.414,8.6636,8.677,8.6937,8.7187,8.7188,8.7209,8.7209,8.7209,8.8105,8.9781,8.982,9.0751,9.2388,0.0,0.0,0.0,9.2388,9.2388,9.2388,9.2388,9.2937,9.3798,9.4616,9.5434,9.6345,9.7263,9.7605,9.7606,9.7616,9.7635,9.7714,9.7714,9.7714,9.787,9.8727,9.9627,10.029,10.029,10.0915,10.1502,10.1502,10.2086,10.2789,10.2789,10.2789,10.2789,10.2789,10.2789,10.2789,10.2789,10.2789,10.2789,10.2789,10.2789,10.3101,10.4001,10.4118,10.4389,10.5287,10.5404,10.5404,10.5404,10.6185,10.6693,10.6693,10.7512,10.802,10.802,10.802,10.841,10.9308,10.9308,10.9699,11.0516,11.1416,11.1807,11.1807,11.2707,11.3097,4.8993,5.1722,5.3701,5.2836,5.1402,4.9317,4.6013,4.2899,3.9754,3.6462,3.5325,3.4922,3.4973,3.5703,3.7623,4.1721,4.4029,4.7067,5.2191,5.5989,5.9591,6.3077,7.0112,7.5687,7.8161,7.9816,8.0646,8.0525,8.0506,8.0888,8.1767,8.2569,8.3789,8.5478,8.6171,8.6738,8.7148,8.7178,8.7209,8.7209,8.7209,8.7481,8.8066,8.9274,9.0092,0.0,0.0,0.0,0.0,9.2388,9.2388,9.2388,9.2388,9.2583,9.2898,9.3759,9.4624,9.551,9.6397,9.71,9.7616,9.7634,9.7689,9.7714,9.7714,9.7714,9.8026,9.947,10.0485,10.1305,10.1891,10.2203,10.2398,10.2398,10.2593,10.2789,10.2789,10.2789,10.2789,10.2789,10.2789,10.2789,10.2789,10.2789,10.2984,10.3608,10.3687,10.3999,10.4897,10.5014,10.5287,10.6185,10.6302,10.6302,10.6302,10.6497,10.7005,10.759,10.7786,10.802,10.802,10.8605,10.8996,10.9308,11.0401,11.1104,11.1416,11.2314,11.2707,11.2707,11.3019,11.3097,4.4893,4.7742,4.9508,4.8849,4.7574,4.5899,4.3701,4.1004,3.8352,3.6164,3.5287,3.4917,3.495,3.5718,3.7367,4.0586,4.3196,4.614,4.9901,5.418,5.8803,6.3763,7.0693,7.6191,7.8973,8.0123,8.062,8.0525,8.0506,8.0735,8.127,8.2176,8.3227,8.4455,8.573,8.6615,8.7089,8.7171,8.7209,8.7209,8.7209,8.7365,8.7715,8.8806,8.9664,0.0,0.0,0.0,0.0,9.2388,9.2388,9.2388,9.2388,9.2388,9.2544,9.3716,9.4526,9.5157,9.6381,9.7147,9.761,9.7692,9.7714,9.7714,9.7714,9.7948,9.8494,9.99,10.0915,10.1698,10.2593,10.2789,10.2789,10.2789,10.2789,10.2789,10.2789,10.2789,10.2789,10.2789,10.2789,10.2906,10.3218,10.3296,10.3608,10.4506,10.4584,10.4897,10.5795,10.5912,10.6185,10.7083,10.72,10.72,10.72,10.72,10.7395,10.802,10.8293,10.8488,10.8488,10.9308,10.9894,11.0206,11.1299,11.2002,11.2314,11.2785,11.3097,11.3097,11.3097,11.3097,0.0,4.5071,4.6819,4.7572,4.6032,4.3948,4.2401,3.9608,0.0,3.5325,3.4946,3.4946,3.5059,3.5785,3.6483,3.6872,4.1048,4.4875,4.668,5.2187,5.8797,6.6323,7.0075,7.3369,7.6647,7.9092,8.0506,8.0506,8.0506,8.0506,8.0506,8.1542,8.2585,8.3589,8.5364,8.6588,8.7089,8.7171,8.7209,8.7209,8.7209,8.7637,8.8417,8.8456,8.943,0.0,0.0,0.0,0.0,9.2388,9.2388,9.2388,9.2388,9.2388,9.2583,9.4223,9.4883,9.5241,9.6927,9.7538,9.7608,9.7692,9.7714,9.7714,9.7714,9.8338,9.9273,10.0095,10.0915,10.1815,10.2593,10.2789,10.2789,10.2789,10.2789,10.2789,10.2789,10.2789,10.2789,10.2789,10.2789,10.3101,10.3882,10.4118,10.4389,10.5404,10.5482,10.5795,10.6693,10.681,10.7083,10.7903,10.802,10.802,10.8098,10.802,10.802,10.8098,10.8918,10.9308,10.9386,11.0206,11.0987,11.1807,11.1885,11.2314,11.3097,11.3097,11.3097,11.3097,11.3214,11.3214,3.4505,0.0,3.9841,3.8951,3.8809,3.8797,0.0,3.7503,3.6353,3.5974,3.5363,3.5287,3.658,3.7037,3.8502,4.2406,4.517,4.7896,5.0888,5.7549,6.4688,7.1642,7.4278,7.6609,7.9321,8.0162,8.0506,8.0506,8.0506,8.0506,8.0506,8.1542,8.2301,8.2764,8.4672,8.6169,8.7089,8.7171,8.7209,8.7209,8.7209,8.7326,8.752,8.8183,8.9079,0.0,0.0,0.0,9.2388,9.2388,9.2388,9.2388,9.2388,9.2388,9.2544,9.3603,9.4417,9.5133,9.6234,9.707,9.7692,9.768,9.7714,9.7714,9.7714,9.8768,10.0017,10.0212,10.1383,10.2515,10.2711,10.2789,10.2789,10.2789,10.2789,10.2789,10.2789,10.2789,10.2789,10.2789,10.2789,10.3101,10.3882,10.4118,10.4586,10.6185,10.638,10.6693,10.759,10.7708,10.7786,10.802,10.802,10.8293,10.8918,10.841,10.8293,10.8996,10.9191,10.9581,11.0206,11.0987,11.1611,11.1807,11.2509,11.2902,11.3097,11.3097,11.3097,11.3097,11.3798,11.411,3.1137,3.3971,3.6606,3.635,3.6663,3.7075,3.7289,3.6465,3.5595,3.5595,3.5211,3.5287,3.6618,3.7199,3.8659,4.2221,4.5252,4.9428,5.5931,6.1409,6.7255,7.401,7.5921,7.7717,8.0238,8.0506,8.0506,8.0506,8.0506,8.0532,8.062,8.1305,8.1974,8.2657,8.3871,8.5157,8.6534,8.6987,8.7209,8.7209,8.7209,8.7209,8.7209,8.7676,8.8378,0.0,0.0,0.0,9.1842,9.2232,9.2388,9.2388,9.2388,9.2388,9.2512,9.3383,9.4261,9.5146,9.6013,9.6945,9.7714,9.7714,9.7714,9.7714,9.7714,9.8924,10.029,10.029,10.1188,10.2281,10.2711,10.2789,10.2789,10.2789,10.2789,10.2789,10.2789,10.2789,10.2906,10.3296,10.3413,10.3804,10.5094,10.5289,10.5717,10.7083,10.7317,10.7512,10.7903,10.802,10.802,10.802,10.841,10.8801,10.9308,10.9191,10.9308,10.9816,11.0206,11.0596,11.1104,11.1885,11.2197,11.1807,11.2707,11.2902,11.2509,11.2902,11.3292,11.368,11.4188,11.4383,3.0381,3.2859,3.5479,3.6226,3.6596,3.6815,3.6885,3.5882,3.4908,3.4908,3.5022,3.5443,3.6552,3.7588,3.8935,4.0916,4.5055,5.1337,6.086,6.4382,6.8356,7.4745,7.635,7.7793,8.0086,8.043,8.0506,8.0506,8.0506,8.0596,8.0795,8.1053,8.1672,8.2666,8.3074,8.4003,8.5485,8.649,8.7092,8.7209,8.7209,8.7209,8.7209,8.7209,8.7676,8.8534,0.0,0.0,9.1141,9.1881,9.2271,9.2388,9.2388,9.2388,9.2519,9.3398,9.4249,9.5148,9.6248,9.7085,9.7714,9.7714,9.7714,9.7714,9.7714,9.8924,10.029,10.029,10.0993,10.1893,10.2593,10.2789,10.2789,10.2789,10.2789,10.2789,10.2789,10.2789,10.3101,10.3882,10.4118,10.4704,10.638,10.6693,10.7005,10.7903,10.802,10.802,10.802,10.802,10.802,10.802,10.8801,10.9308,10.9503,11.0206,11.0789,11.0909,11.1494,11.1885,11.2002,11.2589,11.2589,11.1807,11.2392,11.2392,11.1807,11.2707,11.3485,11.4383,11.4695,11.4695,3.1874,3.3846,3.5033,3.397,3.4795,3.5782,3.5291,3.5029,3.4908,3.4908,3.5481,3.6709,3.8993,4.0691,4.2764,4.5917,5.1237,5.7264,6.3878,6.7018,7.0342,7.4936,7.6876,7.8252,7.9369,8.0095,8.0506,8.0506,8.0506,8.0596,8.0795,8.1034,8.1394,8.1794,8.2776,8.3467,8.3773,8.5374,8.6546,8.7209,8.7209,8.7209,8.7209,8.7209,8.7676,8.8495,0.0,8.9625,9.1102,9.1258,9.1725,9.2388,9.2388,9.2388,9.2519,9.3398,9.4249,9.5228,9.6933,9.7604,9.7714,9.7714,9.7714,9.7714,9.7714,9.8924,10.029,10.029,10.1383,10.2593,10.2789,10.2789,10.2789,10.2789,10.2789,10.2789,10.2789,10.2789,10.3101,10.3882,10.4118,10.4704,10.638,10.6693,10.7005,10.7903,10.802,10.802,10.802,10.802,10.802,10.802,10.8801,10.9581,11.0284,11.1104,11.1885,11.2707,11.208,11.208,11.2902,11.2314,11.1885,11.1807,11.1182,11.1182,11.1807,11.2707,11.3485,11.4383,11.5906,11.6218,3.0703,3.2659,3.4377,3.4625,3.6544,3.8237,3.7629,3.7537,3.7594,3.7594,3.7935,3.8817,4.0924,4.3128,4.6484,5.2241,5.659,6.1168,6.6674,6.8852,7.1412,7.5653,7.6838,7.764,7.8519,7.9369,7.9891,8.0004,8.0434,8.0811,8.1144,8.1324,8.1525,8.1813,8.2314,8.2847,8.3393,8.4172,8.526,8.6546,8.6546,8.678,8.7209,8.7209,8.7404,8.7832,0.0,8.9235,9.044,9.0907,9.1609,9.2388,9.2388,9.2388,9.2526,9.3365,9.4251,9.5225,9.6559,9.7323,9.7714,9.7714,9.7714,9.7792,9.826,9.9275,10.0407,10.0798,10.1813,10.2789,10.2789,10.2789,10.2789,10.2789,10.2789,10.2789,10.2789,10.3218,10.3804,10.4584,10.5209,10.5912,10.72,10.7395,10.7512,10.7903,10.802,10.802,10.802,10.841,10.8684,10.8684,10.9894,11.0792,11.1182,11.2002,11.2707,11.3097,11.2707,11.2509,11.2392,11.2002,11.1416,11.0518,11.0909,11.1416,11.1807,11.3095,11.45,11.5789,11.6608,11.6491,3.0538,3.2234,3.428,3.6156,3.8269,4.0031,4.0588,4.0435,4.0355,4.0961,4.1226,4.1844,4.334,4.6414,5.0951,5.7655,6.0991,6.4398,6.912,7.0495,7.2367,7.5997,7.657,7.6953,7.764,7.8481,7.9065,7.9297,8.0059,8.0752,8.118,8.1464,8.1747,8.1999,8.2005,8.239,8.3081,8.3081,8.4056,8.6001,8.6001,8.6429,8.7209,8.7209,8.7209,8.7248,8.791,8.8806,8.9858,9.0517,9.1414,9.2388,9.2388,9.2405,9.2528,9.34,9.4296,9.5232,9.6117,9.6972,9.7714,9.7714,9.7714,9.787,9.8727,9.9627,10.0485,10.1307,10.2086,10.2789,10.2789,10.2789,10.2789,10.2789,10.2789,10.2906,10.3101,10.3608,10.4389,10.5482,10.6185,10.7005,10.7786,10.802,10.802,10.802,10.802,10.8098,10.8293,10.8918,10.9386,10.9581,11.0909,11.1885,11.208,11.2707,11.3097,11.3097,11.3097,11.2707,11.1807,11.1611,11.0909,10.9581,11.0792,11.1689,11.208,11.3915,11.5515,11.6999,11.6999,11.6491,3.3747,3.4592,3.5413,3.7887,3.8034,3.8553,4.2438,4.2182,4.1762,4.408,4.5179,4.6038,4.6967,5.1831,5.6899,6.0637,6.4047,6.7474,7.103,7.2261,7.3522,7.5356,7.6265,7.6723,7.68,7.7564,7.8176,7.8398,7.9231,7.9945,8.0346,8.1203,8.1792,8.2001,8.2043,8.2143,8.2185,8.2185,8.3471,8.6001,8.6001,8.6429,8.7209,8.7209,8.7209,8.7209,8.7287,8.8261,8.982,8.9858,9.0868,9.2388,9.2388,9.2411,9.2492,9.3371,9.4296,9.5225,9.6089,9.6972,9.7714,9.7714,9.7714,9.787,9.8727,9.9627,10.0485,10.1307,10.2086,10.2789,10.2789,10.2789,10.2789,10.2789,10.2789,10.2984,10.3804,10.4118,10.4586,10.6302,10.6693,10.7005,10.7786,10.802,10.802,10.802,10.802,10.8293,10.9113,10.9308,10.9581,11.0282,11.1182,11.208,11.2902,11.3097,11.3097,11.3097,11.3097,11.2707,11.1807,11.0987,11.0516,11.0399,11.0516,11.1416,11.3019,11.4815,11.6101,11.6999,11.6999,11.6491,3.2152,3.3649,3.5495,3.8059,3.9591,4.1312,4.4505,4.5925,4.734,4.9841,5.022,5.0506,5.1909,5.5344,5.9077,6.2506,6.5497,6.8591,7.2024,7.2796,7.3637,7.5318,7.5777,7.5968,7.5968,7.6685,7.7335,7.7704,7.8574,7.9494,8.0427,8.088,8.1419,8.1969,8.2088,8.2107,8.2107,8.2107,8.2887,8.4406,8.491,8.5611,8.6468,8.6975,8.7209,8.7209,8.7209,8.7871,8.904,8.9586,9.0517,9.1647,9.2193,9.2412,9.2507,9.2833,9.3867,9.5162,9.5495,9.6503,9.7714,9.7714,9.7714,9.7948,9.9392,10.0017,10.0603,10.1891,10.2515,10.2789,10.2789,10.2789,10.2789,10.2789,10.2789,10.2984,10.3882,10.4506,10.5287,10.6497,10.7083,10.759,10.7903,10.802,10.8215,10.8684,10.8801,10.9113,10.9894,11.0518,11.0987,11.1299,11.208,11.2707,11.3097,11.3097,11.3097,11.3097,11.3097,11.2509,11.1104,11.0711,11.0516,11.0516,11.0987,11.2392,11.4698,11.5906,11.6686,11.6999,11.6999,11.6218,3.1473,3.294,3.5135,3.7647,4.0561,4.3695,4.7036,4.9273,5.1554,5.4655,5.4579,5.4442,5.5905,5.787,6.0327,6.3474,6.62,6.9013,7.2147,7.2826,7.3514,7.4936,7.5318,7.5509,7.5509,7.6006,7.6462,7.6885,7.7775,7.8733,7.9653,8.0127,8.0769,8.1597,8.1663,8.1831,8.2107,8.2107,8.2419,8.3003,8.3861,8.4871,8.6001,8.6585,8.6975,8.7209,8.7209,8.7676,8.8573,8.943,9.0479,9.157,9.2154,9.2435,9.245,9.2479,9.3593,9.5059,9.5071,9.623,9.7714,9.7714,9.7714,9.7987,9.9431,10.0095,10.0603,10.2008,10.2593,10.2789,10.2789,10.2789,10.2789,10.2789,10.2789,10.3101,10.4311,10.5014,10.5717,10.6888,10.759,10.802,10.802,10.802,10.8215,10.8801,10.9113,10.9581,11.0399,11.1299,11.1885,11.2197,11.2707,11.3097,11.3097,11.3097,11.3097,11.3097,11.3097,11.2392,11.0987,11.1182,11.1299,11.1299,11.2392,11.3915,11.5713,11.6608,11.6882,11.6608,11.6296,11.5515,3.2486,3.2973,3.4301,3.6808,4.0593,4.5066,5.01,5.1881,5.3624,5.7884,5.8036,5.7695,5.8567,5.9551,6.1035,6.3518,6.6168,6.8784,7.1344,7.2452,7.3284,7.4078,7.4966,7.5471,7.5509,7.5509,7.5591,7.5772,7.6853,7.7582,7.7773,7.8855,7.989,8.0776,8.0815,8.1208,8.2068,8.2107,8.2107,8.2107,8.2964,8.4289,8.6001,8.6001,8.6429,8.7209,8.7209,8.7676,8.8573,8.943,9.0829,9.2388,9.2388,9.2388,9.2419,9.2496,9.3542,9.4994,9.5092,9.623,9.7714,9.7714,9.7714,9.787,9.8727,9.9627,10.0485,10.1307,10.2086,10.2789,10.2789,10.2789,10.2789,10.2789,10.2789,10.3296,10.5014,10.5404,10.5912,10.7708,10.802,10.802,10.802,10.802,10.802,10.802,10.8801,10.9581,11.0399,11.1299,11.208,11.3019,11.3097,11.3097,11.3097,11.3097,11.3097,11.3097,11.3097,11.2707,11.1807,11.2589,11.3097,11.3097,11.4815,11.5713,11.5713,11.6608,11.6491,11.5713,11.4813,11.4383,3.1596,3.3398,3.6045,3.8541,4.3208,4.837,5.2798,5.492,5.6929,6.0559,6.109,6.0825,6.0462,6.1709,6.3236,6.4606,6.7076,6.951,7.1421,7.1917,7.2597,7.404,7.4431,7.4813,7.5433,7.5509,7.5591,7.5772,7.6306,7.6924,7.7773,7.8311,7.8994,7.988,8.0464,8.0932,8.1166,8.1792,8.2107,8.2107,8.2341,8.3393,8.5104,8.5728,8.6429,8.7209,8.7209,8.7365,8.7637,8.8534,9.0287,9.2349,9.1725,9.1853,9.2391,9.2469,9.359,9.5077,9.5082,9.623,9.7714,9.7714,9.7714,9.787,9.8727,9.9627,10.0485,10.1307,10.2086,10.2789,10.2789,10.2789,10.2789,10.2789,10.3296,10.3999,10.5209,10.5912,10.6614,10.7786,10.802,10.802,10.802,10.802,10.8215,10.8801,10.9581,11.0518,11.1299,11.2197,11.2589,11.2197,11.2197,11.2197,11.2197,11.1611,11.1299,11.1299,11.1807,11.208,11.1807,11.2002,11.2509,11.3097,11.4188,11.5086,11.5713,11.6608,11.6218,11.4813,11.45,11.411,3.2576,3.5077,3.8281,4.0777,4.5331,5.0606,5.6095,5.8407,6.0151,6.2833,6.2871,6.234,6.2122,6.3077,6.4294,6.5474,6.764,6.9655,7.0992,7.1497,7.207,7.3093,7.3781,7.4431,7.4927,7.5318,7.554,7.566,7.5992,7.6433,7.7134,7.7489,7.8082,7.8984,7.9529,8.0114,8.0776,8.1325,8.1753,8.2107,8.2107,8.2848,8.4211,8.5104,8.5923,8.6741,8.7053,8.7404,8.7754,8.83,8.9858,9.1842,9.1297,9.1613,9.2415,9.2445,9.3347,9.4609,9.4983,9.6013,9.7245,9.7597,9.7714,9.7792,9.8338,9.9314,10.0407,10.0915,10.1891,10.2789,10.2789,10.2789,10.2789,10.2789,10.3491,10.4311,10.5209,10.6107,10.7005,10.7786,10.802,10.802,10.802,10.802,10.8215,10.8684,10.9503,11.0518,11.1611,11.2002,11.1885,11.1299,11.1299,11.1299,11.1299,11.0789,11.0594,11.0987,11.1494,11.2002,11.2314,11.2587,11.3095,11.3602,11.45,11.5008,11.5203,11.571,11.5203,11.3915,11.3915,11.3602,3.4541,3.7287,4.0544,4.3246,4.727,5.2464,5.959,6.1818,6.2871,6.4538,6.3705,6.2833,6.3591,6.4018,6.475,6.6273,6.8098,6.9578,7.0296,7.1068,7.1612,7.1688,7.3055,7.404,7.4193,7.4927,7.5403,7.5506,7.5877,7.6147,7.6221,7.6644,7.728,7.8165,7.8243,7.9023,8.0542,8.0737,8.1208,8.199,8.2068,8.2497,8.3315,8.4172,8.5104,8.604,8.6858,8.7676,8.8495,8.8417,8.943,9.0985,9.0985,9.1492,9.2285,9.2383,9.2959,9.3818,9.4765,9.5682,9.6541,9.7401,9.7714,9.7714,9.7714,9.8924,10.029,10.029,10.15,10.2789,10.2789,10.2789,10.2789,10.2789,10.3491,10.4389,10.5209,10.6107,10.7083,10.7786,10.802,10.802,10.802,10.802,10.8098,10.8213,10.8918,11.0011,11.1611,11.1182,11.0711,11.0594,11.0516,11.0516,11.0516,11.0399,11.0596,11.1494,11.1611,11.208,11.2902,11.3798,11.4305,11.4305,11.5086,11.5203,11.4305,11.4383,11.3993,11.3097,11.3097,11.3097,3.3605,3.6818,4.0809,4.4687,5.0758,5.6891,6.1166,6.2265,6.2871,6.4538,6.4614,6.4434,6.4576,6.5842,6.6996,6.7377,6.8967,7.0181,7.0372,7.0563,7.0916,7.1612,7.2032,7.275,7.4078,7.4384,7.483,7.5656,7.5971,7.621,7.6433,7.6734,7.7007,7.7269,7.7932,7.8477,7.8828,8.0153,8.0893,0.0,8.1753,8.2185,8.2419,8.3276,8.4523,8.604,8.6858,8.7676,8.8456,8.7754,8.8495,9.0092,9.0092,9.0595,9.1466,9.2152,9.2959,9.3818,9.4765,9.5682,9.6541,9.7401,9.7714,9.7714,9.7714,9.8924,10.029,10.029,10.15,10.2789,10.2789,10.2789,10.2789,10.2789,10.3999,10.5209,10.5404,10.6614,10.7786,10.802,10.802,10.802,10.802,10.802,10.8408,10.9814,11.0087,11.0596,11.1689,11.2197,11.2314,11.1611,11.0909,11.0516,11.0516,10.9306,10.8918,10.9816,11.0401,11.1182,11.2002,11.29,11.3409,11.3409,11.4188,11.4305,11.3409,11.411,11.3993,11.3097,11.3097,11.3097,3.472,3.8493,4.3127,4.8932,5.3897,5.818,6.1098,6.2113,6.2757,6.4008,6.4614,6.4888,6.4888,6.6108,6.7225,6.7643,6.8891,6.996,7.0334,7.0411,7.0563,7.103,7.1459,7.2032,7.2902,7.3399,7.4052,7.5111,7.5379,7.58,7.6488,7.6766,7.6946,7.6996,7.7428,7.7893,7.8282,7.9178,7.9997,8.0815,8.1247,8.1714,8.2146,8.3432,8.4754,8.604,8.6858,8.7443,8.7832,8.7404,8.7988,8.9235,8.9625,9.0326,9.1229,9.2063,9.27,9.3308,9.4607,9.5381,9.5996,9.7284,9.7714,9.7714,9.7714,9.8924,10.029,10.029,10.15,10.2789,10.2789,10.2789,10.2789,10.2789,10.4116,10.5404,10.5404,10.681,10.802,10.802,10.802,10.802,10.802,10.802,10.8488,10.9894,11.0284,11.0987,11.2314,11.208,11.1689,11.1182,11.0789,11.0204,10.9384,10.8996,10.9113,10.9816,11.0714,11.1494,11.2392,11.2902,11.3097,11.3097,11.3485,11.3605,11.3097,11.3605,11.3485,11.3097,11.3097,11.3097,3.5486,4.0246,4.5786,5.276,5.5943,5.799,6.0348,6.1553,6.2454,6.3402,6.4273,6.4888,6.4888,6.5728,6.6654,6.7377,6.8442,6.9425,7.0113,7.0296,7.0411,7.0411,7.103,7.1535,7.1688,7.2338,7.321,7.4228,7.468,7.5293,7.6255,7.6665,7.6917,7.6996,7.6999,7.735,7.8087,7.8204,7.8984,8.0386,8.0659,8.1247,8.2146,8.3744,8.4949,8.5845,8.678,8.7209,8.7209,8.7209,8.7637,8.8378,8.9391,9.0248,9.0985,9.2037,9.2425,9.2713,9.44,9.5038,9.5383,9.7132,9.7714,9.7714,9.7714,9.8924,10.029,10.029,10.15,10.2789,10.2789,10.2789,10.2789,10.2789,10.4116,10.5404,10.5404,10.681,10.802,10.802,10.802,10.802,10.802,10.802,10.8293,10.9308,11.0011,11.1104,11.2902,11.1807,11.0789,11.0516,11.0516,10.9892,10.8486,10.9191,11.0011,11.0594,11.1416,11.2197,11.3097,11.3097,11.3097,11.3097,11.3097,11.3097,11.3097,11.3097,11.3097,11.3097,11.3097,11.3097,3.2406,3.9299,4.6961,5.1578,5.511,5.7884,5.9666,6.0689,6.1705,6.3288,6.4273,6.4888,6.4888,6.5728,6.6425,6.6539,6.806,6.9234,6.9349,6.996,7.0411,7.0411,7.0487,7.0877,7.165,7.1803,7.23,7.3391,7.4363,7.5047,7.5444,7.6369,7.6933,7.6996,7.6999,7.7077,7.7155,7.7932,7.8399,7.8633,8.0114,8.1247,8.2146,8.312,8.4056,8.4949,8.6507,8.7209,8.7209,8.7209,8.7287,8.7559,8.9157,8.9858,9.017,9.1803,9.2426,9.2668,9.4392,9.5038,9.5379,9.7144,9.7714,9.7714,9.7714,9.8924,10.029,10.029,10.15,10.2789,10.2789,10.2789,10.2789,10.2789,10.4116,10.5404,10.5404,10.681,10.802,10.802,10.802,10.802,10.802,10.802,10.8098,10.8215,10.9501,11.1104,11.2902,11.2902,11.2197,11.0711,11.0516,11.0399,11.0204,10.9894,11.0206,11.1182,11.1611,11.2197,11.3097,11.3097,11.3097,11.3097,11.3097,11.3097,11.3097,11.3097,11.3097,11.3097,11.3097,11.3097,3.5176,4.1294,4.7188,5.135,5.4193,5.655,5.8718,5.9856,6.0765,6.1932,6.325,6.4311,6.4804,6.5348,6.5892,6.6349,6.7175,6.8126,6.9082,6.9502,6.9884,7.0334,7.0411,7.0563,7.0916,7.0954,7.1411,7.2476,7.3163,7.4038,7.525,7.5845,7.6446,7.6996,7.6999,7.6999,7.6999,7.7389,7.8048,7.8984,8.0192,8.1247,8.2146,8.3003,8.39,8.4754,8.6001,8.678,8.7209,8.7209,8.7209,8.7326,8.8573,8.9352,8.9936,9.1219,9.1988,9.2579,9.3843,9.4647,9.5305,9.6559,9.7284,9.7714,9.7714,9.8572,9.9666,10.0212,10.1188,10.2203,10.2711,10.2789,10.2789,10.2789,10.4116,10.5482,10.5795,10.7005,10.802,10.802,10.802,10.802,10.802,10.802,10.802,10.802,11.0284,11.2197,11.3019,11.3097,11.208,10.9386,10.9111,10.9111,10.9111,10.8918,10.9503,11.1299,11.1689,11.2197,11.3097,11.3097,11.3097,11.3097,11.3097,11.3097,11.3097,11.3097,11.3097,11.3097,11.3097,11.3097,3.6183,4.1035,4.5281,4.9455,5.2374,5.4882,5.7194,5.8718,5.9818,6.0614,6.1932,6.3288,6.4349,6.4875,6.5373,6.5998,6.6396,6.7109,6.8394,6.8738,6.9158,6.999,7.0113,7.0181,7.0372,7.0411,7.0729,7.1543,7.2065,7.3026,7.4461,7.5016,7.5713,7.6646,7.6688,7.6765,7.6999,7.6999,7.7737,7.9217,8.0075,8.0932,8.1792,8.2653,8.3549,8.4406,8.5299,8.6235,8.717,8.6975,8.7014,8.7287,8.8144,8.904,8.9897,9.079,9.1661,9.2515,9.3409,9.4294,9.5232,9.6094,9.6972,9.7714,9.7714,9.8299,9.9195,10.0095,10.0915,10.1698,10.2593,10.2789,10.2789,10.2789,10.3999,10.5404,10.6497,10.7395,10.802,10.802,10.802,10.802,10.802,10.802,10.802,10.802,11.0909,11.2785,11.1887,11.1807,11.0792,10.8293,10.802,10.802,10.802,10.802,10.8996,11.1299,11.1689,11.2197,11.3097,11.3097,11.3097,11.3097,11.3097,11.3097,11.3097,11.3097,11.3097,11.3097,11.3097,11.3097,3.1676,3.5773,4.0013,4.4258,4.8925,5.298,5.4731,5.7005,5.8984,5.978,6.0652,6.1743,6.3364,6.4398,6.5069,6.5229,6.5974,6.6588,6.6812,6.7477,6.8287,6.9158,6.9273,6.9578,7.0334,7.0411,7.0419,7.0473,7.1615,7.2375,7.2546,7.3695,7.4791,7.5749,7.5752,7.6142,7.6999,7.6999,7.7467,7.836,7.9178,8.0036,8.0893,8.1753,8.2653,8.351,8.4406,8.5689,8.7131,8.639,8.6507,8.7287,8.8144,8.904,8.9897,9.079,9.1651,9.2506,9.3398,9.4285,9.5152,9.6104,9.6972,9.7714,9.7714,9.8299,9.9195,10.0095,10.0915,10.1698,10.2593,10.2789,10.2789,10.2789,10.3491,10.4897,10.7395,10.802,10.802,10.802,10.802,10.802,10.802,10.802,10.802,10.802,11.0909,11.1887,10.8684,10.8293,10.8215,10.802,10.802,10.802,10.802,10.802,10.8996,11.1299,11.1689,11.2197,11.3097,11.3097,11.3097,11.3097,11.3097,11.3097,11.3097,11.3097,11.3097,11.3097,11.3097,11.3097,3.1445,3.4519,3.7807,4.1527,4.5464,4.9007,5.1175,5.4048,5.6664,5.799,5.9401,6.0689,6.178,6.3221,6.4398,6.5002,6.543,6.5908,6.6482,6.6911,6.7439,6.8287,6.8852,6.9311,6.9616,7.0113,7.0445,7.057,7.1138,7.1798,7.2536,7.315,7.4165,7.5633,7.5713,7.6103,7.6999,7.6999,7.7428,7.8321,7.91,7.9958,8.0815,8.1714,8.2575,8.3393,8.3159,8.4328,8.639,8.6118,8.6468,8.7248,8.7559,8.8534,8.9858,9.017,9.118,9.2461,9.2811,9.3854,9.5073,9.5441,9.6542,9.7714,9.7714,9.7909,9.8455,9.99,10.0485,10.0993,10.2398,10.2789,10.3101,10.4194,10.5014,10.599,10.759,10.802,10.802,10.802,10.802,10.802,10.802,10.802,10.802,10.802,10.8996,10.9386,10.8215,10.802,10.802,10.802,10.802,10.802,10.802,10.8684,10.9816,11.1299,11.1689,11.2197,11.3097,11.3097,11.3097,11.3097,11.3097,11.3097,11.3097,11.3097,11.3097,11.3097,11.3097,11.3097,3.0016,3.2555,3.5699,3.966,4.2398,4.5167,4.9386,5.2077,5.42,5.6171,5.815,5.9742,6.0538,6.1915,6.3285,6.4419,6.4709,6.5112,6.5968,6.6176,6.6567,6.74,6.8012,6.8585,6.9158,6.9734,7.0272,7.0657,7.0953,0.0,7.2223,7.2485,7.3435,7.5204,7.5558,7.6103,7.6999,7.6999,7.7272,7.7893,7.8984,7.9802,8.0386,8.1558,8.2419,8.2964,8.2653,8.3705,8.5572,8.5572,8.604,8.6819,8.7092,8.8261,8.982,8.982,9.0907,9.2422,9.2499,9.3581,9.4995,9.5091,9.6269,9.7714,9.7714,9.7909,9.8455,9.99,10.0485,10.0993,10.2398,10.2789,10.3218,10.4584,10.5482,10.6302,10.7317,10.7786,10.7903,10.759,10.7512,10.759,10.7903,10.802,10.802,10.802,10.7005,10.6693,10.7784,10.802,10.802,10.802,10.802,10.802,10.802,10.8996,11.0089,11.0987,11.1494,11.2197,11.3097,11.3097,11.3097,11.3097,11.3097,11.3097,11.3097,11.3097,11.3097,11.3097,11.3097,11.3292,0.0,0.0,0.0,3.8309,3.966,4.1679,4.9108,5.0858,5.1654,5.4238,5.6747,5.8756,5.9666,6.05,6.1624,6.3415,6.3736,6.4144,6.5105,6.5282,6.5657,6.6544,6.6667,6.7324,6.8983,6.932,6.9802,7.0616,7.1081,7.1363,7.1422,7.1694,7.2603,7.4311,7.5246,7.6103,7.696,7.6999,7.6999,7.7038,7.8711,7.949,7.9568,8.1325,8.2107,8.2146,8.3003,8.3822,8.4637,8.4715,8.5221,8.6079,8.6897,8.8261,8.982,8.982,9.0907,9.2422,9.2499,9.3581,9.4995,9.5091,9.6269,9.7714,9.7714,9.8299,9.9195,10.0095,10.0915,10.1698,10.2593,10.2789,10.2984,10.3882,10.4819,10.5599,10.6497,10.7395,10.7708,10.6888,10.6497,10.6614,10.7708,10.802,10.802,10.802,10.5092,10.4194,10.759,10.802,10.802,10.802,10.802,10.802,10.802,10.9113,10.9894,11.0516,11.1299,11.2197,11.3097,11.3097,11.3097,11.3097,11.3097,11.3097,11.3097,11.3097,11.3097,11.3097,11.3097,11.3602,2.7881,0.0,0.0,0.0,0.0,0.0,4.0468,4.3089,4.6045,5.0372,5.2343,5.4276,5.7497,5.8794,5.9712,6.0798,6.2563,6.3904,6.4182,6.478,6.5348,6.5657,6.6207,6.6797,6.748,6.8171,6.9014,0.0,7.0389,7.0805,7.163,7.2357,7.2977,7.3453,7.4934,7.583,7.6064,7.6688,7.6999,7.7038,7.8711,7.949,7.9568,8.1325,8.2107,8.2107,8.2341,8.2614,8.2964,8.4871,8.5767,8.6079,8.6897,8.8261,8.982,8.982,9.0907,9.2422,9.2499,9.3581,9.4995,9.5091,9.6269,9.7714,9.7714,9.8299,9.9195,10.0095,10.0915,10.1698,10.2593,10.2789,10.3218,10.4702,10.4897,10.5285,10.72,10.7786,10.7708,10.6888,10.6107,10.5717,10.6107,10.72,10.802,10.802,10.72,10.6888,10.7903,10.802,10.802,10.802,10.802,10.802,10.802,10.9386,11.0284,11.0516,11.1885,11.2785,11.3097,11.3097,11.3097,11.3097,11.3097,11.3097,11.3097,11.3097,11.3097,11.3097,11.3097,11.3602,0.0,0.0,0.0,0.0,0.0,0.0,3.8623,4.0463,4.2786,4.7839,5.0107,5.2032,5.4806,5.6588,5.7922,5.8718,6.073,6.2449,6.3166,6.4051,6.4666,6.474,6.548,6.6224,6.6842,6.7475,6.8301,6.9455,6.9994,7.0731,7.1749,7.2276,7.2713,7.3103,7.4427,7.5324,7.5713,7.6571,7.6999,7.7038,7.836,7.9178,7.9568,8.0935,8.1753,8.2107,8.2497,8.2458,8.2302,8.491,8.5806,8.5572,8.6741,8.8261,8.982,8.982,9.0907,9.2415,9.2432,9.357,9.4994,9.5067,9.6288,9.7714,9.7714,9.8299,9.9195,10.0095,10.111,10.2203,10.2711,10.2789,10.3101,10.4506,10.4702,10.5012,10.6888,10.7083,10.681,10.6302,10.5717,10.5209,10.4389,10.5209,10.6302,10.7786,10.802,10.7512,10.599,10.7083,10.802,10.802,10.802,10.802,10.802,10.9501,11.0516,11.0516,11.208,11.3097,11.3097,11.3097,11.3097,11.3097,11.3097,11.3097,11.3097,11.3097,11.3097,11.3097,11.3487,11.411,3.0034,3.1027,0.0,0.0,3.4132,0.0,3.9855,4.0321,4.0918,4.5483,4.8325,5.0327,5.1502,5.3707,5.5602,5.6323,5.815,6.0145,6.2078,6.3082,6.3671,6.384,6.4626,6.552,6.6535,6.6963,6.7567,6.8577,6.9805,7.085,7.1622,7.1741,7.2167,7.2947,7.3882,7.4778,7.5558,7.6532,7.6999,7.6999,7.7893,7.8711,7.9529,8.0386,8.1286,8.2146,8.2925,8.2809,8.2302,8.4832,8.5416,8.4871,8.6546,8.8261,8.982,8.982,9.0907,9.2405,9.2386,9.3548,9.4992,9.5077,9.6267,9.7714,9.7714,9.8377,9.9351,10.029,10.1696,10.2789,10.2789,10.2789,10.2984,10.3882,10.4194,10.47,10.6185,10.5795,10.5092,10.5092,10.5092,10.4584,10.3101,10.3101,10.4389,10.7512,10.802,10.6888,10.3804,10.6107,10.802,10.802,10.802,10.802,10.802,10.9501,11.0516,11.0516,11.208,11.3097,11.3097,11.3097,11.3097,11.3097,11.3097,11.3097,11.3097,11.3097,11.3097,11.3097,11.3993,11.4891,3.2512,3.3551,3.4535,3.3097,0.0,0.0,3.3802,3.5594,3.8315,4.0057,4.1313,4.3197,4.6733,4.8938,5.0189,5.0379,5.4056,5.796,6.0942,6.2109,6.2736,6.2877,6.3624,6.436,6.4845,6.5727,6.6691,6.7743,6.9539,7.0642,7.0845,7.1469,7.1897,7.205,7.357,7.4466,7.4661,7.622,7.6999,7.6999,7.7893,7.8711,7.9529,8.0386,8.1286,8.2107,8.2263,8.2263,8.2263,8.4172,8.4832,8.4871,8.6546,8.8261,8.982,8.982,9.0907,9.2405,9.2386,9.3548,9.4992,9.5077,9.6267,9.7714,9.7714,9.8807,10.0407,10.1891,10.2515,10.2789,10.2789,10.2789,10.3101,10.4192,10.3804,10.3999,10.7005,10.5404,10.3296,10.3296,10.3296,10.3218,10.2906,10.5092,10.72,10.7903,10.802,10.7786,10.7083,10.759,10.802,10.802,10.802,10.802,10.802,10.9501,11.0516,11.0516,11.208,11.3097,11.3097,11.3097,11.3097,11.3097,11.3097,11.3097,11.3097,11.3097,11.3097,11.3097,11.3993,11.4891,3.3924,3.4537,3.5349,3.4584,0.0,0.0,0.0,3.4752,3.6156,3.8764,3.8947,3.9792,4.3625,4.499,4.6095,4.7763,5.0872,5.3904,5.6398,5.9658,6.1809,6.1978,6.2725,6.339,6.3777,6.4665,6.5903,6.7509,6.8647,6.9663,7.0533,7.0962,7.1391,7.178,7.3064,7.396,7.4388,7.5713,7.6571,7.6999,7.7428,7.8282,7.9529,7.9958,8.0857,8.2107,8.2107,8.2107,8.2224,8.3978,8.4715,8.4871,8.6546,8.8261,8.982,8.982,9.0907,9.2398,9.2411,9.3266,9.4421,9.4918,9.5973,9.712,9.7566,9.8924,10.0485,10.1305,10.2203,10.2789,10.2789,10.2789,10.2906,10.3491,10.3218,10.3296,10.5014,10.3999,10.2789,10.2789,10.2789,10.2789,10.2789,10.4194,10.599,10.7708,10.802,10.802,10.802,10.802,10.802,10.802,10.802,10.802,10.802,10.9501,11.0516,11.0516,11.208,11.3097,11.3097,11.3097,11.3097,11.3097,11.3097,11.3097,11.3097,11.3097,11.3292,11.3798,11.4617,11.5515,0.0,0.0,0.0,0.0,0.0,3.626,0.0,0.0,0.0,0.0,0.0,3.7742,4.0647,4.1302,4.2337,4.5034,0.0,0.0,0.0,5.5337,0.0,5.9832,6.1073,6.2025,6.2368,6.3103,6.4568,6.7021,6.7003,6.7854,6.9985,7.0417,7.0884,7.1547,7.2557,7.3531,7.4388,7.5246,7.6142,7.6999,7.6999,7.7893,7.949,7.949,8.0467,8.2107,8.2107,8.2107,8.2224,8.3978,8.4715,8.4871,8.6546,8.8261,8.982,8.982,9.0907,9.2388,9.2388,9.2969,9.3832,9.4704,9.5742,9.6822,9.7689,9.9041,10.029,10.0485,10.1618,10.2789,10.2789,10.2789,10.2789,10.2789,10.2789,10.2906,10.3218,10.3608,10.3608,10.2906,10.2789,10.2789,10.2789,10.2789,10.3999,10.7512,10.802,10.802,10.802,10.802,10.802,10.802,10.802,10.802,10.802,10.9386,11.0282,11.0516,11.2002,11.2902,11.3097,11.3097,11.3097,11.3097,11.3097,11.3097,11.3097,11.3292,11.368,11.4383,11.5281,11.6218,0.0,0.0,0.0,0.0,3.9902,0.0,0.0,0.0,0.0,3.4469,0.0,0.0,0.0,0.0,0.0,0.0,0.0,0.0,4.4762,4.7839,5.1247,5.4285,5.7429,5.9351,5.9474,5.9906,6.1607,6.5129,6.4153,6.4818,6.8112,6.9751,7.065,7.0728,7.2284,7.3531,7.4388,7.5246,7.6142,7.6999,7.6999,7.7893,7.949,7.949,8.0467,8.2107,8.2107,8.2107,8.2224,8.3978,8.4715,8.4871,8.6546,8.8261,8.982,8.982,9.0907,9.2388,9.2388,9.2969,9.3832,9.4704,9.617,9.7723,9.8574,9.9548,10.0407,10.119,10.2086,10.2789,10.2789,10.2789,10.2789,10.2789,10.2789,10.3218,10.4819,10.6302,10.6497,10.3413,10.2789,10.2789,10.2789,10.2789,10.3999,10.7512,10.802,10.802,10.802,10.802,10.802,10.802,10.802,10.802,10.802,10.8918,10.9699,11.0516,11.1416,11.2314,11.3097,11.3097,11.3097,11.3097,11.3097,11.3097,11.3097,11.3915,11.4305,11.4383,11.5281,11.6218,0.0,0.0,0.0,0.0,0.0,0.0,3.5272,0.0,3.4778,0.0,0.0,0.0,0.0,0.0,0.0,0.0,3.9613,0.0,0.0,0.0,4.722,0.0,0.0,0.0,5.5852,5.7276,5.9338,6.2441,6.1744,6.2726,6.6296,6.8146,6.9557,7.0572,7.1741,7.3025,7.4388,7.4778,7.5635,7.6999,7.6999,7.7893,7.949,7.949,8.0467,8.2107,8.2107,8.2107,8.2224,8.3978,8.4715,8.4871,8.6546,8.8261,8.982,8.982,9.0907,9.2388,9.2388,9.2968,9.3928,9.5321,9.6638,9.7753,9.8143,9.8846,9.9705,10.0603,10.1383,10.2203,10.2711,10.2789,10.2789,10.2789,10.2789,10.2984,10.3687,10.5287,10.5795,10.3296,10.2789,10.2789,10.2789,10.2789,10.3999,10.7512,10.802,10.802,10.802,10.802,10.802,10.802,10.802,10.802,10.802,10.8801,10.9581,11.0399,11.1807,11.2707,11.3097,11.3097,11.3097,11.3097,11.3097,11.3097,11.3097,11.3993,11.4695,11.5203,11.5984,11.6882,4.1401,0.0,0.0,0.0,0.0,0.0,0.0,0.0,0.0,0.0,0.0,0.0,0.0,0.0,0.0,0.0,0.0,3.8741,0.0,4.0284,0.0,0.0,0.0,0.0,0.0,5.3987,5.5955,5.9606,5.8661,5.9989,6.4799,6.6696,6.8427,7.0183,7.1274,7.2635,7.4388,7.4388,7.5285,7.6999,7.6999,7.7893,7.949,7.949,8.0467,8.2107,8.2107,8.2224,8.2575,8.4095,8.4832,8.5182,8.6624,8.8105,8.9469,8.9703,9.0751,9.2076,9.231,9.3114,9.4262,9.5514,9.6718,9.7693,9.768,9.8299,9.9195,10.0095,10.0915,10.1698,10.2593,10.2789,10.2789,10.2789,10.2789,10.2906,10.3101,10.3999,10.4389,10.3491,10.2984,10.2789,10.2789,10.2789,10.3999,10.7512,10.802,10.802,10.802,10.802,10.802,10.802,10.802,10.802,10.802,10.8605,10.9386,11.0399,11.208,11.3097,11.3097,11.3097,11.3097,11.3097,11.3097,11.3214,11.3487,11.4305,11.5203,11.6101,11.6686,11.7506,0.0,0.0,0.0,3.9268,0.0,0.0,0.0,0.0,3.6612,0.0,0.0,0.0,0.0,0.0,0.0,0.0,0.0,0.0,0.0,0.0,0.0,0.0,0.0,0.0,0.0,4.9504,5.0749,0.0,5.4407,5.5994,6.3748,6.58,6.753,6.9286,7.0923,7.2635,7.4388,7.4388,7.5285,7.6999,7.6999,7.7893,7.949,7.949,8.0467,8.2107,8.2107,8.2575,8.3432,8.4328,8.5182,8.604,8.6858,8.7754,8.8651,8.9508,9.0365,9.1258,9.2115,9.3512,9.4959,9.5016,9.621,9.7609,9.769,9.8299,9.9195,10.0095,10.0915,10.1698,10.2593,10.2789,10.2789,10.2789,10.2789,10.2984,10.3882,10.3413,10.3218,10.4192,10.3608,10.2789,10.2789,10.2789,10.3999,10.7512,10.802,10.802,10.802,10.802,10.802,10.802,10.802,10.802,10.802,10.802,10.8681,11.0399,11.208,11.3097,11.3097,11.3097,11.3097,11.3097,11.3097,11.3487,11.4383,11.5203,11.6101,11.6999,11.6999,11.7506,0.0,0.0,4.7003,4.2498,0.0,0.0,0.0,0.0,0.0,0.0,0.0,0.0,0.0,0.0,0.0,0.0,0.0,0.0,0.0,0.0,0.0,0.0,0.0,0.0,0.0,0.0,0.0,5.2565,5.2425,0.0,6.1058,6.3681,6.6031,6.8385,7.0102,7.2092,7.4388,7.4388,7.5285,7.6999,7.7584,7.8438,7.9529,8.0114,8.1013,8.2107,8.2107,8.2575,8.3471,8.4328,8.5221,8.6079,8.6897,8.7365,8.7832,8.9274,9.0365,9.13,9.2742,9.4022,9.5111,9.568,9.6655,9.7615,9.7617,9.7848,9.8265,9.9124,10.0005,10.0915,10.1696,10.2398,10.2789,10.2789,10.2789,10.2906,10.3218,10.2984,10.2906,10.3296,10.3101,10.2789,10.2789,10.2789,10.3999,10.7512,10.802,10.802,10.802,10.802,10.802,10.802,10.802,10.802,10.802,10.8684,10.9503,11.0399,11.208,11.3097,11.3097,11.3097,11.3097,11.3097,11.3097,11.3485,11.4383,11.5281,11.6101,11.6999,11.7584,11.8014,4.9065,4.9408,0.0,4.5276,4.3858,0.0,3.8449,0.0,0.0,0.0,0.0,0.0,0.0,0.0,0.0,0.0,0.0,0.0,0.0,3.3349,0.0,0.0,0.0,0.0,0.0,0.0,4.6227,5.0261,5.0073,5.2504,0.0,0.0,6.4782,6.7437,6.9515,7.1819,7.4388,7.4388,7.5285,7.6999,7.7893,7.8711,7.9529,8.0386,8.1286,8.2107,8.2107,8.277,8.39,8.4484,8.5377,8.6468,8.7014,8.7209,8.7404,8.9157,9.0556,9.1725,9.2859,9.3997,9.507,9.5644,9.6656,9.7585,9.7599,9.7613,9.7773,9.8669,9.9556,10.0392,10.0881,10.1696,10.2281,10.2281,10.2281,10.2398,10.2711,10.2789,10.2789,10.2789,10.2789,10.2789,10.2789,10.3101,10.4506,10.7512,10.802,10.802,10.802,10.802,10.802,10.802,10.802,10.802,10.802,10.9191,11.0089,11.0516,11.208,11.3097,11.3097,11.3097,11.3097,11.3097,11.3097,11.3683,11.4891,11.5398,11.6296,11.7506,11.8014,11.8287]}]]